[[{"header":{"parameterUnit":"m.s-1","parameterCategory":1,"la1":30.6,"la2":29.2853,"lo1":-89.7004,"lo2":-87.6739,"dx":0.0162,"dy":0.0183,"nx":112,"ny":82,"refTime":"2022-11-04T00:00:00:Z","depth":0,"parameterNumber":2,"parameterNumberName":"U-component_of_WINDS"},"data":[0.0,0.0,0.0,0.0,0.0,0.0,0.0,0.0,0.0,0.0,0.0,0.0,0.0,0.0,0.0,0.0,0.0,0.0,0.0,0.0,0.0,0.0,0.0,0.0,0.0,0.0,0.0,0.0,0.0,0.0,0.0,0.0,0.0,0.0,0.0,0.0,0.0,0.0,0.0,0.0,0.0,0.0,0.0,0.0,0.0,0.0,0.0,0.0,0.0,0.0,0.0,0.0,0.0,0.0,0.0,0.0,0.0,0.0,0.0,0.0,0.0,0.0,0.0,0.0,0.0,0.0,0.0,0.0,0.0,0.0,0.0,0.0,0.0,0.0,0.0,0.0,0.0,0.0,0.0,0.0,0.0,0.0,0.0,0.0,0.0,0.0,0.0,0.0,0.0,0.0,3.4899,3.5579,3.575,3.578,3.578,3.5699,3.5639,3.5639,0.0,0.0,0.0,0.0,0.0,0.0,0.0,0.0,0.0,0.0,0.0,0.0,0.0,0.0,0.0,0.0,0.0,0.0,0.0,0.0,0.0,0.0,0.0,0.0,0.0,0.0,0.0,0.0,0.0,0.0,0.0,0.0,0.0,0.0,0.0,0.0,0.0,0.0,0.0,0.0,0.0,0.0,0.0,0.0,0.0,0.0,0.0,0.0,0.0,0.0,0.0,0.0,0.0,0.0,0.0,0.0,0.0,0.0,0.0,0.0,0.0,0.0,0.0,0.0,0.0,0.0,0.0,0.0,0.0,0.0,0.0,0.0,0.0,0.0,0.0,0.0,0.0,0.0,0.0,0.0,0.0,0.0,0.0,0.0,0.0,0.0,0.0,0.0,0.0,0.0,0.0,0.0,0.0,0.0,0.0,0.0,0.0,0.0,0.0,0.0,0.0,0.0,0.0,0.0,3.5617,3.6276,3.6806,3.7127,3.7127,3.6626,3.6335,3.6335,0.0,0.0,0.0,0.0,0.0,0.0,0.0,0.0,0.0,0.0,0.0,0.0,0.0,0.0,0.0,0.0,0.0,0.0,0.0,0.0,0.0,0.0,0.0,0.0,0.0,0.0,0.0,0.0,0.0,0.0,0.0,0.0,0.0,0.0,0.0,0.0,0.0,0.0,0.0,0.0,0.0,0.0,0.0,0.0,0.0,0.0,0.0,0.0,0.0,0.0,0.0,0.0,0.0,0.0,0.0,0.0,0.0,0.0,0.0,0.0,0.0,0.0,0.0,0.0,0.0,0.0,0.0,0.0,0.0,0.0,0.0,0.0,0.0,0.0,0.0,0.0,0.0,0.0,0.0,0.0,0.0,0.0,0.0,0.0,0.0,0.0,0.0,0.0,0.0,0.0,0.0,0.0,0.0,0.0,0.0,0.0,0.0,0.0,0.0,0.0,0.0,0.0,0.0,3.6148,3.6656,3.6956,3.7255,3.7396,3.7396,3.7135,3.6844,3.6515,3.6216,0.0,0.0,0.0,0.0,0.0,0.0,0.0,0.0,0.0,0.0,0.0,0.0,0.0,0.0,0.0,0.0,0.0,0.0,0.0,0.0,0.0,0.0,0.0,0.0,0.0,0.0,0.0,0.0,0.0,0.0,0.0,0.0,0.0,0.0,0.0,0.0,0.0,0.0,0.0,0.0,0.0,0.0,0.0,0.0,0.0,0.0,0.0,0.0,0.0,0.0,0.0,0.0,0.0,0.0,0.0,0.0,0.0,0.0,0.0,0.0,0.0,0.0,0.0,0.0,0.0,0.0,0.0,0.0,0.0,0.0,0.0,0.0,0.0,0.0,0.0,0.0,0.0,0.0,0.0,0.0,0.0,0.0,0.0,0.0,0.0,0.0,0.0,0.0,0.0,0.0,0.0,0.0,0.0,0.0,0.0,0.0,0.0,0.0,0.0,0.0,0.0,0.0,3.7315,3.7875,3.7875,3.8144,3.8323,3.8323,3.8054,3.7665,3.7195,3.6755,0.0,0.0,0.0,0.0,0.0,0.0,0.0,0.0,0.0,0.0,0.0,0.0,0.0,0.0,0.0,0.0,0.0,0.0,0.0,0.0,0.0,0.0,0.0,0.0,0.0,0.0,0.0,0.0,0.0,0.0,0.0,0.0,0.0,0.0,0.0,0.0,0.0,0.0,0.0,0.0,0.0,0.0,0.0,0.0,0.0,0.0,0.0,0.0,0.0,0.0,0.0,0.0,0.0,0.0,0.0,0.0,0.0,0.0,0.0,0.0,0.0,0.0,0.0,0.0,0.0,0.0,0.0,0.0,0.0,0.0,0.0,0.0,0.0,0.0,0.0,0.0,0.0,0.0,0.0,0.0,0.0,0.0,0.0,0.0,0.0,0.0,0.0,0.0,0.0,0.0,0.0,0.0,0.0,0.0,0.0,0.0,0.0,0.0,0.0,0.0,0.0,0.0,3.8123,3.9272,3.9272,4.0376,4.1134,4.1134,3.9978,3.9242,3.9212,3.7494,0.0,0.0,0.0,0.0,0.0,0.0,0.0,0.0,0.0,0.0,0.0,0.0,0.0,0.0,0.0,0.0,0.0,0.0,0.0,0.0,0.0,0.0,0.0,0.0,0.0,0.0,0.0,0.0,0.0,0.0,0.0,0.0,0.0,0.0,0.0,0.0,0.0,0.0,0.0,0.0,0.0,0.0,0.0,0.0,0.0,0.0,0.0,0.0,0.0,0.0,0.0,0.0,0.0,0.0,0.0,0.0,0.0,0.0,0.0,0.0,0.0,0.0,0.0,0.0,0.0,0.0,0.0,0.0,0.0,0.0,0.0,0.0,0.0,0.0,0.0,0.0,0.0,0.0,0.0,0.0,0.0,0.0,0.0,0.0,0.0,0.0,0.0,0.0,0.0,0.0,0.0,0.0,0.0,0.0,0.0,0.0,0.0,0.0,0.0,0.0,0.0,0.0,3.9311,4.0178,0.0,4.1094,4.1403,4.1403,4.0945,4.0277,3.9451,0.0,0.0,0.0,0.0,0.0,0.0,0.0,0.0,0.0,0.0,0.0,0.0,0.0,0.0,0.0,0.0,0.0,0.0,0.0,0.0,0.0,0.0,0.0,0.0,0.0,0.0,0.0,0.0,0.0,0.0,0.0,0.0,0.0,0.0,0.0,0.0,0.0,0.0,0.0,0.0,0.0,0.0,0.0,0.0,0.0,0.0,0.0,0.0,0.0,0.0,0.0,0.0,0.0,0.0,0.0,0.0,0.0,0.0,0.0,0.0,0.0,0.0,0.0,0.0,0.0,0.0,0.0,0.0,0.0,0.0,0.0,0.0,0.0,0.0,0.0,0.0,0.0,0.0,0.0,0.0,0.0,0.0,0.0,0.0,0.0,0.0,0.0,0.0,0.0,0.0,0.0,0.0,0.0,0.0,0.0,0.0,0.0,0.0,0.0,0.0,0.0,0.0,3.9242,4.0528,4.1504,0.0,4.2381,4.2621,4.2621,4.2262,4.1534,4.0427,0.0,0.0,0.0,0.0,0.0,0.0,0.0,0.0,0.0,0.0,0.0,0.0,0.0,0.0,0.0,0.0,0.0,0.0,0.0,0.0,0.0,0.0,0.0,0.0,0.0,0.0,0.0,0.0,0.0,0.0,0.0,0.0,0.0,0.0,0.0,0.0,0.0,0.0,0.0,0.0,0.0,0.0,0.0,0.0,0.0,0.0,0.0,0.0,0.0,0.0,0.0,0.0,0.0,0.0,0.0,0.0,0.0,0.0,0.0,0.0,0.0,0.0,0.0,0.0,0.0,0.0,0.0,0.0,0.0,0.0,0.0,0.0,0.0,0.0,0.0,0.0,0.0,0.0,0.0,0.0,0.0,0.0,0.0,0.0,0.0,0.0,0.0,0.0,0.0,0.0,0.0,0.0,0.0,0.0,0.0,0.0,0.0,0.0,0.0,0.0,0.0,0.0,3.9361,4.1685,4.33,4.3329,4.4516,4.5304,4.5294,4.4067,4.303,0.0,0.0,0.0,0.0,0.0,0.0,0.0,0.0,0.0,0.0,0.0,0.0,0.0,0.0,0.0,0.0,0.0,0.0,0.0,0.0,0.0,0.0,0.0,0.0,0.0,0.0,0.0,0.0,0.0,0.0,0.0,0.0,0.0,0.0,0.0,0.0,0.0,0.0,0.0,0.0,0.0,0.0,0.0,0.0,0.0,0.0,0.0,0.0,0.0,0.0,0.0,0.0,0.0,0.0,0.0,0.0,0.0,0.0,0.0,0.0,0.0,0.0,0.0,0.0,0.0,0.0,0.0,0.0,0.0,0.0,0.0,0.0,0.0,0.0,0.0,0.0,0.0,0.0,0.0,0.0,0.0,0.0,0.0,0.0,0.0,0.0,0.0,0.0,0.0,0.0,0.0,0.0,0.0,0.0,0.0,0.0,0.0,0.0,0.0,0.0,0.0,0.0,0.0,4.1313,4.2591,4.3708,4.4606,4.5065,4.4952,4.4027,4.3592,4.2891,4.1785,0.0,0.0,0.0,0.0,0.0,0.0,0.0,0.0,0.0,0.0,0.0,0.0,0.0,0.0,0.0,0.0,0.0,0.0,0.0,0.0,0.0,0.0,0.0,0.0,0.0,0.0,0.0,0.0,0.0,0.0,0.0,0.0,0.0,0.0,0.0,0.0,0.0,0.0,0.0,0.0,0.0,0.0,0.0,0.0,0.0,0.0,0.0,0.0,0.0,0.0,0.0,0.0,0.0,0.0,0.0,0.0,0.0,0.0,0.0,0.0,0.0,0.0,0.0,0.0,0.0,0.0,0.0,0.0,0.0,0.0,0.0,0.0,0.0,0.0,0.0,0.0,0.0,0.0,0.0,0.0,0.0,0.0,0.0,0.0,0.0,0.0,0.0,0.0,0.0,0.0,0.0,0.0,0.0,0.0,0.0,0.0,0.0,0.0,0.0,0.0,0.0,0.0,4.2561,4.3375,4.4279,4.5551,4.5033,4.4497,4.4214,4.348,4.2579,4.1497,0.0,0.0,0.0,0.0,0.0,0.0,0.0,0.0,0.0,0.0,0.0,0.0,0.0,0.0,0.0,0.0,0.0,0.0,0.0,0.0,0.0,0.0,0.0,0.0,0.0,0.0,0.0,0.0,0.0,0.0,0.0,0.0,0.0,0.0,0.0,0.0,0.0,0.0,0.0,0.0,0.0,0.0,0.0,0.0,0.0,0.0,0.0,0.0,0.0,0.0,0.0,0.0,0.0,0.0,0.0,0.0,0.0,0.0,0.0,0.0,0.0,0.0,0.0,0.0,0.0,0.0,0.0,0.0,0.0,0.0,0.0,0.0,0.0,0.0,0.0,0.0,0.0,0.0,0.0,0.0,0.0,0.0,0.0,0.0,0.0,0.0,0.0,0.0,0.0,0.0,0.0,0.0,0.0,0.0,0.0,0.0,0.0,0.0,0.0,0.0,0.0,0.0,4.323,4.3846,4.4695,4.5922,4.4522,4.3917,4.4967,4.3438,4.2136,4.1471,0.0,0.0,0.0,0.0,0.0,0.0,0.0,0.0,0.0,0.0,0.0,0.0,0.0,0.0,0.0,0.0,0.0,0.0,0.0,0.0,0.0,0.0,0.0,0.0,0.0,0.0,0.0,0.0,0.0,0.0,0.0,0.0,0.0,0.0,0.0,0.0,0.0,0.0,0.0,0.0,0.0,0.0,0.0,0.0,0.0,0.0,0.0,0.0,0.0,0.0,0.0,0.0,0.0,0.0,0.0,0.0,0.0,0.0,0.0,0.0,3.4262,0.0,0.0,0.0,0.0,0.0,0.0,0.0,0.0,0.0,0.0,0.0,0.0,0.0,0.0,0.0,0.0,0.0,0.0,0.0,0.0,0.0,0.0,0.0,0.0,0.0,0.0,0.0,0.0,0.0,0.0,0.0,0.0,0.0,0.0,0.0,0.0,0.0,0.0,0.0,0.0,0.0,4.3287,4.3109,4.3215,4.4003,4.3739,4.3206,4.2459,4.2023,4.1523,4.0815,3.9268,0.0,0.0,0.0,0.0,0.0,0.0,0.0,0.0,0.0,0.0,0.0,0.0,0.0,0.0,0.0,0.0,0.0,0.0,0.0,0.0,0.0,0.0,0.0,0.0,0.0,0.0,0.0,0.0,0.0,0.0,0.0,0.0,0.0,0.0,0.0,0.0,0.0,0.0,0.0,0.0,0.0,0.0,0.0,0.0,0.0,0.0,0.0,0.0,0.0,0.0,0.0,0.0,0.0,0.0,0.0,0.0,0.0,0.0,0.0,0.0,3.5011,0.0,0.0,0.0,0.0,0.0,0.0,0.0,0.0,0.0,0.0,0.0,0.0,0.0,0.0,0.0,0.0,0.0,0.0,0.0,0.0,0.0,0.0,0.0,0.0,0.0,0.0,0.0,0.0,0.0,0.0,0.0,0.0,0.0,0.0,0.0,0.0,0.0,0.0,0.0,0.0,4.4117,4.3191,4.2915,4.4147,4.3173,4.2423,4.2372,4.1813,4.1183,4.0605,3.9449,0.0,0.0,0.0,0.0,0.0,0.0,0.0,0.0,0.0,0.0,0.0,0.0,0.0,0.0,0.0,0.0,0.0,0.0,0.0,0.0,0.0,0.0,0.0,0.0,0.0,0.0,0.0,0.0,0.0,0.0,0.0,0.0,0.0,0.0,0.0,0.0,0.0,0.0,0.0,0.0,0.0,0.0,0.0,0.0,0.0,0.0,0.0,0.0,0.0,0.0,0.0,0.0,0.0,3.8121,3.8395,3.8605,3.9156,3.955,3.9667,3.8332,3.7373,3.6692,0.0,0.0,0.0,0.0,0.0,0.0,0.0,0.0,0.0,0.0,0.0,0.0,0.0,0.0,0.0,0.0,0.0,0.0,0.0,0.0,0.0,0.0,0.0,0.0,0.0,3.7418,3.7071,0.0,0.0,0.0,0.0,0.0,0.0,0.0,0.0,0.0,0.0,0.0,0.0,4.464,4.3392,4.2937,4.4433,4.2799,4.2036,4.3075,4.2135,4.1266,4.0814,4.0275,3.9471,0.0,0.0,0.0,0.0,0.0,0.0,0.0,0.0,0.0,0.0,0.0,0.0,0.0,0.0,0.0,0.0,0.0,0.0,0.0,0.0,0.0,0.0,0.0,0.0,0.0,0.0,0.0,0.0,0.0,0.0,0.0,0.0,2.6824,2.883,0.0,0.0,0.0,0.0,0.0,0.0,0.0,0.0,0.0,0.0,0.0,0.0,0.0,3.6852,3.7734,3.658,3.7025,3.9134,3.8209,3.8355,3.936,3.9452,4.0101,4.1048,3.9796,0.0,3.7543,3.7543,0.0,0.0,0.0,0.0,0.0,0.0,0.0,0.0,0.0,0.0,0.0,0.0,0.0,0.0,0.0,0.0,0.0,0.0,0.0,0.0,0.0,0.0,3.701,3.7215,3.7587,3.7857,0.0,3.8417,3.9086,3.9237,0.0,0.0,0.0,0.0,0.0,0.0,0.0,0.0,4.3359,4.2745,4.2337,4.2564,4.2693,4.2844,4.2999,4.2446,4.2048,4.1998,4.143,4.06,3.9521,3.9358,0.0,0.0,0.0,0.0,0.0,0.0,0.0,0.0,0.0,0.0,0.0,0.0,0.0,0.0,0.0,0.0,0.0,0.0,0.0,0.0,0.0,0.0,0.0,0.0,0.0,0.0,0.0,0.0,0.0,2.7476,2.9009,3.1001,3.124,3.1599,0.0,0.0,0.0,0.0,0.0,0.0,0.0,0.0,0.0,3.7131,3.7223,3.7512,3.8013,3.794,3.845,3.9463,3.932,3.9543,4.0081,4.0454,4.0919,4.1444,4.0852,3.9963,3.8863,3.8759,3.8719,3.8719,0.0,0.0,0.0,0.0,3.8224,3.8032,3.6911,3.6519,0.0,3.6951,0.0,0.0,0.0,0.0,0.0,0.0,0.0,0.0,0.0,0.0,0.0,3.8605,3.9232,3.9847,3.9847,4.0197,4.0444,0.0,4.0661,4.1206,4.1468,0.0,0.0,0.0,0.0,4.2732,4.3992,4.3539,4.3201,4.3528,4.3765,4.389,4.389,4.3689,4.3427,4.3126,4.2559,4.1907,4.113,4.0187,3.9346,0.0,0.0,0.0,0.0,0.0,0.0,0.0,0.0,0.0,0.0,0.0,0.0,0.0,0.0,0.0,0.0,0.0,0.0,0.0,0.0,0.0,0.0,0.0,0.0,0.0,0.0,0.0,0.0,2.9924,3.1068,3.302,3.3267,3.3596,0.0,0.0,0.0,0.0,0.0,0.0,3.8122,3.6651,3.6496,3.8101,3.8054,3.8124,3.8424,3.8891,3.9427,4.0018,4.0066,4.033,4.073,4.1096,4.1506,4.1925,4.1582,4.1154,4.0605,3.9865,3.9572,3.9572,3.9572,3.9762,3.993,3.9189,3.8905,3.875,3.7654,3.7266,3.7356,3.7843,0.0,3.8022,3.8178,0.0,0.0,0.0,0.0,3.8553,3.9863,4.0249,4.0338,4.0338,4.104,4.1729,4.1729,4.1729,4.1559,0.0,4.1318,4.1851,4.2216,0.0,0.0,0.0,0.0,4.3213,4.4834,4.4693,4.4644,4.5167,4.5367,4.5443,4.5443,4.5317,4.5006,4.4468,4.393,4.3341,4.2637,4.1267,4.0489,4.0338,0.0,0.0,0.0,0.0,0.0,0.0,0.0,0.0,0.0,0.0,0.0,0.0,0.0,0.0,0.0,0.0,0.0,0.0,0.0,0.0,0.0,0.0,0.0,0.0,0.0,0.0,0.0,0.0,0.0,3.5122,3.534,0.0,0.0,0.0,0.0,3.6638,3.6138,3.6413,3.7665,3.7633,3.8122,3.9376,3.8971,3.9257,4.0337,3.8841,3.9198,4.1388,3.9774,3.9812,4.1348,4.0798,4.1504,4.3045,4.1846,4.1952,4.2874,4.0684,3.9785,3.9785,3.9785,4.0448,4.1274,4.0156,3.9732,3.9566,3.8378,3.7963,3.7963,3.8001,3.8001,3.8101,3.868,3.9183,0.0,0.0,4.0793,4.1102,4.1193,4.1659,4.2073,4.2073,4.2487,4.29,4.29,4.29,4.2587,0.0,4.175,4.2182,4.2194,0.0,4.3174,4.3688,4.3732,4.4145,4.5324,4.5893,4.6386,4.6923,4.744,4.7716,4.7716,4.7265,4.6763,4.621,4.5673,4.4884,4.3765,4.3151,4.2587,4.2073,4.0927,0.0,0.0,0.0,0.0,0.0,0.0,0.0,0.0,0.0,0.0,0.0,0.0,0.0,0.0,0.0,0.0,0.0,0.0,0.0,0.0,0.0,0.0,0.0,0.0,0.0,0.0,0.0,0.0,3.5069,3.5811,0.0,3.5956,3.6777,3.7347,3.7347,3.7291,3.7902,3.9421,3.8156,3.808,3.9657,3.9156,3.9233,3.9986,3.9741,4.0197,4.1361,4.073,4.0774,4.1333,4.11,4.1355,4.1958,4.1922,4.2155,4.2523,4.2049,4.1423,4.0772,4.0772,4.1004,4.1323,4.0914,4.0772,4.0695,4.0279,4.0123,4.0123,4.0123,4.0123,4.0236,4.0853,4.1168,4.1431,4.197,4.2233,4.2384,4.2384,4.2824,4.3327,4.3664,4.4181,4.4708,4.5045,4.5121,4.4995,4.4604,4.3815,4.3452,4.4195,4.4482,4.4784,4.5321,4.5708,4.607,4.6486,4.6988,4.739,4.7591,4.7792,4.7908,4.7908,4.7716,4.7541,4.734,4.6813,4.6185,4.5432,4.4518,4.379,4.3226,4.2498,4.1744,0.0,0.0,0.0,0.0,0.0,0.0,0.0,0.0,0.0,0.0,0.0,0.0,0.0,0.0,0.0,0.0,0.0,0.0,0.0,0.0,0.0,0.0,0.0,0.0,0.0,3.4429,3.5339,3.5295,3.6316,3.6852,3.6353,3.7375,3.806,3.8071,3.8012,3.8559,3.9896,3.8731,3.8662,3.999,3.9829,3.9873,4.0236,4.0802,4.1254,4.1617,4.1793,4.1955,4.213,4.213,4.2231,4.2431,4.285,4.3014,4.3039,4.3402,4.3098,4.2381,4.2005,4.1868,4.1868,4.1868,4.1868,4.1868,4.1868,4.1868,4.1868,4.1868,4.1868,4.1993,4.2548,4.2864,4.314,4.3693,4.398,4.4105,4.4105,4.4518,4.5006,4.5367,4.5884,4.6451,4.7029,4.7129,4.7205,4.738,4.606,4.5156,4.5924,4.6175,4.6502,4.7054,4.7456,4.7792,4.8153,4.852,4.8821,4.9038,4.9038,4.9038,4.9038,4.9038,4.8962,4.8746,4.8243,4.7691,4.7179,4.606,4.5282,4.493,4.4016,4.3377,4.3014,0.0,0.0,0.0,0.0,0.0,0.0,0.0,0.0,0.0,0.0,0.0,0.0,0.0,0.0,0.0,0.0,0.0,0.0,0.0,0.0,0.0,0.0,0.0,3.2735,3.4072,3.5415,3.6031,3.7082,3.7977,3.8583,3.8747,3.8816,3.8824,3.8373,3.8341,3.8944,3.9459,3.9998,4.0538,4.1051,4.1339,4.1364,4.1945,4.2249,4.2274,4.2788,4.3327,4.384,4.384,4.4166,4.464,4.4665,4.4679,4.4665,4.4704,4.469,4.4604,4.3478,4.3065,4.3065,4.3065,4.3051,4.3076,4.3115,4.3115,4.3115,4.3115,4.3115,4.3201,4.374,4.4278,4.4805,4.5412,4.5949,4.6361,4.6361,4.6788,4.7174,4.7199,4.7616,4.8134,4.8752,4.8868,4.9028,4.954,4.8344,4.7224,4.7224,4.7641,4.8184,4.8793,4.8868,0.0,5.0277,5.0427,5.0653,5.1239,5.1289,5.1289,5.1289,5.1289,5.1063,5.0452,4.9941,4.9405,4.8868,4.7792,4.7199,4.7149,4.5543,4.469,4.4679,0.0,0.0,0.0,0.0,0.0,0.0,0.0,0.0,0.0,0.0,0.0,0.0,0.0,0.0,0.0,0.0,0.0,0.0,0.0,0.0,0.0,3.4149,3.4423,3.4397,3.5907,3.6766,3.6178,3.7511,3.825,3.7673,3.8383,3.9028,3.9423,3.9676,4.0048,4.06,4.0775,4.114,4.1708,4.1884,4.2322,4.3112,4.3288,4.3553,4.394,4.4077,4.4468,4.502,4.502,4.5321,4.5859,4.6245,4.6421,4.6446,4.6838,4.6988,4.6788,4.4905,4.4152,4.4152,4.4152,4.4443,4.4859,4.5246,4.5397,4.5397,4.5397,4.5397,4.5482,4.6035,4.6296,4.6522,4.7064,4.7657,4.8099,4.8099,4.851,4.8997,4.9398,4.9599,4.9891,5.0485,5.0611,5.0661,5.0812,5.0444,5.0017,4.9574,4.9624,4.9916,5.051,5.0611,0.0,5.0996,5.1046,5.1113,5.1289,5.1289,5.1289,5.1289,5.1289,5.1239,5.1046,5.0912,5.0586,4.9992,4.9649,4.9122,4.835,4.7456,4.6813,0.0,0.0,0.0,0.0,0.0,0.0,0.0,0.0,0.0,0.0,0.0,0.0,0.0,0.0,0.0,0.0,0.0,0.0,0.0,0.0,0.0,0.0,3.4817,3.5172,3.5868,3.6662,3.701,3.6596,3.7912,3.8698,3.829,3.9057,3.9798,4.0337,4.065,4.1076,4.1656,4.1893,4.2283,4.2864,4.309,4.3489,4.4127,4.4604,4.5006,4.5332,4.5784,4.616,4.6517,4.6517,4.6677,0.0,4.7315,4.744,4.7465,4.7767,4.7908,0.0,0.0,0.0,0.0,0.0,4.6185,4.6552,4.6878,4.6963,4.7014,4.7255,4.7346,4.7456,4.7967,4.8303,4.8554,4.8871,4.9364,4.9832,4.9832,5.0083,5.0393,5.0695,5.077,5.0921,5.1515,5.1641,5.1699,5.1925,5.1975,0.0,5.1507,5.1055,5.0971,5.1548,5.1641,5.1716,5.195,5.1975,5.1975,5.1975,5.1975,5.1975,5.1975,5.1975,0.0,0.0,0.0,5.1373,5.0795,5.077,0.0,0.0,0.0,0.0,0.0,0.0,0.0,0.0,4.4367,4.3865,0.0,0.0,0.0,0.0,0.0,0.0,0.0,0.0,0.0,0.0,0.0,0.0,0.0,0.0,0.0,0.0,3.5888,3.6083,3.7223,3.7034,3.6946,3.7436,3.8441,3.9283,3.9823,4.0312,4.0826,4.1453,4.1503,4.1768,4.245,0.0,0.0,0.0,0.0,4.4855,4.4966,4.5984,4.6461,4.6486,4.7456,4.7933,4.8008,4.8008,4.8083,4.8168,4.8168,4.8234,4.8284,4.8284,4.8284,4.8243,4.8083,4.8008,4.8033,4.8134,4.8168,4.8193,4.8259,0.0,0.0,4.8919,4.9095,4.9154,4.9656,5.0117,5.0503,5.0503,5.0921,5.1389,5.1389,5.144,5.149,5.149,5.149,5.1599,5.2101,5.2201,5.2335,5.2812,5.2895,5.2895,5.2895,5.2126,5.1624,5.2126,5.2201,5.236,5.2837,5.2895,5.2895,5.2895,0.0,0.0,5.2895,5.2895,5.2895,5.2895,5.246,5.1975,5.1515,5.149,5.1465,5.1389,5.0854,5.0553,5.0503,5.0017,4.9791,4.9741,4.7657,4.6662,0.0,0.0,0.0,0.0,0.0,0.0,0.0,0.0,0.0,0.0,0.0,0.0,0.0,0.0,0.0,3.6144,3.665,3.7274,3.8416,3.8856,3.9107,3.9208,3.9798,4.0412,4.0951,4.1088,4.1578,4.2585,4.2674,4.3087,4.4077,4.4227,4.4754,4.5784,4.5909,4.6386,4.7239,4.7481,4.7606,4.7591,0.0,0.0,4.8626,4.8626,4.9088,4.9925,4.9925,5.0193,5.0636,5.0636,5.0636,5.051,4.9154,4.8626,4.8727,4.9615,4.9925,4.9975,5.0469,5.0636,5.0661,5.0787,5.0812,5.0837,5.0937,5.1038,0.0,5.1138,5.1523,5.195,5.195,5.2277,5.2586,5.2586,5.2586,5.2611,5.2737,5.2762,5.2787,5.2887,5.2895,5.2895,5.2895,5.2737,5.2636,5.2737,5.2762,5.2787,5.2887,5.2895,5.2895,5.2895,5.2895,5.2895,5.2895,5.2895,5.2895,5.2895,5.2795,5.2711,5.2586,5.2586,5.2385,5.195,5.1825,5.1574,5.1138,5.1013,5.0962,5.0937,4.959,4.8962,0.0,0.0,0.0,0.0,0.0,0.0,0.0,0.0,0.0,0.0,0.0,3.4478,3.5407,0.0,3.6307,3.7474,3.7876,3.8441,3.9559,3.9923,4.0099,4.0099,4.0575,4.1227,4.2069,4.2144,4.261,4.3714,4.379,4.4278,4.5382,4.5457,4.5959,4.7079,4.7089,4.7365,4.7892,4.8184,4.835,4.8375,4.8887,4.9314,4.9615,4.9907,5.0334,5.0845,5.0845,5.1021,5.1289,5.1289,5.1289,5.1239,5.0661,5.0284,5.0125,5.0645,5.0845,5.0896,5.1188,5.1289,5.1339,5.1599,5.1699,5.1749,5.2026,5.2101,5.2101,5.2101,5.2285,5.2511,5.2511,5.2711,5.2895,5.2895,5.2895,5.2895,5.2895,5.3113,5.3289,5.3289,5.3557,5.3758,5.3758,5.3758,5.3557,5.2988,5.2895,5.3013,5.3264,5.3289,5.3432,5.3708,5.3758,5.3758,5.3758,5.3758,5.3758,5.3758,5.3758,5.3758,5.3758,5.3758,5.3607,5.3374,5.3348,5.3223,5.2964,5.2964,5.2964,5.2922,5.2386,5.1515,0.0,0.0,0.0,0.0,0.0,0.0,0.0,3.533,3.5425,3.5879,3.5472,3.5603,3.7508,3.767,3.7864,3.8894,3.9145,3.9559,4.0512,4.0839,4.1003,4.1003,4.1366,4.2069,4.3201,4.3302,4.3765,4.4855,4.4916,4.5432,4.6537,4.6612,4.7064,4.8033,4.8083,4.8184,4.8369,4.8878,4.9154,4.9296,5.0167,5.0553,5.0578,5.1088,5.1364,5.1465,5.1565,5.1599,5.1599,5.1599,5.1599,5.1649,5.2101,5.2,5.1599,5.1599,5.1599,5.1599,5.1599,5.1599,5.1674,5.2109,5.2277,5.2335,5.2787,5.2895,5.2895,5.2895,5.2895,5.2895,5.2895,5.2988,5.3063,5.3063,5.3138,5.3239,5.3239,5.3582,5.3858,5.3858,5.4253,5.4597,5.4597,5.4597,5.4278,5.3381,5.3239,5.3406,5.3808,5.3858,5.4077,5.4547,5.4597,5.4597,5.4597,5.4597,5.4597,5.4597,5.4597,5.4597,5.4597,5.4597,5.4597,5.4597,5.4597,5.4597,5.4597,5.4597,5.4597,5.4597,5.4597,5.3642,3.4843,3.4405,3.4094,3.4298,3.4684,3.4695,0.0,3.4386,3.5344,3.5536,3.5904,3.6428,3.7165,3.8075,3.8919,3.9509,4.0023,4.0538,4.1127,4.2082,4.2724,4.2724,4.2774,4.3237,4.4328,4.4428,4.488,4.6035,4.611,4.6587,4.7666,4.7716,4.8033,4.8693,4.8718,4.9154,5.0101,5.0176,5.0494,5.1013,5.1138,5.1214,5.1214,5.1264,5.1565,5.2051,5.2511,5.2737,5.2737,5.2737,5.2737,5.2737,5.2787,5.2787,5.2737,5.2737,5.2737,5.2737,5.2737,5.2737,5.2737,5.2787,5.2795,5.2837,5.287,5.2895,5.2895,5.2895,5.2895,5.2895,5.2895,5.3264,5.3607,5.3607,5.4027,5.4403,5.4403,5.4471,5.4496,5.4496,5.4547,5.4597,5.4597,5.4597,5.4572,5.4446,5.4403,5.4446,5.4496,5.4496,5.4522,5.4597,5.4597,5.4597,5.4597,5.4597,5.4597,5.4597,5.4597,5.4597,5.4597,5.4597,5.4597,5.4597,5.4597,5.4597,5.4597,5.4597,5.4597,5.4597,5.4597,5.4471,3.3872,3.4529,3.5262,3.4721,3.4969,3.5358,3.5425,3.6184,3.6802,3.6545,3.7223,3.7914,3.814,3.9082,3.9898,4.0136,4.0613,4.1277,4.2144,4.2699,4.3366,4.4331,4.4733,4.497,4.5121,4.5422,4.5934,4.6712,4.7064,4.7581,4.8375,4.8426,4.8677,4.9254,4.9565,4.9941,5.0402,5.0745,5.1063,5.1289,5.1615,5.1749,5.1774,5.2101,5.236,5.2586,5.2795,5.2895,5.2895,5.2895,5.2895,5.2895,5.2895,5.2895,5.2895,5.2895,5.2895,5.2895,5.2895,5.2895,5.2895,5.2895,5.2895,5.2895,5.2895,5.3113,5.3381,5.3381,5.3607,5.3884,5.3884,5.4052,5.4228,5.4228,5.4421,5.4597,5.4597,5.4848,5.5056,5.5056,5.5333,5.5516,5.5516,5.5516,5.5516,5.5516,5.5006,5.4723,5.5031,5.5056,5.5182,5.5509,5.5516,5.5516,5.5516,5.5516,5.5516,5.5516,5.5516,5.5516,5.5516,5.5516,5.5666,5.5993,5.6018,5.6168,5.6513,5.6513,5.6513,5.6513,5.6513,5.6513,3.4059,3.4841,3.5717,3.5441,3.557,3.6003,3.692,3.7572,3.7934,3.7695,3.8316,3.8994,3.9296,3.9973,4.0613,4.0927,4.1416,4.2119,4.3076,4.3478,4.4181,4.5562,4.6185,4.6411,4.619,4.6527,4.6963,4.7516,4.7933,4.8385,4.8978,4.9154,4.943,4.9816,5.0368,5.072,5.0854,5.1297,5.1574,5.1749,5.2151,5.231,5.2335,5.2737,5.2895,5.2895,5.2895,5.2895,5.2895,5.2895,5.2895,5.2895,5.2895,5.2895,5.2895,5.2895,5.2895,5.2895,5.2895,5.2895,5.292,5.3063,5.3113,5.3163,5.3314,5.3632,5.3934,5.3934,5.4253,5.4597,5.4597,5.4723,5.4805,5.4805,5.4931,5.5031,5.5031,5.5358,5.5616,5.5616,5.605,5.6426,5.6426,5.6552,5.6671,5.6671,5.6011,5.5584,5.5817,5.5993,5.6244,5.6646,5.6671,5.6671,5.6671,5.6671,5.6671,5.6671,5.6671,5.6671,5.6671,5.6671,5.6853,5.7255,5.7255,5.7455,5.7901,5.7901,5.7901,5.7901,5.7901,5.7901,3.6497,3.5784,3.5114,3.6653,3.6699,3.6505,3.7071,3.7624,3.8152,3.873,3.8881,3.922,4.0261,4.0487,4.0852,4.1973,4.2587,4.3126,4.3689,4.4733,4.5638,4.621,4.6763,4.7274,4.7767,4.7842,4.8109,4.8718,4.8768,4.9003,4.9556,5.0051,5.0352,5.0377,5.0946,5.1515,5.2051,5.2076,5.2335,5.2845,5.2887,5.2887,5.2887,5.2895,5.2895,5.2895,5.2895,5.2895,5.2895,5.2895,5.2895,5.2895,5.2895,5.2895,5.2895,5.2895,5.2895,5.2895,5.2895,5.2895,5.2988,5.3507,5.3683,5.3783,5.4353,5.4572,5.4572,5.4572,5.4597,5.4597,5.4597,5.4999,5.5383,5.5383,5.5767,5.615,5.615,5.615,5.6194,5.6194,5.6602,5.6985,5.6985,5.7455,5.7851,5.7851,5.7826,5.76,5.701,5.7455,5.7826,5.7851,5.7851,5.7851,5.7851,5.7851,5.7851,5.7851,5.7851,5.7851,5.7851,5.7851,5.7851,5.7876,5.7876,5.7876,5.7901,5.7901,5.7901,5.7901,5.7901,5.7901,3.6567,3.7007,3.7442,3.7217,3.7324,3.7613,3.819,3.8467,3.8768,3.9308,3.9697,4.0074,4.0437,4.1117,4.1758,4.2149,4.2964,4.3714,4.4252,4.4995,4.5824,4.6722,4.7299,4.7857,4.8451,4.8501,4.8576,4.8793,4.9129,4.9565,5.0101,5.0302,5.0578,5.0971,5.1523,5.1925,5.2101,5.246,5.2737,5.2895,5.2895,5.2895,5.2895,5.2895,5.2895,5.2895,5.2895,5.2895,5.2895,5.2895,5.2895,5.2937,5.3289,5.3414,5.3482,5.3884,5.4027,5.3976,5.3582,5.3683,5.4052,5.4228,5.4303,5.4328,5.4547,5.4848,5.5132,5.5132,5.5383,5.5666,5.5666,5.5792,5.5942,5.5942,5.6351,5.6728,5.6728,5.7054,5.7323,5.7323,5.7455,5.76,5.76,5.7775,5.7901,5.7901,5.7901,5.7826,5.7606,5.7775,5.7901,5.7901,5.7901,5.7901,5.7901,5.7901,5.7901,5.7901,5.7901,5.7901,5.7901,5.7901,5.8077,5.8409,5.8434,5.8604,5.8956,5.8956,5.9156,5.9489,5.9489,5.9709,3.6782,3.7608,3.8451,3.7934,3.8077,3.8479,3.9032,3.9195,3.9283,3.9635,4.0124,4.0563,4.075,4.1569,4.2324,4.2713,4.3514,4.4278,4.483,4.5598,4.6401,4.729,4.7867,4.8451,4.9028,4.9254,4.938,4.938,4.969,5.0142,5.0695,5.0904,5.1197,5.1565,5.2126,5.2385,5.2385,5.2737,5.2895,5.2895,5.2895,5.2895,5.2895,5.2895,5.2895,5.2895,5.2895,5.2895,5.2895,5.3113,5.3188,5.3239,5.3808,5.4027,5.4077,5.4471,5.4723,5.4805,5.4228,5.4278,5.4622,5.4805,5.4898,5.4906,5.5107,5.539,5.5691,5.5691,5.6068,5.6502,5.6502,5.6652,5.6821,5.6821,5.7054,5.733,5.733,5.7631,5.7901,5.7901,5.8052,5.8202,5.8202,5.8353,5.8478,5.8478,5.8478,5.8403,5.8227,5.8353,5.8478,5.8478,5.8478,5.8478,5.8478,5.8478,5.8478,5.8478,5.8478,5.8478,5.8478,5.8654,5.8911,5.9263,5.9463,5.9759,6.0105,6.0105,6.0286,6.0638,6.0638,6.0839,3.7299,3.7675,3.8191,3.8793,3.8944,3.907,3.9584,3.9697,3.9697,3.9697,4.0149,4.07,4.1227,4.182,4.2587,4.3639,4.4252,4.4805,4.5437,4.6411,4.7299,4.7842,4.8426,4.9003,4.9556,5.0092,5.0402,5.0452,5.0452,5.072,5.1314,5.1825,5.2109,5.2151,5.2636,5.2895,5.2895,5.2895,5.2895,5.2895,5.2895,5.2895,5.2895,5.2895,5.2895,5.2895,5.2937,5.2945,5.2988,5.3532,5.3758,5.3808,5.4403,5.4647,5.4647,5.4672,5.5006,5.5383,5.4873,5.4672,5.4773,5.5282,5.5458,5.5541,5.6093,5.6226,5.6251,5.6294,5.6652,5.7035,5.7035,5.7455,5.7901,5.7901,5.7926,5.7951,5.7951,5.7951,5.7976,5.7976,5.8384,5.8736,5.8736,5.9156,5.9508,5.9533,5.9533,5.9357,5.8811,5.9207,5.9483,5.9483,5.9508,5.9533,5.9533,5.9558,5.9583,5.9583,5.9583,5.9583,5.9583,6.0085,6.0342,6.0342,6.0914,6.121,6.121,6.121,6.121,6.1235,6.1235,6.126,3.873,3.8881,3.8806,3.9358,3.9509,3.9534,3.9685,3.9697,3.9697,3.9697,4.0437,4.1138,4.1264,4.2133,4.3014,4.3689,4.4252,4.4805,4.5437,4.6411,4.7299,4.7842,4.8426,4.9003,4.9556,5.0092,5.0578,5.1038,5.1071,5.1297,5.1875,5.2026,5.2285,5.2686,5.2837,5.2895,5.2895,5.2895,5.2895,5.2895,5.2895,5.2895,5.2895,5.2895,5.2895,5.292,5.3314,5.3507,5.3557,5.4127,5.4353,5.4446,5.4981,5.5207,5.5257,5.5641,5.5892,5.5993,5.5842,5.5792,5.5817,5.5968,5.6018,5.6118,5.6627,5.6784,5.6903,5.7349,5.7575,5.7656,5.7656,5.7775,5.7901,5.7901,5.8202,5.8485,5.8485,5.8805,5.9081,5.9081,5.9207,5.9307,5.9307,5.9408,5.9633,6.006,6.0091,5.989,5.9357,5.9408,5.9483,5.9483,5.9859,6.0091,6.0091,6.0512,6.0783,6.0783,6.0783,6.0783,6.0783,6.0909,6.0964,6.0964,6.1135,6.121,6.121,6.121,6.1411,6.1793,6.1793,6.2019,3.9007,3.9283,3.9308,3.9622,3.9697,3.9697,3.9697,3.9697,3.9697,3.9697,4.0362,4.1026,4.1264,4.2032,4.2989,4.3991,4.4403,4.4905,4.5723,4.6763,4.7566,4.7867,4.8652,4.9355,4.9891,5.0469,5.1021,5.1599,5.1649,5.1875,5.241,5.246,5.2586,5.2895,5.2895,5.2895,5.2895,5.2895,5.2895,5.2895,5.2895,5.2895,5.2895,5.3138,5.3239,5.3289,0.0,5.4102,5.4152,5.4705,5.4956,5.5006,5.5541,5.5742,5.5792,5.6093,5.6351,5.6552,5.6552,5.6728,5.6903,5.6627,5.6552,5.6652,5.723,5.7405,5.7455,5.7801,5.8077,5.8234,5.8234,5.8428,5.8604,5.8604,5.883,5.9056,5.9056,5.9282,5.9558,5.9809,5.9859,5.9935,6.0186,6.0256,6.0337,6.0638,6.0688,6.0588,6.0286,6.0256,6.0256,6.0256,6.0512,6.0688,6.0688,6.1009,6.121,6.121,6.121,6.121,6.121,6.1436,6.1542,6.1542,6.1793,6.1893,6.1893,6.1893,6.2069,6.235,6.235,6.2501,3.8806,3.9333,3.9697,3.9697,3.9697,3.9697,3.9697,3.9697,3.9697,3.9697,4.0124,4.0625,4.1127,4.1744,4.2688,4.4152,4.4503,4.4966,4.6035,4.7179,4.7908,4.7908,4.8912,4.9816,5.0352,5.0946,5.1515,5.2076,5.2176,5.241,5.2887,5.2895,5.2895,5.2895,5.2895,5.2895,5.2895,5.2895,5.2895,5.2895,5.2895,5.2937,5.302,5.3507,5.3733,5.3858,5.4454,0.0,5.4748,5.5282,5.5509,5.5541,5.6018,5.6226,5.6301,5.6301,5.6652,5.7111,5.7111,5.7455,5.7801,5.7305,5.7111,5.723,5.7826,5.8001,5.8027,5.8102,5.8453,5.8811,5.8811,5.9156,5.9483,5.9483,5.9483,5.9508,5.9583,5.9659,5.9859,6.0317,6.0417,6.0588,6.111,6.121,6.1235,6.1311,6.1311,6.1336,6.1411,6.1285,6.121,6.121,6.126,6.1311,6.1311,6.1386,6.1391,6.1391,6.1391,6.1391,6.1391,6.1868,6.2119,6.2119,6.2551,6.2802,6.2802,6.2802,6.2802,6.2802,6.2802,6.2802,3.9283,3.9635,3.9697,3.9697,3.9697,3.9697,3.9697,3.9697,3.9697,3.9697,4.0124,4.0538,4.0625,4.1493,4.245,4.3151,4.4027,4.483,4.5522,4.6954,4.7908,4.7908,4.8912,4.9816,5.0352,5.0946,5.1515,5.2076,5.2511,5.2795,5.2912,5.2895,5.2895,5.2895,5.2895,5.2895,5.2895,5.2895,5.2895,5.2895,5.2895,5.3138,5.354,5.3658,5.3976,5.4471,5.5031,0.0,5.5308,5.5842,5.605,5.6068,5.615,5.6477,5.686,5.686,5.723,5.775,5.775,5.7801,5.7876,5.7775,5.775,5.7851,5.8384,5.856,5.8635,5.9106,5.9282,5.9357,5.9357,5.9433,5.9483,5.9483,5.9483,5.9608,6.0066,6.0537,6.0934,6.1034,6.104,6.1085,6.1185,6.121,6.1361,6.1793,6.1868,6.2019,6.2476,6.1743,6.121,6.121,6.1592,6.1868,6.1868,6.227,6.2526,6.2526,6.2526,6.2526,6.2526,6.2601,6.2676,6.2676,6.2752,6.2802,6.2802,6.2802,6.2802,6.2802,6.2802,6.2802,3.9396,3.9697,3.9697,3.9697,3.9697,3.9697,3.9697,3.9697,3.9697,3.9697,3.9898,4.0161,4.0462,4.1165,4.2021,4.285,4.3915,4.4805,4.5437,4.6878,4.7908,4.7908,4.9163,5.0243,5.082,5.1373,5.195,5.2485,5.2744,5.2895,5.2895,5.2895,5.2895,5.2895,5.2895,5.2895,5.2895,5.2895,5.3038,5.3314,5.3314,5.3607,5.4177,5.4479,5.4737,5.5056,5.5566,0.0,5.5842,5.6075,5.62,5.6244,5.6502,5.6759,5.7035,5.7355,5.7832,5.8328,5.8322,5.8504,5.873,5.873,5.8554,5.8428,5.8936,5.9131,5.9182,5.9433,5.9483,5.9483,5.9483,5.9483,5.9558,5.9859,6.0161,6.0457,6.0713,6.1009,6.1285,6.1542,6.1617,6.1692,6.1994,6.2044,6.2119,6.2375,6.2425,6.2501,6.2777,6.235,6.2044,6.2044,6.225,6.2425,6.2425,6.2651,6.2802,6.2802,6.2802,6.2802,6.2802,6.2802,6.2802,6.2802,6.2802,6.2802,6.2802,6.2802,6.2802,6.2802,6.2802,6.2802,3.9258,3.9609,3.9697,3.9697,3.9697,3.9697,3.9697,3.9697,3.9697,3.9697,3.9697,3.9823,4.0236,4.0775,4.1453,4.2459,4.3625,4.4629,4.5221,4.6803,4.7908,4.7908,4.9373,5.0645,5.1239,5.1774,5.231,5.2845,5.2895,5.2895,5.2895,5.2895,5.2895,5.2895,5.2895,5.2895,5.2895,5.2995,5.3289,5.3708,5.3833,5.4202,5.4798,5.5207,5.544,5.5591,5.6018,0.0,0.0,5.6326,5.6376,5.6426,5.6979,5.7261,5.7412,5.7901,5.8409,5.8861,5.8874,5.9151,5.9483,5.9483,5.9207,5.8936,5.9382,5.9483,5.9483,5.9483,5.9583,5.9659,5.9659,5.9759,5.996,6.0392,6.0939,6.1386,6.1386,6.1441,6.1667,6.2094,6.2169,6.23,6.2727,6.2802,6.2802,6.2802,6.2802,6.2802,6.2802,6.2802,6.2802,6.2802,6.2802,6.2802,6.2802,6.2802,6.2802,6.2802,6.2802,6.2802,6.2802,6.2802,6.2802,6.2802,6.2802,6.2802,6.2802,6.2802,6.2802,6.2802,6.2802,6.2802,3.8793,3.9333,3.9697,3.9697,3.9697,3.9697,3.9697,3.9697,3.9697,3.9697,3.9697,3.9735,3.9747,4.0211,4.0775,4.1364,4.2822,4.4052,4.4604,4.6537,4.7908,4.7908,4.9373,5.0645,5.1239,5.1774,5.231,5.2845,5.2895,5.2895,5.2895,5.2895,5.2895,5.2895,5.2895,5.2895,5.2895,5.3364,5.3658,5.3708,5.4253,5.4805,5.5333,5.5383,5.5666,5.6143,5.6194,0.0,0.0,5.6728,5.6935,5.7004,5.7581,5.8108,5.856,5.861,5.8981,5.9433,5.9433,5.9458,5.9483,5.9483,5.9458,5.9433,5.9483,5.9483,5.9483,5.9483,5.9859,6.0217,6.0217,6.0638,6.1059,6.111,6.1517,6.1943,6.1943,6.23,6.2676,6.2727,6.2727,6.2752,6.2802,6.2802,6.2802,6.2802,6.2802,6.2802,6.2802,6.2802,6.2802,6.2802,6.2802,6.2802,6.2802,6.2802,6.2802,6.2802,6.2802,6.2802,6.2802,6.2802,6.2802,6.2802,6.2802,6.2802,6.2802,6.2802,6.2802,6.2802,6.2802,6.2802,3.8743,3.9283,3.9697,3.9697,3.9697,3.9697,3.9697,3.9697,3.9697,3.9697,3.9697,3.9697,3.9697,4.0149,4.0688,4.1214,4.2721,4.3991,4.4514,4.6512,4.7908,4.7908,4.969,5.1038,5.1264,5.2076,5.2661,5.287,5.2895,5.2895,5.2895,5.2895,5.2895,5.2895,5.2895,5.3063,5.3364,5.3607,5.4034,5.4712,5.4956,5.5358,5.5892,5.5892,5.6018,5.62,5.62,0.0,0.0,5.691,5.7211,5.7581,5.8158,5.851,5.8736,5.9062,5.9307,5.9483,5.9483,5.9483,5.9483,5.9483,5.9483,5.9483,5.9483,5.9734,5.9985,5.9985,6.0387,6.0839,6.0839,6.1266,6.1667,6.1667,6.2094,6.2476,6.2476,6.2651,6.2802,6.2802,6.2802,6.2802,6.2802,6.2802,6.2802,6.2802,6.2802,6.2802,6.2802,6.2802,6.2802,6.2802,6.2802,6.2802,6.2802,6.2802,6.2802,6.2802,6.2802,6.2802,6.2802,6.2802,6.2802,6.2802,6.2802,6.2802,6.2802,6.2802,6.2802,6.2802,6.2802,6.2802,3.8693,3.917,3.9509,3.966,3.9697,3.9697,3.9697,3.9697,3.9697,3.9697,3.9697,3.9697,3.9697,4.0023,4.0487,4.1188,4.2571,4.3865,4.4729,4.6612,4.8033,4.836,5.0134,5.1364,5.1515,5.236,5.2895,5.2895,5.2895,5.2895,5.2895,5.2895,5.2895,5.2895,5.3063,5.3314,5.3708,5.4034,5.4612,5.5408,5.5541,5.5842,5.62,5.62,5.62,5.62,5.6376,0.0,0.0,5.7361,5.7757,5.8202,5.873,5.8936,5.8987,5.9357,5.9483,5.9483,5.9483,5.9483,5.9533,5.9684,5.9734,5.9759,5.9935,6.0136,6.0342,6.0537,6.0989,6.1466,6.1617,6.1943,6.2225,6.2225,6.2526,6.2802,6.2802,6.2802,6.2802,6.2802,6.2802,6.2802,6.2802,6.2802,6.2802,6.2802,6.2802,6.2802,6.2802,6.2802,6.2802,6.2802,6.2802,6.2802,6.2802,6.2802,6.2802,6.2802,6.2802,6.2802,6.2802,6.2802,6.2802,6.2802,6.2802,6.2802,6.2802,6.2802,6.2802,6.2802,6.2802,6.2902,3.8592,3.8894,3.9044,3.9559,3.9697,3.9697,3.9697,3.9697,3.9697,3.9697,3.9697,3.9697,3.9697,3.9697,4.0074,4.1127,4.2258,4.3578,4.5261,4.6878,4.8335,4.9439,5.0611,5.1515,5.2051,5.2586,5.2895,5.2895,5.2895,5.2895,5.2895,5.2895,5.2895,5.2895,5.3414,5.3683,5.3708,5.4813,5.5408,5.5408,5.5942,5.6175,5.62,5.62,5.62,5.6226,0.0,0.0,0.0,5.8234,5.8685,5.8736,5.9282,5.9483,5.9483,5.9483,5.9483,5.9483,5.9483,5.9483,5.9583,6.0116,6.0292,6.0392,6.0989,6.0763,6.0417,6.1034,6.1567,6.2119,6.2651,6.2802,6.2802,6.2802,6.2802,6.2802,6.2802,6.2802,6.2802,6.2802,6.2802,6.2802,6.2802,6.2802,6.2802,6.2802,6.2802,6.2802,6.2802,6.2802,6.2802,6.2802,6.2802,6.2802,6.2802,6.2802,6.2802,6.2802,6.2802,6.2802,6.2802,6.2802,6.2802,6.2802,6.2802,6.2802,6.2802,6.2802,6.2802,6.2802,6.2802,6.3128,3.8102,3.8592,3.9019,3.9559,3.9434,3.9233,3.9635,3.9409,3.9258,3.9622,3.9697,3.9697,3.9697,3.9697,4.0049,4.1127,4.2258,4.3592,4.5261,4.6878,4.8184,4.8953,5.0385,5.1649,5.2561,5.2795,5.2895,5.2895,5.2895,5.2895,5.2895,5.2895,5.2895,5.2895,5.3414,5.3884,5.4303,5.5031,5.5566,5.5968,5.61,5.62,5.62,5.62,5.6401,0.0,0.0,0.0,0.0,5.856,5.8911,5.9257,5.9433,5.9483,5.9483,5.9483,5.9483,5.9483,5.9483,5.9734,6.0066,6.0242,6.0588,6.1014,6.1567,6.1617,6.1572,6.2124,6.2425,6.2576,6.2752,6.2802,6.2802,6.2802,6.2802,6.2802,6.2802,6.2802,6.2802,6.2802,6.2802,6.2802,6.2802,6.2802,6.2802,6.2802,6.2802,6.2802,6.2802,6.2802,6.2802,6.2802,6.2802,6.2802,6.2802,6.2802,6.2802,6.2802,6.2802,6.2802,6.2802,6.2802,6.2802,6.2802,6.2802,6.2802,6.2802,6.2802,6.3003,6.3425,6.3776,6.4073,3.7726,3.8266,3.8693,3.9258,3.9283,3.9283,3.9635,3.9434,3.9283,3.9635,3.9697,3.9697,3.9697,3.9873,4.0287,4.1177,4.2434,4.3879,4.5587,4.7004,4.836,4.9597,5.1013,5.2176,5.2837,5.2895,5.2895,5.2895,5.2895,5.2895,5.2895,5.3088,5.3213,5.3213,5.3758,5.4328,5.4898,5.5433,5.5867,5.62,5.62,5.62,5.62,5.62,5.6502,0.0,0.0,0.0,0.0,5.8911,5.9207,5.9483,5.9483,5.9483,5.9483,5.9483,5.9483,5.9533,5.9734,6.0016,6.0367,6.0794,6.1341,6.1868,6.2199,6.23,6.2375,6.2701,6.2802,6.2802,6.2802,6.2802,6.2802,6.2802,6.2802,6.2802,6.2802,6.2802,6.2802,6.2802,6.2802,6.2802,6.2802,6.2802,6.2802,6.2802,6.2802,6.2802,6.2802,6.2802,6.2802,6.2802,6.2802,6.2802,6.2802,6.2802,6.2802,6.2802,6.2802,6.2802,6.2802,6.2802,6.2802,6.2802,6.2802,6.2902,6.3128,6.3329,6.3626,6.4023,6.4551,6.4802,0.0,3.7877,3.809,3.8743,3.9233,3.9609,3.9672,3.9685,0.0,3.9697,3.9697,3.9697,3.9697,4.0149,4.0688,4.1277,4.2746,4.4392,4.611,4.734,4.8887,5.1038,5.2209,5.2845,5.2895,5.2895,5.2895,5.2895,5.2895,5.2895,5.2895,5.3389,5.3708,5.3758,5.4328,5.4898,5.5408,5.5942,5.62,5.62,5.62,5.62,5.62,5.6226,5.6552,0.0,0.0,0.0,0.0,5.9307,5.9483,5.9483,5.9483,5.9483,5.9483,5.9483,5.9508,5.9633,6.0116,6.0342,6.0593,6.1718,6.2375,6.2802,6.2802,6.2802,6.2802,6.2802,6.2802,6.2802,6.2802,6.2802,6.2802,6.2802,6.2802,6.2802,6.2802,6.2802,6.2802,6.2802,6.2802,6.2802,6.2802,6.2802,6.2802,6.2802,6.2802,6.2802,6.2802,6.2802,6.2802,6.2802,6.2802,6.2802,6.2802,6.2802,6.2802,6.2802,6.2802,6.2802,6.2802,6.2802,6.2827,6.2877,6.2902,6.3178,6.3751,6.43,6.4572,6.4551,6.5103,6.538,3.5871,0.0,3.7625,3.8642,3.8655,3.8642,0.0,3.9383,3.9183,3.9609,3.9697,3.9697,3.9697,4.0149,4.0827,4.1833,4.3,4.4543,4.6622,4.8595,5.0176,5.1188,5.1875,5.246,5.2845,5.2895,5.2895,5.2895,5.2895,5.2895,5.2895,5.3389,5.3909,5.4353,5.4931,5.5282,5.5408,5.5942,5.62,5.62,5.62,5.62,5.62,5.6627,5.7129,0.0,0.0,0.0,5.9332,5.9433,5.9483,5.9483,5.9483,5.9483,5.9483,5.9483,5.9759,6.0116,6.0267,6.0869,6.1697,6.24,6.2701,6.2802,6.2802,6.2802,6.2802,6.2802,6.2802,6.2802,6.2802,6.2802,6.2802,6.2802,6.2802,6.2802,6.2802,6.2802,6.2802,6.2802,6.2802,6.2802,6.2802,6.2802,6.2802,6.2802,6.2802,6.2802,6.2802,6.2802,6.2802,6.2802,6.2802,6.2802,6.2802,6.2802,6.2802,6.2802,6.2802,6.2802,6.2802,6.2802,6.3028,6.3475,6.3898,6.4174,6.43,6.4852,6.5103,6.5128,6.566,6.5911,3.4917,3.6145,3.7399,3.8278,3.8454,3.8655,3.9509,3.9484,3.9333,3.9647,3.9697,3.9785,4.0023,4.0727,4.1569,4.2436,4.3905,4.5723,4.7942,4.9741,5.1021,5.1599,5.2151,5.2586,5.2887,5.2895,5.2895,5.2895,5.2895,5.3013,5.3264,5.3808,5.4378,5.4956,5.5509,5.5767,5.5767,5.605,5.62,5.62,5.62,5.6326,5.6577,5.6878,5.7455,0.0,0.0,0.0,5.9483,5.9483,5.9483,5.9483,5.9483,5.9483,5.9533,5.9784,6.0041,6.0367,6.0894,6.1647,6.24,6.2701,6.2802,6.2802,6.2802,6.2802,6.2802,6.2802,6.2802,6.2802,6.2802,6.2802,6.2802,6.2802,6.2802,6.2802,6.2802,6.2802,6.2802,6.2802,6.2802,6.2802,6.2802,6.2802,6.2802,6.2802,6.2802,6.2802,6.2802,6.2802,6.2802,6.2802,6.2802,6.2802,6.2802,6.2802,6.2802,6.2802,6.2802,6.2927,6.3203,6.3203,6.3475,6.4048,6.4601,6.4877,6.4877,6.543,6.566,6.5685,6.5939,6.609,3.4413,3.5855,3.7235,3.7839,3.8366,3.8944,3.9559,3.9697,3.9697,3.9697,3.9785,3.9973,4.0412,4.1493,4.25,4.3025,4.5045,4.7265,4.9314,5.0586,5.1515,5.2051,5.2561,5.2895,5.2895,5.2895,5.2895,5.2895,5.2895,5.3138,5.3683,5.4278,5.4848,5.5383,5.5917,5.62,5.62,5.62,5.62,5.62,5.6276,5.6552,5.701,5.7186,5.7788,5.871,0.0,0.0,5.9483,5.9483,5.9483,5.9483,5.9483,5.9533,5.9684,6.0116,6.0417,6.0693,6.1768,6.2425,6.2802,6.2802,6.2802,6.2802,6.2802,6.2802,6.2802,6.2802,6.2802,6.2802,6.2802,6.2802,6.2802,6.2802,6.2802,6.2802,6.2802,6.2802,6.2802,6.2802,6.2802,6.2802,6.2802,6.2802,6.2802,6.2802,6.2802,6.2802,6.2802,6.2802,6.2802,6.2802,6.2802,6.2852,6.2927,6.2927,6.2978,6.3053,6.2978,6.3203,6.3797,6.3902,6.4174,6.4601,6.5153,6.5409,6.5409,6.5886,6.609,6.609,6.609,6.609,3.4413,3.5579,3.6758,3.7739,3.8065,3.8417,3.9446,3.9697,3.9697,3.9697,4.0074,4.0412,4.0487,4.1795,4.3051,4.3589,4.5909,4.8109,4.943,5.0586,5.1515,5.2051,5.2561,5.2895,5.2895,5.2895,5.2895,5.2895,5.2895,5.3138,5.3683,5.4278,5.4848,5.5383,5.5917,5.62,5.62,5.62,5.62,5.62,5.6677,5.691,5.7035,5.7989,5.8535,5.8736,0.0,5.9408,5.9483,5.9483,5.9483,5.9483,5.9483,5.9784,6.0191,6.0267,6.0894,6.1843,6.245,6.2727,6.2802,6.2802,6.2802,6.2802,6.2802,6.2802,6.2802,6.2802,6.2802,6.2802,6.2802,6.2802,6.2802,6.2802,6.2802,6.2802,6.2802,6.2802,6.2802,6.2802,6.2802,6.2802,6.2802,6.2802,6.2802,6.2802,6.2802,6.2802,6.2802,6.2802,6.2802,6.2802,6.2802,6.3003,6.3525,6.355,6.3772,6.4199,6.3802,6.3822,6.435,6.4827,6.5082,6.5179,6.571,6.5986,6.5986,6.604,6.609,6.609,6.609,6.609,3.4327,3.5541,3.6669,3.7739,3.8253,3.8705,3.9496,3.9697,3.9772,4.0061,4.0337,4.0789,4.1681,4.2724,4.4005,4.5723,4.7355,4.8903,5.0334,5.0962,5.1615,5.2435,5.2762,5.2895,5.2895,5.2895,5.2895,5.2895,5.3163,5.3582,5.4152,5.473,5.5282,5.5817,5.6068,5.62,5.62,5.62,5.62,5.62,5.6734,5.7161,5.7506,5.8334,5.8861,5.9156,0.0,5.9483,5.9483,5.9483,5.9483,5.9533,5.9834,6.0066,6.0367,6.0995,6.1723,6.2476,6.2727,6.2802,6.2802,6.2802,6.2802,6.2802,6.2802,6.2802,6.2802,6.2802,6.2802,6.2802,6.2802,6.2802,6.2802,6.2802,6.2802,6.2802,6.2802,6.2802,6.2802,6.2802,6.2802,6.2802,6.2802,6.2802,6.2802,6.2802,6.2802,6.2802,6.2802,6.2802,6.2802,6.2802,6.3078,6.34,6.3676,6.3973,6.4224,6.4496,6.4551,6.4676,6.4927,6.5434,6.5735,6.5735,6.5986,6.609,6.609,6.609,6.609,6.609,6.609,6.609,3.4452,3.5705,3.6859,3.7952,3.8555,3.9044,3.9584,3.9798,3.9998,4.0412,4.0814,4.148,4.2749,4.3754,4.5196,4.7707,4.8601,4.9531,5.1088,5.1414,5.1825,5.2787,5.2895,5.2895,5.2895,5.2895,5.2895,5.2895,5.3389,5.3959,5.4572,5.5107,5.5641,5.6175,5.62,5.62,5.62,5.62,5.6251,5.6401,5.6953,5.7531,5.8102,5.8635,5.9106,5.9483,5.9483,5.9483,5.9483,5.9483,5.9483,5.9558,6.0091,6.0468,6.0819,6.1823,6.245,6.2802,6.2802,6.2802,6.2802,6.2802,6.2802,6.2802,6.2802,6.2802,6.2802,6.2802,6.2802,6.2802,6.2802,6.2802,6.2802,6.2802,6.2802,6.2802,6.2802,6.2802,6.2802,6.2802,6.2802,6.2802,6.2802,6.2802,6.2802,6.2802,6.2802,6.2802,6.2802,6.2927,6.3003,6.3003,6.3525,6.3948,6.4053,6.4576,6.4877,6.4877,6.5279,6.5484,6.5484,6.5886,6.609,6.609,6.609,6.609,6.609,6.609,6.609,6.609,6.609,6.609,3.4993,3.627,3.7399,3.8542,3.8869,3.9044,3.9584,4.0099,4.0462,4.0487,4.1731,4.2864,4.2989,4.4694,4.6702,4.8451,4.9179,4.9958,5.1138,5.1724,5.2277,5.2837,5.2895,5.2895,5.2895,5.2895,5.2895,5.2895,5.3389,5.3959,5.4572,5.5107,5.5641,5.6175,5.62,5.62,5.62,5.62,5.6451,5.6935,5.7531,5.8127,5.866,5.9207,5.9458,5.9483,5.9483,5.9483,5.9483,5.9483,5.9483,5.9558,6.0091,6.0944,6.1943,6.2526,6.2777,6.2802,6.2802,6.2802,6.2802,6.2802,6.2802,6.2802,6.2802,6.2802,6.2802,6.2802,6.2802,6.2802,6.2802,6.2802,6.2802,6.2802,6.2802,6.2802,6.2802,6.2802,6.2802,6.2802,6.2802,6.2802,6.2802,6.2802,6.2802,6.2802,6.2802,6.2802,6.2802,6.3299,6.3626,6.3626,6.4124,6.4651,6.5132,6.5685,6.5965,6.5965,6.6036,6.604,6.604,6.6086,6.609,6.609,6.609,6.609,6.609,6.609,6.609,6.609,6.609,6.609,3.5143,3.6597,3.7902,3.8693,3.9409,3.9948,4.0149,4.0362,4.0789,4.1831,4.2548,4.3427,4.4794,4.6276,4.7631,4.8642,4.9531,5.0368,5.1188,5.1749,5.2285,5.2837,5.2895,5.2895,5.2895,5.2895,5.2895,5.2895,5.3733,5.4353,5.4597,5.5415,5.5993,5.6175,5.62,5.62,5.62,5.6527,5.7004,5.7556,5.7801,5.8177,5.871,5.9257,5.9483,5.9483,5.9483,5.9483,5.9483,5.9483,5.9709,6.0111,6.0995,6.1823,6.2526,6.2727,6.2802,6.2802,6.2802,6.2802,6.2802,6.2802,6.2802,6.2802,6.2802,6.2802,6.2802,6.2802,6.2802,6.2802,6.2802,6.2802,6.2802,6.2802,6.2802,6.2802,6.2802,6.2802,6.2802,6.2802,6.2802,6.2802,6.2802,6.2802,6.2802,6.2802,6.2802,6.2927,6.3324,6.355,6.3847,6.4149,6.4676,6.5229,6.576,6.5986,6.609,6.609,6.609,6.609,6.609,6.609,6.609,6.609,6.609,6.609,6.609,6.609,6.609,6.609,6.609,6.609,3.5682,3.6998,3.8191,3.8956,3.9823,4.0524,4.07,4.0889,4.1404,4.2738,4.3553,4.4593,4.6461,4.7556,4.8426,4.9179,5.0067,5.0896,5.1465,5.2026,5.2485,5.2845,5.2895,5.2895,5.2895,5.2895,5.2895,5.2895,5.3976,5.4597,5.4597,5.5616,5.62,5.62,5.62,5.62,5.62,5.6728,5.7305,5.7901,5.8077,5.8434,5.8961,5.9332,5.9483,5.9483,5.9483,5.9483,5.9508,5.9684,6.0166,6.0894,6.1692,6.2325,6.2802,6.2802,6.2802,6.2802,6.2802,6.2802,6.2802,6.2802,6.2802,6.2802,6.2802,6.2802,6.2802,6.2802,6.2802,6.2802,6.2802,6.2802,6.2802,6.2802,6.2802,6.2802,6.2802,6.2802,6.2802,6.2802,6.2802,6.2802,6.2802,6.2802,6.2877,6.3053,6.3078,6.3279,6.3898,6.4099,6.4404,6.4953,6.5333,6.571,6.6086,6.609,6.609,6.609,6.609,6.609,6.609,6.609,6.609,6.609,6.609,6.609,6.609,6.609,6.609,6.609,6.609,6.609,3.6746,3.7588,3.8266,3.9421,4.0124,4.0663,4.1188,4.1756,4.2375,4.2914,4.4769,4.6637,4.7707,4.84,4.9154,5.0226,5.0896,5.149,5.2026,5.2561,5.2895,5.2895,5.2895,5.2895,5.2895,5.2895,5.2895,5.2895,5.3976,5.4597,5.4622,5.5616,5.62,5.62,5.62,5.62,5.62,5.6753,5.7305,5.7901,5.8434,5.9006,5.9483,5.9483,5.9483,5.9483,5.9483,5.9483,5.9533,6.0111,6.097,6.1994,6.2019,6.2325,6.2802,6.2802,6.2802,6.2802,6.2802,6.2802,6.2802,6.2802,6.2802,6.2802,6.2802,6.2802,6.2802,6.2802,6.2802,6.2802,6.2802,6.2802,6.2802,6.2802,6.2802,6.2802,6.2802,6.2802,6.2802,6.2802,6.2802,6.2802,6.2802,6.2781,6.3003,6.3601,6.3701,6.3898,6.4446,6.4978,6.5509,6.604,6.609,6.609,6.609,6.609,6.609,6.609,6.609,6.609,6.609,6.609,6.609,6.609,6.609,6.609,6.609,6.609,6.609,6.609,6.609,6.609,3.6746,3.7588,3.8266,3.9421,4.0387,4.1088,4.1264,4.2057,4.3266,4.497,4.6135,4.7214,4.8325,4.8677,4.9154,5.0226,5.0896,5.149,5.2026,5.2561,5.2895,5.2895,5.2895,5.2895,5.2895,5.2895,5.3063,5.3414,5.4177,5.4755,5.5132,5.5817,5.62,5.62,5.62,5.6376,5.6778,5.733,5.7907,5.8459,5.9006,5.9357,5.9483,5.9483,5.9483,5.9483,5.9483,5.9483,5.9558,6.0537,6.1341,6.2044,6.2425,6.2651,6.2802,6.2802,6.2802,6.2802,6.2802,6.2802,6.2802,6.2802,6.2802,6.2802,6.2802,6.2802,6.2802,6.2802,6.2802,6.2802,6.2802,6.2802,6.2802,6.2802,6.2802,6.2802,6.2802,6.2802,6.2802,6.2802,6.2802,6.2802,6.2802,6.3153,6.35,6.3676,6.4023,6.445,6.5003,6.5534,6.5936,6.6065,6.609,6.609,6.609,6.609,6.609,6.609,6.609,6.609,6.609,6.609,6.609,6.609,6.609,6.609,6.609,6.609,6.609,6.609,6.609,6.609,3.701,3.7739,3.8266,3.9421,4.0512,4.1515,4.2406,4.3148,4.4141,4.5934,4.6888,4.7691,4.8626,4.9154,4.9715,5.0619,5.1247,5.18,5.2335,5.2711,5.2895,5.2895,5.2895,5.2895,5.2895,5.2895,5.3113,5.3658,5.4253,5.483,5.5383,5.5917,5.62,5.62,5.62,5.6451,5.6985,5.76,5.8177,5.871,5.9257,5.9483,5.9483,5.9483,5.9483,5.9508,5.9734,5.996,6.0256,6.116,6.1843,6.235,6.2676,6.2802,6.2802,6.2802,6.2802,6.2802,6.2802,6.2802,6.2802,6.2802,6.2802,6.2802,6.2802,6.2802,6.2802,6.2802,6.2802,6.2802,6.2802,6.2802,6.2802,6.2802,6.2802,6.2802,6.2802,6.2802,6.2802,6.2802,6.3003,6.3153,6.3153,6.3626,6.4099,6.4279,6.4802,6.5254,6.5584,6.5911,6.609,6.609,6.609,6.609,6.609,6.609,6.609,6.609,6.609,6.609,6.609,6.609,6.609,6.609,6.609,6.609,6.609,6.609,6.609,6.609,6.609,6.609,3.74,3.8002,3.8266,3.9421,4.0538,4.1955,4.4113,4.4679,4.5081,4.621,4.723,4.8109,4.8752,4.9715,5.0603,5.1214,5.1749,5.2302,5.282,5.2895,5.2895,5.2895,5.2895,5.2895,5.2895,5.2895,5.3163,5.3733,5.4278,5.4873,5.5458,5.5942,5.62,5.62,5.62,5.6477,5.7079,5.7631,5.8202,5.8786,5.9282,5.9483,5.9483,5.9483,5.9483,5.9533,6.0066,6.0638,6.1235,6.1768,6.2325,6.2802,6.2802,6.2802,6.2802,6.2802,6.2802,6.2802,6.2802,6.2802,6.2802,6.2802,6.2802,6.2802,6.2802,6.2802,6.2802,6.2802,6.2802,6.2802,6.2802,6.2802,6.2802,6.2802,6.2802,6.2802,6.2802,6.2802,6.2827,6.2877,6.3324,6.3701,6.3751,6.4224,6.4752,6.5283,6.5785,6.609,6.609,6.609,6.609,6.609,6.609,6.609,6.609,6.609,6.609,6.609,6.609,6.609,6.609,6.609,6.609,6.609,6.609,6.609,6.609,6.609,6.609,6.609,6.609,6.609,3.74,3.8002,3.8266,3.9421,4.0865,4.2448,4.4202,4.5282,4.6235,4.7315,4.7757,4.8209,4.9254,4.9967,5.0603,5.1214,5.1749,5.2302,5.282,5.2895,5.2895,5.2895,5.2895,5.2895,5.2895,5.2895,5.3314,5.4328,5.4522,5.5006,5.5993,5.6143,5.62,5.62,5.62,5.6677,5.77,5.7851,5.8378,5.9332,5.9433,5.9483,5.9483,5.9483,5.9483,5.9533,6.0066,6.0638,6.1235,6.1768,6.2325,6.2802,6.2802,6.2802,6.2802,6.2802,6.2802,6.2802,6.2802,6.2802,6.2802,6.2802,6.2802,6.2802,6.2802,6.2802,6.2802,6.2802,6.2802,6.2802,6.2802,6.2802,6.2802,6.2802,6.2802,6.2802,6.2802,6.2802,6.2952,6.3425,6.3601,6.3827,6.4249,6.4777,6.5329,6.586,6.6036,6.609,6.609,6.609,6.609,6.609,6.609,6.609,6.609,6.609,6.609,6.609,6.609,6.609,6.609,6.609,6.609,6.609,6.609,6.609,6.609,6.609,6.609,6.609,6.609,6.609,3.701,3.7814,3.8404,4.0061,4.1343,4.2612,4.4227,4.5482,4.6587,4.7666,4.8134,4.8661,4.9791,5.0444,5.1021,5.1574,5.2126,5.2586,5.2845,5.2895,5.2895,5.2895,5.2895,5.2895,5.2895,5.2895,5.3364,5.4522,5.4597,5.5056,5.6125,5.62,5.62,5.62,5.62,5.6746,5.7901,5.7901,5.8428,5.9483,5.9483,5.9483,5.9483,5.9483,5.9633,5.989,6.0487,6.1065,6.1617,6.2149,6.2551,6.2802,6.2802,6.2802,6.2802,6.2802,6.2802,6.2802,6.2802,6.2802,6.2802,6.2802,6.2802,6.2802,6.2802,6.2802,6.2802,6.2802,6.2802,6.2802,6.2802,6.2802,6.2802,6.2802,6.2802,6.2802,6.2802,6.3028,6.3324,6.3626,6.4103,6.453,6.4827,6.5329,6.5785,6.604,6.609,6.609,6.609,6.609,6.609,6.609,6.609,6.609,6.609,6.609,6.609,6.609,6.609,6.609,6.609,6.609,6.609,6.609,6.609,6.609,6.609,6.609,6.609,6.609,6.609,6.6262,3.6621,3.7751,3.8781,4.08,4.1756,4.2612,4.4227,4.5482,4.6587,4.7666,4.8375,4.9129,5.0201,5.0896,5.149,5.2026,5.2561,5.2895,5.2895,5.2895,5.2895,5.2895,5.2895,5.2895,5.2895,5.2895,5.3364,5.4522,5.4597,5.5056,5.6125,5.62,5.62,5.62,5.6276,5.6828,5.7901,5.8001,5.8529,5.9483,5.9483,5.9483,5.9483,5.9583,5.9885,6.0342,6.0939,6.1492,6.2044,6.2576,6.2802,6.2802,6.2802,6.2802,6.2802,6.2802,6.2802,6.2802,6.2802,6.2802,6.2802,6.2802,6.2802,6.2802,6.2802,6.2802,6.2802,6.2802,6.2802,6.2802,6.2802,6.2802,6.2802,6.2802,6.2877,6.2952,6.2952,6.335,6.3751,6.3927,6.4756,6.5434,6.5434,6.581,6.609,6.609,6.609,6.609,6.609,6.609,6.609,6.609,6.609,6.609,6.609,6.609,6.609,6.609,6.609,6.609,6.609,6.609,6.609,6.609,6.609,6.609,6.609,6.609,6.609,6.609,6.6212,6.6513,3.6721,3.8303,3.9772,4.0988,4.1756,4.2612,4.4227,4.5482,4.6587,4.7666,4.8375,4.9129,5.0201,5.0896,5.149,5.2026,5.2561,5.2895,5.2895,5.2895,5.2895,5.2895,5.2895,5.2895,5.2895,5.2895,5.3364,5.4522,5.4597,5.5056,5.6125,5.62,5.62,5.62,5.6652,5.723,5.7901,5.8359,5.8905,5.9483,5.9483,5.9483,5.9508,5.9985,6.0242,6.0342,6.0939,6.1492,6.2044,6.2576,6.2802,6.2802,6.2802,6.2802,6.2802,6.2802,6.2802,6.2802,6.2802,6.2802,6.2802,6.2802,6.2802,6.2802,6.2802,6.2802,6.2802,6.2802,6.2802,6.2802,6.2802,6.2802,6.2802,6.2802,6.3178,6.3576,6.3576,6.3626,6.3977,6.4927,6.5584,6.599,6.599,6.604,6.609,6.609,6.609,6.609,6.609,6.609,6.609,6.609,6.609,6.609,6.609,6.609,6.609,6.609,6.609,6.609,6.609,6.609,6.609,6.609,6.609,6.609,6.609,6.609,6.609,6.609,6.6639,6.6912,3.7036,3.8429,3.9584,4.0951,4.1503,4.2208,4.4152,4.5257,4.625,4.7631,4.8375,4.9129,5.0201,5.0896,5.149,5.2026,5.2561,5.2895,5.2895,5.2895,5.2895,5.2895,5.2895,5.2895,5.2895,5.2895,5.3364,5.4522,5.4597,5.5056,5.6125,5.62,5.62,5.62,5.6728,5.7305,5.7901,5.8434,5.8961,5.9483,5.9483,5.9483,5.9508,6.006,6.0468,6.0839,6.1391,6.1943,6.2476,6.2701,6.2802,6.2802,6.2802,6.2802,6.2802,6.2802,6.2802,6.2802,6.2802,6.2802,6.2802,6.2802,6.2802,6.2802,6.2802,6.2802,6.2802,6.2802,6.2802,6.2802,6.2802,6.2802,6.2877,6.3203,6.35,6.3852,6.4475,6.4601,6.4806,6.5609,6.5936,6.609,6.609,6.609,6.609,6.609,6.609,6.609,6.609,6.609,6.609,6.609,6.609,6.609,6.609,6.609,6.609,6.609,6.609,6.609,6.609,6.609,6.609,6.609,6.609,6.609,6.609,6.609,6.6287,6.6614,6.6887,6.7339,3.7161,3.8329,3.9233,4.0725,4.1188,4.1816,4.375,4.4744,4.5698,4.7205,4.8074,4.8853,4.9816,5.0695,5.149,5.2026,5.2561,5.2895,5.2895,5.2895,5.2895,5.2895,5.2895,5.2895,5.2895,5.2895,5.3364,5.4522,5.4597,5.5056,5.6125,5.62,5.62,5.62,5.6878,5.743,5.7901,5.8579,5.9106,5.9483,5.9483,5.9483,5.9508,6.0211,6.0763,6.1235,6.1768,6.23,6.2802,6.2802,6.2802,6.2802,6.2802,6.2802,6.2802,6.2802,6.2802,6.2802,6.2802,6.2802,6.2802,6.2802,6.2802,6.2802,6.2802,6.2802,6.2802,6.2802,6.2802,6.2802,6.2802,6.2927,6.3128,6.3576,6.3902,6.435,6.5128,6.543,6.5609,6.6036,6.609,6.609,6.609,6.609,6.609,6.609,6.609,6.609,6.609,6.609,6.609,6.609,6.609,6.609,6.609,6.609,6.609,6.609,6.609,6.609,6.609,6.609,6.609,6.609,6.609,6.609,6.609,6.6262,6.6564,6.7012,6.7288,6.7844,3.691,3.8052,3.917,4.0261,4.0926,4.1603,4.2824,4.389,4.498,4.6135,4.723,4.8134,4.8768,5.0209,5.149,5.2026,5.2561,5.2895,5.2895,5.2895,5.2895,5.2895,5.2895,5.2895,5.2895,5.2895,5.3364,5.4522,5.4597,5.5056,5.6125,5.62,5.62,5.62,5.7273,5.7876,5.7901,5.893,5.9458,5.9483,5.9483,5.9483,5.9533,6.0658,6.1185,6.1235,6.1768,6.23,6.2802,6.2802,6.2802,6.2802,6.2802,6.2802,6.2802,6.2802,6.2802,6.2802,6.2802,6.2802,6.2802,6.2802,6.2802,6.2802,6.2802,6.2802,6.2802,6.2802,6.2802,6.2802,6.2802,6.3203,6.3651,6.3676,6.45,6.5233,6.5283,6.571,6.6086,6.609,6.609,6.609,6.609,6.609,6.609,6.609,6.609,6.609,6.609,6.609,6.609,6.609,6.609,6.609,6.609,6.609,6.609,6.609,6.609,6.609,6.609,6.609,6.609,6.609,6.609,6.609,6.609,6.6664,6.6962,6.7012,6.8045,6.855,3.7211,3.8015,3.8668,4.0136,4.0901,4.1603,4.2749,4.384,4.4916,4.606,4.7139,4.8083,4.8677,4.9857,5.0921,5.1473,5.2051,5.2511,5.2845,5.2895,5.2895,5.2895,5.2895,5.2895,5.2895,5.2895,5.3364,5.4522,5.4597,5.5056,5.6125,5.62,5.62,5.62,5.7298,5.8227,5.8905,5.9307,5.9483,5.9483,5.9483,5.9483,5.9533,6.0683,6.121,6.126,6.2144,6.2626,6.2802,6.2802,6.2802,6.2802,6.2802,6.2802,6.2802,6.2802,6.2802,6.2802,6.2802,6.2802,6.2802,6.2802,6.2802,6.2802,6.2802,6.2802,6.2802,6.2802,6.2802,6.2902,6.3299,6.3525,6.3877,6.4555,6.5283,6.581,6.581,6.5939,6.609,6.609,6.609,6.609,6.609,6.609,6.609,6.609,6.609,6.609,6.609,6.609,6.609,6.609,6.609,6.609,6.609,6.609,6.609,6.609,6.609,6.609,6.609,6.609,6.609,6.609,6.6488,6.6686,6.6686,6.6887,6.7364,6.8045,6.8424,6.8776,3.696,3.7739,3.8316,3.9647,4.0512,4.1277,4.2233,4.3288,4.4378,4.5508,4.6587,4.7606,4.835,4.9238,5.0117,5.087,5.1624,5.2209,5.2586,5.2787,5.2895,5.2895,5.2895,5.2895,5.2895,5.2895,5.3289,5.4228,5.4496,0.0,5.5892,5.61,5.6376,5.6771,5.7499,5.8403,5.9483,5.9483,5.9483,5.9483,5.9483,5.9583,5.9809,6.0758,6.1311,6.1517,6.24,6.2802,6.2802,6.2802,6.2802,6.2802,6.2802,6.2802,6.2802,6.2802,6.2802,6.2802,6.2802,6.2802,6.2802,6.2802,6.2802,6.2802,6.2802,6.2802,6.2802,6.2802,6.2802,6.2927,6.355,6.3952,6.4454,6.5358,6.5835,6.609,6.609,6.609,6.609,6.609,6.609,6.609,6.609,6.609,6.609,6.609,6.609,6.609,6.609,6.609,6.609,6.609,6.609,6.609,6.609,6.609,6.609,6.609,6.609,6.609,6.609,6.609,6.6212,6.6388,6.6811,6.7188,6.7518,6.7518,6.7894,6.86,6.8776,6.9077,0.0,0.0,0.0,3.8743,3.971,4.0625,4.1188,4.2169,4.3302,4.4353,4.5508,4.6612,4.7666,4.8375,4.9129,5.0176,5.1306,5.2076,5.2101,5.2561,5.287,5.2895,5.2895,5.2895,5.2895,5.2895,5.3113,5.3658,5.4253,5.483,5.5383,5.5917,5.6721,5.7851,5.7901,5.8403,5.9483,5.9483,5.9483,5.9483,5.9483,5.9784,6.0317,6.0914,6.1492,6.2044,6.2576,6.2802,6.2802,6.2802,6.2802,6.2802,6.2802,6.2802,6.2802,6.2802,6.2802,6.2802,6.2802,6.2802,6.2802,6.2802,6.2802,6.2802,6.2802,6.2802,6.2802,6.2802,6.2827,6.2978,6.3576,6.453,6.5434,6.5986,6.609,6.609,6.609,6.609,6.609,6.609,6.609,6.609,6.609,6.609,6.609,6.609,6.609,6.609,6.609,6.609,6.609,6.609,6.609,6.609,6.609,6.609,6.609,6.609,6.609,6.609,6.609,6.609,6.6388,6.6987,6.7012,6.7543,6.86,6.86,6.86,6.865,6.9155,6.9406,3.6671,0.0,0.0,0.0,0.0,0.0,4.1188,4.2169,4.3176,4.389,4.5231,4.6386,4.6687,4.7873,4.8894,4.9179,5.0167,5.1155,5.1975,5.2226,5.246,5.2845,5.2895,5.2895,5.2895,5.2895,5.3113,0.0,5.4253,5.483,5.5383,5.5917,5.6721,5.7851,5.7901,5.8403,5.9483,5.9483,5.9483,5.9483,5.9483,5.9784,6.0317,6.0914,6.1492,6.2044,6.2576,6.2802,6.2802,6.2802,6.2802,6.2802,6.2802,6.2802,6.2802,6.2802,6.2802,6.2802,6.2802,6.2802,6.2802,6.2802,6.2802,6.2802,6.2802,6.2802,6.2802,6.2802,6.3103,6.3676,6.4605,6.5358,6.5936,6.6065,6.609,6.609,6.609,6.609,6.609,6.609,6.609,6.609,6.609,6.609,6.609,6.609,6.609,6.609,6.609,6.609,6.609,6.609,6.609,6.609,6.609,6.609,6.609,6.609,6.609,6.609,6.609,6.609,6.6388,6.6987,6.7367,6.7919,6.86,6.86,6.8801,6.918,6.9331,6.9406,3.6897,3.7588,3.814,3.8743,0.0,0.0,4.1127,4.1804,4.2585,4.3589,4.4769,4.5733,4.621,4.728,4.8159,4.84,4.9179,5.0117,5.123,5.1783,5.2226,5.2536,5.2744,5.2895,5.2895,5.2895,5.3038,5.3339,5.3884,5.4579,5.5358,5.5917,5.6721,5.7851,5.7901,5.8403,5.9483,5.9483,5.9483,5.9483,5.9483,5.991,6.0688,6.1059,6.1617,6.235,6.2676,6.2802,6.2802,6.2802,6.2802,6.2802,6.2802,6.2802,6.2802,6.2802,6.2802,6.2802,6.2802,6.2802,6.2802,6.2802,6.2802,6.2802,6.2802,6.2802,6.2852,6.3103,6.3751,6.4505,6.5132,6.571,6.609,6.609,6.609,6.609,6.609,6.609,6.609,6.609,6.609,6.609,6.609,6.609,6.609,6.609,6.609,6.609,6.609,6.609,6.609,6.609,6.609,6.609,6.609,6.609,6.609,6.609,6.609,6.609,6.609,6.6338,6.6739,6.7339,6.7869,6.8399,6.8929,6.8929,6.908,6.9406,6.9406,6.9406,3.701,3.7701,3.8216,3.8768,3.9283,0.0,4.0976,4.1214,4.1654,4.3198,4.4001,4.4729,4.5733,4.6522,4.7164,4.7641,4.8275,4.9079,5.0151,5.123,5.1975,5.2076,5.2511,5.282,5.2895,5.2895,5.2895,5.2895,5.3439,5.426,5.5358,5.5917,5.6677,5.7775,5.7876,5.8378,5.9408,5.9458,5.9483,5.9483,5.9483,6.0105,6.121,6.121,6.1793,6.2802,6.2802,6.2802,6.2802,6.2802,6.2802,6.2802,6.2802,6.2802,6.2802,6.2802,6.2802,6.2802,6.2802,6.2802,6.2802,6.2802,6.2802,6.2802,6.2802,6.2802,6.2927,6.3601,6.4526,6.5308,6.5358,6.5735,6.609,6.609,6.609,6.609,6.609,6.609,6.609,6.609,6.609,6.609,6.609,6.609,6.609,6.609,6.609,6.609,6.609,6.609,6.609,6.609,6.609,6.609,6.609,6.609,6.609,6.609,6.609,6.609,6.609,6.6686,6.7263,6.7794,6.8374,6.8926,6.9406,6.9406,6.9406,6.9406,6.9406,6.9406,3.7777,3.8278,3.8743,3.8869,3.9283,0.0,4.0512,4.065,4.0876,4.1628,4.2596,4.3377,4.3603,4.5171,4.6486,4.6602,4.7431,4.846,4.959,5.0318,5.1055,5.2,5.2184,5.2435,5.2845,5.2895,5.2895,5.2895,5.3833,5.4705,5.5383,5.5917,5.6502,5.7136,5.765,5.8202,5.8836,5.9282,5.9483,5.9483,5.9483,6.0105,6.121,6.121,6.1793,6.2802,6.2802,6.2802,6.2802,6.2802,6.2802,6.2802,6.2802,6.2802,6.2802,6.2802,6.2802,6.2802,6.2802,6.2802,6.2802,6.2802,6.2802,6.2802,6.2802,6.2802,6.3028,6.4048,6.4802,6.5383,6.5835,6.6036,6.609,6.609,6.609,6.609,6.609,6.609,6.609,6.609,6.609,6.609,6.609,6.609,6.609,6.609,6.609,6.609,6.609,6.609,6.609,6.609,6.609,6.609,6.609,6.609,6.609,6.609,6.609,6.609,6.609,6.6686,6.7263,6.7794,6.8751,6.9306,6.9406,6.9406,6.9406,6.9406,6.9406,6.9406,3.8379,3.8668,3.8969,3.9233,3.9509,0.0,0.0,4.0512,4.065,4.1188,4.1982,4.2688,4.2964,4.4131,4.5146,4.5407,4.6386,4.729,4.7883,4.9138,5.0318,5.1155,5.1749,5.2226,5.246,5.2737,5.2895,5.2895,5.3683,5.4403,5.4956,5.5491,5.615,5.696,5.76,5.8152,5.8685,5.9232,5.9483,5.9483,5.9483,6.0105,6.121,6.121,6.1793,6.2802,6.2802,6.2802,6.2802,6.2802,6.2802,6.2802,6.2802,6.2802,6.2802,6.2802,6.2802,6.2802,6.2802,6.2802,6.2802,6.2802,6.2802,6.2802,6.2802,6.3178,6.3827,6.4651,6.5304,6.576,6.6036,6.609,6.609,6.609,6.609,6.609,6.609,6.609,6.609,6.609,6.609,6.609,6.609,6.609,6.609,6.609,6.609,6.609,6.609,6.609,6.609,6.609,6.609,6.609,6.609,6.609,6.609,6.609,6.609,6.609,6.609,6.694,6.7769,6.8575,6.913,6.9406,6.9406,6.9406,6.9406,6.9406,6.9406,6.9406,3.8944,3.9044,3.917,3.9584,0.0,3.9798,0.0,0.0,0.0,4.0901,4.1455,4.2009,4.2423,4.3151,4.3689,4.3801,4.5031,4.5884,4.5683,4.7581,4.9289,5.0126,5.1071,5.1749,5.2076,5.2586,5.2895,5.2895,5.3389,5.3959,5.4572,5.5107,5.5842,5.6828,5.7549,5.8102,5.8535,5.9182,5.9483,5.9483,5.9483,6.0105,6.121,6.121,6.1793,6.2802,6.2802,6.2802,6.2802,6.2802,6.2802,6.2802,6.2802,6.2802,6.2802,6.2802,6.2802,6.2802,6.2802,6.2802,6.2802,6.2802,6.2802,6.2827,6.2927,6.3676,6.4601,6.5153,6.5685,6.609,6.609,6.609,6.609,6.609,6.609,6.609,6.609,6.609,6.609,6.609,6.609,6.609,6.609,6.609,6.609,6.609,6.609,6.609,6.609,6.609,6.609,6.609,6.609,6.609,6.609,6.609,6.609,6.609,6.609,6.609,6.609,6.7191,6.8299,6.9381,6.9406,6.9406,6.9406,6.9406,6.9406,6.9406,6.9406,6.9406,3.9722,3.9609,3.9635,3.9672,3.9697,0.0,3.9772,0.0,3.9798,3.9873,0.0,4.0713,4.0763,0.0,0.0,4.119,4.3123,4.4453,4.3503,4.5271,4.7431,4.9439,4.9816,5.0469,5.1975,5.2586,5.2895,5.2895,5.3389,5.3959,5.4572,5.5107,5.5666,5.6276,5.7349,5.7926,5.8001,5.8981,5.9483,5.9483,5.9483,6.0105,6.121,6.121,6.1793,6.2802,6.2802,6.2802,6.2802,6.2802,6.2802,6.2802,6.2802,6.2802,6.2802,6.2802,6.2802,6.2802,6.2802,6.2802,6.2802,6.2802,6.2802,6.2902,6.345,6.4023,6.4601,6.5153,6.5685,6.609,6.609,6.609,6.609,6.609,6.609,6.609,6.609,6.609,6.609,6.609,6.609,6.609,6.609,6.609,6.609,6.609,6.609,6.609,6.609,6.609,6.609,6.609,6.609,6.609,6.609,6.609,6.609,6.609,6.609,6.609,6.609,6.7191,6.8299,6.9381,6.9406,6.9406,6.9406,6.9406,6.9406,6.9406,6.9406,6.9406,4.0675,4.0638,4.0549,4.0236,0.0,0.0,3.9772,0.0,3.9697,0.0,0.0,0.0,0.0,0.0,0.0,0.0,4.2495,0.0,4.3051,4.4342,4.6035,4.7917,4.9012,0.0,5.195,5.2285,5.2561,5.2887,5.3113,5.3482,5.4052,5.4629,5.5182,5.5717,5.7148,5.7901,5.7901,5.8956,5.9483,5.9483,5.9809,6.0387,6.121,6.1517,6.2094,6.2802,6.2802,6.2802,6.2802,6.2802,6.2802,6.2802,6.2802,6.2802,6.2802,6.2802,6.2802,6.2802,6.2802,6.2802,6.2802,6.2802,6.2802,6.2978,6.3898,6.4325,6.4676,6.5534,6.5936,6.609,6.609,6.609,6.609,6.609,6.609,6.609,6.609,6.609,6.609,6.609,6.609,6.609,6.609,6.609,6.609,6.609,6.609,6.609,6.609,6.609,6.609,6.609,6.609,6.609,6.609,6.609,6.609,6.609,6.609,6.6413,6.7066,6.7543,6.8299,6.9381,6.9406,6.9406,6.9406,6.9406,6.9406,6.9406,6.9406,6.9406,4.1592,4.1428,4.1227,0.0,0.0,0.0,0.0,0.0,0.0,0.0,0.0,0.0,0.0,0.0,0.0,0.0,0.0,4.2397,4.1934,4.3076,4.4618,4.6436,4.8284,0.0,0.0,5.1825,5.226,5.2661,0.0,5.3138,5.3683,5.4278,5.4848,5.5383,5.6872,5.7725,5.7901,5.883,5.9357,5.9508,5.991,6.0462,6.121,6.1592,6.2149,6.2802,6.2802,6.2802,6.2802,6.2802,6.2802,6.2802,6.2802,6.2802,6.2802,6.2802,6.2802,6.2802,6.2802,6.2802,6.2802,6.2802,6.2902,6.3229,6.4199,6.4601,6.4902,6.5835,6.609,6.609,6.609,6.609,6.609,6.609,6.609,6.609,6.609,6.609,6.609,6.609,6.609,6.609,6.609,6.609,6.609,6.609,6.609,6.609,6.609,6.609,6.609,6.609,6.609,6.609,6.609,6.609,6.609,6.609,6.6262,6.6789,6.7769,6.7945,6.845,6.9381,6.9406,6.9406,6.9406,6.9406,6.9406,6.9406,6.9406,6.9406,0.0,0.0,0.0,4.1264,0.0,0.0,0.0,0.0,4.0487,0.0,0.0,0.0,0.0,0.0,0.0,0.0,0.0,0.0,0.0,4.0892,4.3104,4.5286,4.7471,4.9053,0.0,5.1147,5.2126,0.0,5.2611,0.0,5.3683,5.4278,5.4848,5.5383,5.6451,5.7305,5.7901,5.8434,5.9006,5.9483,5.9508,6.0111,6.121,6.121,6.1793,6.2802,6.2802,6.2802,6.2802,6.2802,6.2802,6.2802,6.2802,6.2802,6.2802,6.2802,6.2802,6.2802,6.2802,6.2802,6.2802,6.2802,6.3178,6.3751,6.4325,6.4852,6.5383,6.5939,6.609,6.609,6.609,6.609,6.609,6.609,6.609,6.609,6.609,6.609,6.609,6.609,6.609,6.609,6.609,6.609,6.609,6.609,6.609,6.609,6.609,6.609,6.609,6.609,6.609,6.609,6.609,6.609,6.609,6.609,6.6639,6.7238,6.7769,6.8299,6.8826,6.9381,6.9406,6.9406,6.9406,6.9406,6.9406,6.9406,6.9406,6.9406,0.0,0.0,4.3385,4.3048,0.0,0.0,0.0,0.0,0.0,0.0,0.0,0.0,0.0,0.0,0.0,0.0,0.0,0.0,0.0,4.1255,4.2601,4.3704,4.5813,4.7657,0.0,0.0,0.0,0.0,5.2277,0.0,0.0,5.4077,5.4672,5.4856,5.6251,5.7305,5.7901,5.8434,5.8961,5.9508,5.9859,6.0437,6.121,6.1567,6.2119,6.2802,6.2802,6.2802,6.2802,6.2802,6.2802,6.2802,6.2802,6.2802,6.2802,6.2802,6.2802,6.2802,6.2802,6.2802,6.2802,6.2802,6.3224,6.3797,6.4325,6.4877,6.5409,6.5961,6.609,6.609,6.609,6.609,6.609,6.609,6.609,6.609,6.609,6.609,6.609,6.609,6.609,6.609,6.609,6.609,6.609,6.609,6.609,6.609,6.609,6.609,6.609,6.609,6.609,6.609,6.609,6.609,6.609,6.609,6.6686,6.7238,6.7769,6.8321,6.8851,6.9381,6.9406,6.9406,6.9406,6.9406,6.9406,6.9406,6.9406,6.9406,4.5206,4.4905,0.0,4.4177,4.3815,0.0,4.3126,0.0,4.2181,0.0,0.0,0.0,0.0,0.0,0.0,0.0,0.0,0.0,0.0,4.1192,4.2021,4.2359,4.4353,4.6336,4.8033,4.8878,5.0008,5.1674,5.2,5.2335,0.0,0.0,5.4396,5.4597,5.5792,5.6903,5.7901,5.8234,5.878,5.9508,5.9859,6.0437,6.121,6.1542,6.2119,6.2802,6.2802,6.2802,6.2802,6.2802,6.2802,6.2802,6.2802,6.2802,6.2802,6.2802,6.2802,6.2802,6.2802,6.2802,6.2802,6.2802,6.335,6.4048,6.4396,6.5003,6.566,6.599,6.609,6.609,6.609,6.609,6.609,6.609,6.609,6.609,6.609,6.609,6.609,6.609,6.609,6.609,6.609,6.609,6.609,6.609,6.609,6.609,6.609,6.609,6.609,6.609,6.609,6.609,6.609,6.609,6.609,6.609,6.684,6.7417,6.7794,6.85,6.8977,6.9105,6.9306,6.9306,6.9127,6.9306,6.9406,6.9406,6.9406,6.9406]},{"header":{"parameterUnit":"m.s-1","parameterCategory":1,"la1":30.6,"la2":29.2853,"lo1":-89.7004,"lo2":-87.6739,"dx":0.0162,"dy":0.0183,"nx":112,"ny":82,"refTime":"2022-11-04T00:00:00:Z","depth":0,"parameterNumber":3,"parameterNumberName":"V-component_of_WINDS"},"data":[0.0,0.0,0.0,0.0,0.0,0.0,0.0,0.0,0.0,0.0,0.0,0.0,0.0,0.0,0.0,0.0,0.0,0.0,0.0,0.0,0.0,0.0,0.0,0.0,0.0,0.0,0.0,0.0,0.0,0.0,0.0,0.0,0.0,0.0,0.0,0.0,0.0,0.0,0.0,0.0,0.0,0.0,0.0,0.0,0.0,0.0,0.0,0.0,0.0,0.0,0.0,0.0,0.0,0.0,0.0,0.0,0.0,0.0,0.0,0.0,0.0,0.0,0.0,0.0,0.0,0.0,0.0,0.0,0.0,0.0,0.0,0.0,0.0,0.0,0.0,0.0,0.0,0.0,0.0,0.0,0.0,0.0,0.0,0.0,0.0,0.0,0.0,0.0,0.0,0.0,2.9267,2.9854,3.0015,3.004,3.004,2.9955,2.9905,2.9905,0.0,0.0,0.0,0.0,0.0,0.0,0.0,0.0,0.0,0.0,0.0,0.0,0.0,0.0,0.0,0.0,0.0,0.0,0.0,0.0,0.0,0.0,0.0,0.0,0.0,0.0,0.0,0.0,0.0,0.0,0.0,0.0,0.0,0.0,0.0,0.0,0.0,0.0,0.0,0.0,0.0,0.0,0.0,0.0,0.0,0.0,0.0,0.0,0.0,0.0,0.0,0.0,0.0,0.0,0.0,0.0,0.0,0.0,0.0,0.0,0.0,0.0,0.0,0.0,0.0,0.0,0.0,0.0,0.0,0.0,0.0,0.0,0.0,0.0,0.0,0.0,0.0,0.0,0.0,0.0,0.0,0.0,0.0,0.0,0.0,0.0,0.0,0.0,0.0,0.0,0.0,0.0,0.0,0.0,0.0,0.0,0.0,0.0,0.0,0.0,0.0,0.0,0.0,0.0,2.987,3.0422,3.0884,3.117,3.117,3.0733,3.0472,3.0472,0.0,0.0,0.0,0.0,0.0,0.0,0.0,0.0,0.0,0.0,0.0,0.0,0.0,0.0,0.0,0.0,0.0,0.0,0.0,0.0,0.0,0.0,0.0,0.0,0.0,0.0,0.0,0.0,0.0,0.0,0.0,0.0,0.0,0.0,0.0,0.0,0.0,0.0,0.0,0.0,0.0,0.0,0.0,0.0,0.0,0.0,0.0,0.0,0.0,0.0,0.0,0.0,0.0,0.0,0.0,0.0,0.0,0.0,0.0,0.0,0.0,0.0,0.0,0.0,0.0,0.0,0.0,0.0,0.0,0.0,0.0,0.0,0.0,0.0,0.0,0.0,0.0,0.0,0.0,0.0,0.0,0.0,0.0,0.0,0.0,0.0,0.0,0.0,0.0,0.0,0.0,0.0,0.0,0.0,0.0,0.0,0.0,0.0,0.0,0.0,0.0,0.0,0.0,3.0331,3.0758,3.1009,3.126,3.1396,3.1396,3.116,3.0899,3.0623,3.0372,0.0,0.0,0.0,0.0,0.0,0.0,0.0,0.0,0.0,0.0,0.0,0.0,0.0,0.0,0.0,0.0,0.0,0.0,0.0,0.0,0.0,0.0,0.0,0.0,0.0,0.0,0.0,0.0,0.0,0.0,0.0,0.0,0.0,0.0,0.0,0.0,0.0,0.0,0.0,0.0,0.0,0.0,0.0,0.0,0.0,0.0,0.0,0.0,0.0,0.0,0.0,0.0,0.0,0.0,0.0,0.0,0.0,0.0,0.0,0.0,0.0,0.0,0.0,0.0,0.0,0.0,0.0,0.0,0.0,0.0,0.0,0.0,0.0,0.0,0.0,0.0,0.0,0.0,0.0,0.0,0.0,0.0,0.0,0.0,0.0,0.0,0.0,0.0,0.0,0.0,0.0,0.0,0.0,0.0,0.0,0.0,0.0,0.0,0.0,0.0,0.0,0.0,3.1311,3.1798,3.1798,3.2024,3.2175,3.2175,3.1949,3.1622,3.121,3.0824,0.0,0.0,0.0,0.0,0.0,0.0,0.0,0.0,0.0,0.0,0.0,0.0,0.0,0.0,0.0,0.0,0.0,0.0,0.0,0.0,0.0,0.0,0.0,0.0,0.0,0.0,0.0,0.0,0.0,0.0,0.0,0.0,0.0,0.0,0.0,0.0,0.0,0.0,0.0,0.0,0.0,0.0,0.0,0.0,0.0,0.0,0.0,0.0,0.0,0.0,0.0,0.0,0.0,0.0,0.0,0.0,0.0,0.0,0.0,0.0,0.0,0.0,0.0,0.0,0.0,0.0,0.0,0.0,0.0,0.0,0.0,0.0,0.0,0.0,0.0,0.0,0.0,0.0,0.0,0.0,0.0,0.0,0.0,0.0,0.0,0.0,0.0,0.0,0.0,0.0,0.0,0.0,0.0,0.0,0.0,0.0,0.0,0.0,0.0,0.0,0.0,0.0,3.1989,3.2989,3.2989,3.3861,3.4477,3.4477,3.3545,3.2964,3.2939,3.1461,0.0,0.0,0.0,0.0,0.0,0.0,0.0,0.0,0.0,0.0,0.0,0.0,0.0,0.0,0.0,0.0,0.0,0.0,0.0,0.0,0.0,0.0,0.0,0.0,0.0,0.0,0.0,0.0,0.0,0.0,0.0,0.0,0.0,0.0,0.0,0.0,0.0,0.0,0.0,0.0,0.0,0.0,0.0,0.0,0.0,0.0,0.0,0.0,0.0,0.0,0.0,0.0,0.0,0.0,0.0,0.0,0.0,0.0,0.0,0.0,0.0,0.0,0.0,0.0,0.0,0.0,0.0,0.0,0.0,0.0,0.0,0.0,0.0,0.0,0.0,0.0,0.0,0.0,0.0,0.0,0.0,0.0,0.0,0.0,0.0,0.0,0.0,0.0,0.0,0.0,0.0,0.0,0.0,0.0,0.0,0.0,0.0,0.0,0.0,0.0,0.0,0.0,3.3004,3.3732,0.0,3.4463,3.4703,3.4703,3.4338,3.3796,3.314,0.0,0.0,0.0,0.0,0.0,0.0,0.0,0.0,0.0,0.0,0.0,0.0,0.0,0.0,0.0,0.0,0.0,0.0,0.0,0.0,0.0,0.0,0.0,0.0,0.0,0.0,0.0,0.0,0.0,0.0,0.0,0.0,0.0,0.0,0.0,0.0,0.0,0.0,0.0,0.0,0.0,0.0,0.0,0.0,0.0,0.0,0.0,0.0,0.0,0.0,0.0,0.0,0.0,0.0,0.0,0.0,0.0,0.0,0.0,0.0,0.0,0.0,0.0,0.0,0.0,0.0,0.0,0.0,0.0,0.0,0.0,0.0,0.0,0.0,0.0,0.0,0.0,0.0,0.0,0.0,0.0,0.0,0.0,0.0,0.0,0.0,0.0,0.0,0.0,0.0,0.0,0.0,0.0,0.0,0.0,0.0,0.0,0.0,0.0,0.0,0.0,0.0,3.2964,3.4045,3.4826,0.0,3.5543,3.5743,3.5743,3.5442,3.4851,3.3922,0.0,0.0,0.0,0.0,0.0,0.0,0.0,0.0,0.0,0.0,0.0,0.0,0.0,0.0,0.0,0.0,0.0,0.0,0.0,0.0,0.0,0.0,0.0,0.0,0.0,0.0,0.0,0.0,0.0,0.0,0.0,0.0,0.0,0.0,0.0,0.0,0.0,0.0,0.0,0.0,0.0,0.0,0.0,0.0,0.0,0.0,0.0,0.0,0.0,0.0,0.0,0.0,0.0,0.0,0.0,0.0,0.0,0.0,0.0,0.0,0.0,0.0,0.0,0.0,0.0,0.0,0.0,0.0,0.0,0.0,0.0,0.0,0.0,0.0,0.0,0.0,0.0,0.0,0.0,0.0,0.0,0.0,0.0,0.0,0.0,0.0,0.0,0.0,0.0,0.0,0.0,0.0,0.0,0.0,0.0,0.0,0.0,0.0,0.0,0.0,0.0,0.0,3.3065,3.5036,3.6393,3.6418,3.7374,3.8015,3.8027,3.7059,3.6167,0.0,0.0,0.0,0.0,0.0,0.0,0.0,0.0,0.0,0.0,0.0,0.0,0.0,0.0,0.0,0.0,0.0,0.0,0.0,0.0,0.0,0.0,0.0,0.0,0.0,0.0,0.0,0.0,0.0,0.0,0.0,0.0,0.0,0.0,0.0,0.0,0.0,0.0,0.0,0.0,0.0,0.0,0.0,0.0,0.0,0.0,0.0,0.0,0.0,0.0,0.0,0.0,0.0,0.0,0.0,0.0,0.0,0.0,0.0,0.0,0.0,0.0,0.0,0.0,0.0,0.0,0.0,0.0,0.0,0.0,0.0,0.0,0.0,0.0,0.0,0.0,0.0,0.0,0.0,0.0,0.0,0.0,0.0,0.0,0.0,0.0,0.0,0.0,0.0,0.0,0.0,0.0,0.0,0.0,0.0,0.0,0.0,0.0,0.0,0.0,0.0,0.0,0.0,3.4628,3.5718,3.6696,3.7449,3.7814,3.8371,3.9253,3.9036,3.8472,3.7541,0.0,0.0,0.0,0.0,0.0,0.0,0.0,0.0,0.0,0.0,0.0,0.0,0.0,0.0,0.0,0.0,0.0,0.0,0.0,0.0,0.0,0.0,0.0,0.0,0.0,0.0,0.0,0.0,0.0,0.0,0.0,0.0,0.0,0.0,0.0,0.0,0.0,0.0,0.0,0.0,0.0,0.0,0.0,0.0,0.0,0.0,0.0,0.0,0.0,0.0,0.0,0.0,0.0,0.0,0.0,0.0,0.0,0.0,0.0,0.0,0.0,0.0,0.0,0.0,0.0,0.0,0.0,0.0,0.0,0.0,0.0,0.0,0.0,0.0,0.0,0.0,0.0,0.0,0.0,0.0,0.0,0.0,0.0,0.0,0.0,0.0,0.0,0.0,0.0,0.0,0.0,0.0,0.0,0.0,0.0,0.0,0.0,0.0,0.0,0.0,0.0,0.0,3.5693,3.721,3.8195,3.8328,3.9471,4.0308,4.0559,4.0834,4.0649,3.9746,0.0,0.0,0.0,0.0,0.0,0.0,0.0,0.0,0.0,0.0,0.0,0.0,0.0,0.0,0.0,0.0,0.0,0.0,0.0,0.0,0.0,0.0,0.0,0.0,0.0,0.0,0.0,0.0,0.0,0.0,0.0,0.0,0.0,0.0,0.0,0.0,0.0,0.0,0.0,0.0,0.0,0.0,0.0,0.0,0.0,0.0,0.0,0.0,0.0,0.0,0.0,0.0,0.0,0.0,0.0,0.0,0.0,0.0,0.0,0.0,0.0,0.0,0.0,0.0,0.0,0.0,0.0,0.0,0.0,0.0,0.0,0.0,0.0,0.0,0.0,0.0,0.0,0.0,0.0,0.0,0.0,0.0,0.0,0.0,0.0,0.0,0.0,0.0,0.0,0.0,0.0,0.0,0.0,0.0,0.0,0.0,0.0,0.0,0.0,0.0,0.0,0.0,3.6657,3.922,4.0554,3.946,4.1836,4.3086,4.2047,4.257,4.2715,4.2109,0.0,0.0,0.0,0.0,0.0,0.0,0.0,0.0,0.0,0.0,0.0,0.0,0.0,0.0,0.0,0.0,0.0,0.0,0.0,0.0,0.0,0.0,0.0,0.0,0.0,0.0,0.0,0.0,0.0,0.0,0.0,0.0,0.0,0.0,0.0,0.0,0.0,0.0,0.0,0.0,0.0,0.0,0.0,0.0,0.0,0.0,0.0,0.0,0.0,0.0,0.0,0.0,0.0,0.0,0.0,0.0,0.0,0.0,0.0,0.0,2.875,0.0,0.0,0.0,0.0,0.0,0.0,0.0,0.0,0.0,0.0,0.0,0.0,0.0,0.0,0.0,0.0,0.0,0.0,0.0,0.0,0.0,0.0,0.0,0.0,0.0,0.0,0.0,0.0,0.0,0.0,0.0,0.0,0.0,0.0,0.0,0.0,0.0,0.0,0.0,0.0,0.0,3.9083,4.0999,4.2352,4.2493,4.31,4.3799,4.4523,4.4721,4.4601,4.4032,4.4117,0.0,0.0,0.0,0.0,0.0,0.0,0.0,0.0,0.0,0.0,0.0,0.0,0.0,0.0,0.0,0.0,0.0,0.0,0.0,0.0,0.0,0.0,0.0,0.0,0.0,0.0,0.0,0.0,0.0,0.0,0.0,0.0,0.0,0.0,0.0,0.0,0.0,0.0,0.0,0.0,0.0,0.0,0.0,0.0,0.0,0.0,0.0,0.0,0.0,0.0,0.0,0.0,0.0,0.0,0.0,0.0,0.0,0.0,0.0,0.0,2.9377,0.0,0.0,0.0,0.0,0.0,0.0,0.0,0.0,0.0,0.0,0.0,0.0,0.0,0.0,0.0,0.0,0.0,0.0,0.0,0.0,0.0,0.0,0.0,0.0,0.0,0.0,0.0,0.0,0.0,0.0,0.0,0.0,0.0,0.0,0.0,0.0,0.0,0.0,0.0,0.0,4.0781,4.2932,4.4465,4.4461,4.5569,4.6322,4.6368,4.6925,4.7012,4.6429,4.6291,0.0,0.0,0.0,0.0,0.0,0.0,0.0,0.0,0.0,0.0,0.0,0.0,0.0,0.0,0.0,0.0,0.0,0.0,0.0,0.0,0.0,0.0,0.0,0.0,0.0,0.0,0.0,0.0,0.0,0.0,0.0,0.0,0.0,0.0,0.0,0.0,0.0,0.0,0.0,0.0,0.0,0.0,0.0,0.0,0.0,0.0,0.0,0.0,0.0,0.0,0.0,0.0,0.0,3.2775,3.3175,3.299,3.3907,3.4229,3.3972,3.3248,3.2327,3.1321,0.0,0.0,0.0,0.0,0.0,0.0,0.0,0.0,0.0,0.0,0.0,0.0,0.0,0.0,0.0,0.0,0.0,0.0,0.0,0.0,0.0,0.0,0.0,0.0,0.0,4.0523,4.0946,0.0,0.0,0.0,0.0,0.0,0.0,0.0,0.0,0.0,0.0,0.0,0.0,4.2733,4.5253,4.6857,4.6365,4.8296,4.9218,4.8155,4.8928,4.9206,4.8667,4.7997,4.704,0.0,0.0,0.0,0.0,0.0,0.0,0.0,0.0,0.0,0.0,0.0,0.0,0.0,0.0,0.0,0.0,0.0,0.0,0.0,0.0,0.0,0.0,0.0,0.0,0.0,0.0,0.0,0.0,0.0,0.0,0.0,0.0,2.2483,2.4164,0.0,0.0,0.0,0.0,0.0,0.0,0.0,0.0,0.0,0.0,0.0,0.0,0.0,3.2802,3.1662,3.443,3.4811,3.291,3.6061,3.7039,3.6086,3.8265,3.8662,3.7655,3.864,0.0,3.4252,3.4252,0.0,0.0,0.0,0.0,0.0,0.0,0.0,0.0,0.0,0.0,0.0,0.0,0.0,0.0,0.0,0.0,0.0,0.0,0.0,0.0,0.0,0.0,4.3597,4.3525,4.4131,4.462,0.0,4.1833,3.9688,3.9538,0.0,0.0,0.0,0.0,0.0,0.0,0.0,0.0,4.6573,4.8448,4.968,4.9589,5.0403,5.089,5.0708,5.0306,5.0028,4.9968,4.9374,4.8438,4.71,4.6879,0.0,0.0,0.0,0.0,0.0,0.0,0.0,0.0,0.0,0.0,0.0,0.0,0.0,0.0,0.0,0.0,0.0,0.0,0.0,0.0,0.0,0.0,0.0,0.0,0.0,0.0,0.0,0.0,0.0,2.3042,2.4315,2.6013,2.6214,2.6515,0.0,0.0,0.0,0.0,0.0,0.0,0.0,0.0,0.0,3.2959,3.5227,3.6225,3.57,3.7631,3.8116,3.7123,3.8958,3.9564,3.9131,4.0476,4.0785,4.0307,4.0852,4.0578,3.9633,3.8359,3.7842,3.7842,0.0,0.0,0.0,0.0,3.7399,3.7538,3.8642,3.9012,0.0,3.941,0.0,0.0,0.0,0.0,0.0,0.0,0.0,0.0,0.0,0.0,0.0,4.5982,4.6781,4.754,4.754,4.6369,4.4795,0.0,4.3106,4.3612,4.401,0.0,0.0,0.0,0.0,4.8512,4.8485,5.0141,5.1457,5.1846,5.2157,5.2306,5.2306,5.2067,5.1726,5.1367,5.072,4.9942,4.8962,4.7867,4.689,0.0,0.0,0.0,0.0,0.0,0.0,0.0,0.0,0.0,0.0,0.0,0.0,0.0,0.0,0.0,0.0,0.0,0.0,0.0,0.0,0.0,0.0,0.0,0.0,0.0,0.0,0.0,0.0,2.5109,2.6054,2.7738,2.793,2.8206,0.0,0.0,0.0,0.0,0.0,0.0,3.3783,3.5374,3.6258,3.6176,3.8346,3.9371,3.9079,4.0693,4.1208,4.0634,4.1785,4.229,4.2177,4.307,4.3381,4.3249,4.3579,4.4036,4.4385,4.2031,4.1068,4.1068,4.1068,4.0884,4.0611,4.0515,4.0463,4.0612,4.1682,4.203,4.2107,4.2563,0.0,4.2717,4.2892,0.0,0.0,0.0,0.0,4.5515,4.5156,4.6531,4.8046,4.8046,4.8936,4.9786,4.9786,4.9786,4.901,0.0,4.6267,4.6787,4.7351,0.0,0.0,0.0,0.0,5.0679,5.0564,5.1983,5.3204,5.3887,5.4127,5.4216,5.4216,5.4067,5.3665,5.2995,5.2324,5.1594,5.0757,4.9153,4.8226,4.8046,0.0,0.0,0.0,0.0,0.0,0.0,0.0,0.0,0.0,0.0,0.0,0.0,0.0,0.0,0.0,0.0,0.0,0.0,0.0,0.0,0.0,0.0,0.0,0.0,0.0,0.0,0.0,0.0,0.0,2.9487,2.9654,0.0,0.0,0.0,0.0,3.3794,3.5397,3.6893,3.8016,3.8213,3.8773,3.9895,4.1586,4.196,4.0868,4.3661,4.3918,4.1751,4.4661,4.5773,4.5346,4.714,4.7666,4.7182,4.8404,4.826,4.702,4.4471,4.3441,4.3441,4.3441,4.2716,4.1864,4.2991,4.3383,4.3535,4.4688,4.5093,4.5093,4.5112,4.5112,4.5232,4.5868,4.6567,0.0,0.0,4.848,4.9037,4.9011,4.9538,5.0058,5.0058,5.0578,5.1098,5.1098,5.1098,5.0697,0.0,4.9564,4.9966,5.0007,0.0,5.1225,5.1864,5.2031,5.2552,5.3806,5.4603,5.5311,5.5983,5.6568,5.6898,5.6898,5.6359,5.576,5.5102,5.4431,5.3461,5.2157,5.1397,5.0697,5.0058,4.8775,0.0,0.0,0.0,0.0,0.0,0.0,0.0,0.0,0.0,0.0,0.0,0.0,0.0,0.0,0.0,0.0,0.0,0.0,0.0,0.0,0.0,0.0,0.0,0.0,0.0,0.0,0.0,0.0,3.1163,3.2033,0.0,3.4009,3.5749,3.6842,3.6842,3.8764,3.9963,4.0071,4.1436,4.2245,4.2388,4.4113,4.5033,4.5047,4.6505,4.7039,4.6648,4.7715,4.8138,4.7969,4.863,4.8824,4.8668,4.9521,4.9631,4.9161,4.8693,4.7994,4.7266,4.7266,4.7014,4.6681,4.7092,4.7266,4.7333,4.7738,4.787,4.787,4.787,4.787,4.7978,4.8633,4.8981,4.9321,4.9991,5.0331,5.0511,5.0511,5.1008,5.1606,5.2037,5.2623,5.3252,5.3683,5.3773,5.3623,5.3186,5.2217,5.1756,5.2611,5.2982,5.3341,5.4012,5.4503,5.4965,5.5431,5.603,5.6509,5.6748,5.6987,5.7094,5.7094,5.6898,5.6688,5.6449,5.582,5.5072,5.4174,5.3054,5.2187,5.1487,5.0619,4.9722,0.0,0.0,0.0,0.0,0.0,0.0,0.0,0.0,0.0,0.0,0.0,0.0,0.0,0.0,0.0,0.0,0.0,0.0,0.0,0.0,0.0,0.0,0.0,0.0,0.0,3.0882,3.2205,3.3457,3.4708,3.5841,3.6732,3.8682,3.9867,3.9856,4.178,4.2918,4.2806,4.4383,4.5268,4.5201,4.6583,4.7519,4.7978,4.8626,4.9164,4.9625,4.9834,5.0055,5.0265,5.0265,5.0384,5.0624,5.1038,5.1206,5.1236,5.1696,5.139,5.0564,5.0115,4.9924,4.9924,4.9924,4.9924,4.9924,4.9924,4.9924,4.9924,4.9924,4.9924,5.0074,5.0679,5.1026,5.1355,5.2013,5.2384,5.2534,5.2534,5.3054,5.3665,5.4127,5.4713,5.5359,5.6047,5.6166,5.6256,5.6466,5.4922,5.3845,5.473,5.5029,5.5418,5.6077,5.6555,5.6987,5.745,5.7855,5.8215,5.8441,5.8441,5.8441,5.8441,5.8441,5.8351,5.8125,5.7526,5.6868,5.6226,5.4922,5.3994,5.3575,5.2456,5.1666,5.1206,0.0,0.0,0.0,0.0,0.0,0.0,0.0,0.0,0.0,0.0,0.0,0.0,0.0,0.0,0.0,0.0,0.0,0.0,0.0,0.0,0.0,0.0,0.0,3.3058,3.4483,3.5901,3.6446,3.7714,3.8751,3.9305,4.1528,4.2897,4.2836,4.4435,4.5693,4.636,4.6999,4.7668,4.8338,4.8977,4.9348,4.9378,4.9961,5.0267,5.0297,5.0936,5.1606,5.2247,5.2247,5.2636,5.3258,5.3288,5.3276,5.3288,5.3306,5.3318,5.3186,5.1786,5.1265,5.1265,5.1265,5.1277,5.1307,5.1325,5.1325,5.1325,5.1325,5.1325,5.1457,5.2127,5.2797,5.3426,5.4089,5.476,5.5281,5.5281,5.579,5.6282,5.6312,5.6778,5.7363,5.8068,5.8175,5.8397,5.9039,5.7646,5.6342,5.6342,5.6808,5.7423,5.8085,5.8175,0.0,5.9951,6.013,6.04,6.103,6.109,6.109,6.109,6.109,6.0821,6.016,5.9518,5.8846,5.8175,5.6987,5.6312,5.6252,5.4336,5.3318,5.3276,0.0,0.0,0.0,0.0,0.0,0.0,0.0,0.0,0.0,0.0,0.0,0.0,0.0,0.0,0.0,0.0,0.0,0.0,0.0,0.0,0.0,3.6361,3.6533,3.504,3.6459,3.7968,3.8902,4.049,4.188,4.2817,4.4374,4.552,4.6005,4.6919,4.778,4.8438,4.8648,4.9056,4.965,4.986,5.041,5.1379,5.1588,5.1876,5.2366,5.2558,5.2995,5.3653,5.3653,5.4012,5.4683,5.5174,5.5384,5.5414,5.585,5.603,5.579,5.3545,5.2648,5.2648,5.2648,5.2965,5.3431,5.3922,5.4102,5.4102,5.4102,5.4102,5.4234,5.4892,5.5234,5.5504,5.6119,5.6795,5.729,5.729,5.7812,5.8424,5.8903,5.9142,5.9458,6.0133,6.0282,6.0342,6.0521,6.0116,5.9608,5.9113,5.9172,5.9488,6.0162,6.0282,0.0,6.0775,6.0835,6.088,6.109,6.109,6.109,6.109,6.109,6.103,6.0835,6.0641,6.0252,5.9578,5.9202,5.8574,5.759,5.6555,5.582,0.0,0.0,0.0,0.0,0.0,0.0,0.0,0.0,0.0,0.0,0.0,0.0,0.0,0.0,0.0,0.0,0.0,0.0,0.0,0.0,0.0,0.0,3.9138,3.971,3.9294,3.9944,4.079,4.1684,4.3231,4.4567,4.5481,4.652,4.7429,4.8098,4.8498,4.9007,4.9643,4.9954,5.0391,5.1026,5.1295,5.1828,5.2618,5.3186,5.3665,5.4054,5.4593,5.5042,5.5406,5.5406,5.5628,0.0,5.6419,5.6568,5.6598,5.6958,5.7094,0.0,0.0,0.0,0.0,0.0,5.5072,5.5478,5.5867,5.6,5.606,5.6316,5.6393,5.6555,5.7197,5.7629,5.7929,5.8274,5.883,5.9355,5.9355,5.9654,6.0057,6.0416,6.0505,6.0685,6.1359,6.1509,6.1613,6.1882,6.1942,0.0,6.1417,6.0878,6.0745,6.1433,6.1509,6.1598,6.1912,6.1942,6.1942,6.1942,6.1942,6.1942,6.1942,6.1942,0.0,0.0,0.0,6.1224,6.0535,6.0505,0.0,0.0,0.0,0.0,0.0,0.0,0.0,0.0,5.2875,5.2276,0.0,0.0,0.0,0.0,0.0,0.0,0.0,0.0,0.0,0.0,0.0,0.0,0.0,0.0,0.0,0.0,4.1627,4.305,4.4337,4.4087,4.3957,4.4566,4.5762,4.679,4.7459,4.8068,4.8708,4.9456,4.9516,4.9804,5.0506,0.0,0.0,0.0,0.0,5.3486,5.3648,5.4832,5.5401,5.5431,5.6555,5.7124,5.7214,5.7214,5.7304,5.7436,5.7436,5.7483,5.7543,5.7543,5.7543,5.7526,5.7304,5.7214,5.7244,5.7363,5.7436,5.7466,5.7513,0.0,0.0,5.8234,5.8444,5.8547,5.9145,5.9727,6.022,6.022,6.0685,6.121,6.121,6.1269,6.1329,6.1329,6.1329,6.1493,6.2091,6.2211,6.2405,6.2974,6.3108,6.3108,6.3108,6.2121,6.1523,6.2121,6.2211,6.2435,6.3003,6.3108,6.3108,6.3108,0.0,0.0,6.3108,6.3108,6.3108,6.3108,6.2555,6.1942,6.1359,6.1329,6.1299,6.121,6.0639,6.028,6.022,5.9608,5.9338,5.9279,5.6795,5.5641,0.0,0.0,0.0,0.0,0.0,0.0,0.0,0.0,0.0,0.0,0.0,0.0,0.0,0.0,0.0,4.2436,4.3389,4.4396,4.5732,4.6281,4.658,4.67,4.7429,4.8188,4.8858,4.9048,4.9606,5.075,5.0828,5.1349,5.2558,5.2737,5.3366,5.4593,5.4743,5.5311,5.6329,5.6585,5.6735,5.6748,0.0,0.0,5.7919,5.7919,5.8501,5.9532,5.9532,5.9817,6.0312,6.0312,6.0312,6.0162,5.8547,5.7919,5.8038,5.9129,5.9532,5.9591,6.0146,6.0312,6.0342,6.0492,6.0521,6.0551,6.0671,6.0791,0.0,6.091,6.1403,6.1912,6.1912,6.2301,6.2704,6.2704,6.2704,6.2734,6.2884,6.2914,6.2944,6.3063,6.3108,6.3108,6.3108,6.2884,6.2764,6.2884,6.2914,6.2944,6.3063,6.3108,6.3108,6.3108,6.3108,6.3108,6.3108,6.3108,6.3108,6.3108,6.2988,6.2854,6.2704,6.2704,6.2465,6.1912,6.1762,6.1463,6.091,6.0761,6.0701,6.0671,5.9099,5.8351,0.0,0.0,0.0,0.0,0.0,0.0,0.0,0.0,0.0,0.0,0.0,3.9488,4.044,0.0,4.3269,4.4585,4.5064,4.5762,4.7119,4.7578,4.7788,4.7788,4.8409,4.9187,5.0163,5.0253,5.078,5.2097,5.2187,5.2797,5.4114,5.4204,5.4803,5.6107,5.6149,5.6479,5.7107,5.7423,5.759,5.762,5.8261,5.877,5.9129,5.9444,5.9953,6.0595,6.0595,6.0805,6.109,6.109,6.109,6.103,6.0342,5.9893,5.967,6.0356,6.0595,6.0655,6.097,6.109,6.115,6.1493,6.1613,6.1672,6.2002,6.2091,6.2091,6.2091,6.2345,6.2614,6.2614,6.2854,6.3108,6.3108,6.3108,6.3108,6.3108,6.3333,6.3542,6.3542,6.3827,6.4066,6.4066,6.4066,6.3827,6.3183,6.3108,6.3213,6.3512,6.3542,6.3677,6.4006,6.4066,6.4066,6.4066,6.4066,6.4066,6.4066,6.4066,6.4066,6.4066,6.4066,6.3887,6.3573,6.3543,6.3393,6.305,6.305,6.305,6.3034,6.2362,6.1359,0.0,0.0,0.0,0.0,0.0,0.0,0.0,3.5215,3.6384,3.7357,3.9809,4.187,4.2233,4.3597,4.5074,4.63,4.66,4.7119,4.8308,4.8697,4.8865,4.8865,4.9325,5.0163,5.1457,5.1576,5.2157,5.3486,5.3588,5.4174,5.5491,5.5581,5.6119,5.7244,5.7304,5.7423,5.7676,5.8218,5.8547,5.8683,5.9787,6.028,6.031,6.0851,6.118,6.1299,6.1419,6.1493,6.1493,6.1493,6.1493,6.1553,6.2091,6.1972,6.1493,6.1493,6.1493,6.1493,6.1493,6.1493,6.1583,6.2135,6.2301,6.2405,6.2944,6.3108,6.3108,6.3108,6.3108,6.3108,6.3108,6.3183,6.3273,6.3273,6.3363,6.3482,6.3482,6.3857,6.4186,6.4186,6.462,6.4994,6.4994,6.4994,6.465,6.3617,6.3482,6.3647,6.4126,6.4186,6.4411,6.4934,6.4994,6.4994,6.4994,6.4994,6.4994,6.4994,6.4994,6.4994,6.4994,6.4994,6.4994,6.4994,6.4994,6.4994,6.4994,6.4994,6.4994,6.4994,6.4994,6.3858,3.1356,3.2863,3.402,3.4037,3.459,3.5732,0.0,3.8632,3.9189,4.131,4.2435,4.327,4.3926,4.5151,4.633,4.7059,4.7698,4.8338,4.9067,5.0152,5.0888,5.0888,5.0948,5.1528,5.2857,5.2977,5.3516,5.4892,5.4982,5.5551,5.6838,5.6898,5.7244,5.7965,5.7995,5.8547,5.9741,5.9831,6.0176,6.0761,6.091,6.1,6.1,6.106,6.1419,6.2032,6.2614,6.2884,6.2884,6.2884,6.2884,6.2884,6.2944,6.2944,6.2884,6.2884,6.2884,6.2884,6.2884,6.2884,6.2884,6.2944,6.2988,6.3003,6.3078,6.3108,6.3108,6.3108,6.3108,6.3108,6.3108,6.3512,6.3887,6.3887,6.4351,6.48,6.48,6.4845,6.4874,6.4874,6.4934,6.4994,6.4994,6.4994,6.4964,6.4815,6.48,6.4815,6.4874,6.4874,6.4904,6.4994,6.4994,6.4994,6.4994,6.4994,6.4994,6.4994,6.4994,6.4994,6.4994,6.4994,6.4994,6.4994,6.4994,6.4994,6.4994,6.4994,6.4994,6.4994,6.4994,6.4845,3.4076,3.4965,3.5668,3.625,3.693,3.7958,3.9799,4.043,4.1188,4.312,4.4337,4.5134,4.5403,4.655,4.7549,4.7859,4.8427,4.9247,5.0253,5.0858,5.1624,5.2803,5.3282,5.3593,5.3773,5.4132,5.4773,5.57,5.6119,5.6705,5.762,5.7679,5.7979,5.8667,5.9069,5.9518,6.01,6.0475,6.0821,6.109,6.1479,6.1672,6.1702,6.2091,6.2435,6.2704,6.2988,6.3108,6.3108,6.3108,6.3108,6.3108,6.3108,6.3108,6.3108,6.3108,6.3108,6.3108,6.3108,6.3108,6.3108,6.3108,6.3108,6.3108,6.3108,6.3333,6.3617,6.3617,6.3887,6.4216,6.4216,6.4381,6.459,6.459,6.4785,6.4994,6.4994,6.5293,6.5577,6.5577,6.5906,6.6161,6.6161,6.6161,6.6161,6.6161,6.5518,6.5144,6.5547,6.5577,6.5727,6.6116,6.6161,6.6161,6.6161,6.6161,6.6161,6.6161,6.6161,6.6161,6.6161,6.6161,6.634,6.6729,6.6759,6.6939,6.7313,6.7313,6.7313,6.7313,6.7313,6.7313,3.6285,3.6997,3.7782,3.8466,3.9354,4.0382,4.1502,4.2281,4.316,4.4552,4.5613,4.642,4.6779,4.7638,4.8427,4.8775,4.9385,5.0223,5.1307,5.1786,5.2623,5.4269,5.5072,5.5341,5.5017,5.5448,5.6,5.6658,5.7124,5.7663,5.8338,5.8547,5.8876,5.9368,6.0027,6.0446,6.0639,6.1134,6.1463,6.1672,6.2151,6.2375,6.2405,6.2884,6.3108,6.3108,6.3108,6.3108,6.3108,6.3108,6.3108,6.3108,6.3108,6.3108,6.3108,6.3108,6.3108,6.3108,6.3108,6.3108,6.3138,6.3273,6.3333,6.3393,6.3572,6.3917,6.4276,6.4276,6.462,6.4994,6.4994,6.5144,6.5278,6.5278,6.5428,6.5547,6.5547,6.5936,6.6281,6.6281,6.6835,6.7284,6.7284,6.7433,6.7537,6.7537,6.6714,6.6206,6.652,6.6729,6.7029,6.7508,6.7537,6.7537,6.7537,6.7537,6.7537,6.7537,6.7537,6.7537,6.7537,6.7537,6.7792,6.8271,6.8271,6.8511,6.9004,6.9004,6.9004,6.9004,6.9004,6.9004,3.763,3.9265,4.1158,4.0797,4.2009,4.3409,4.4057,4.4714,4.5393,4.6081,4.626,4.6689,4.8008,4.8278,4.8686,4.9938,5.0697,5.1367,5.2067,5.3282,5.4359,5.5102,5.576,5.6402,5.6958,5.7047,5.7334,5.7995,5.8055,5.8367,5.9026,5.9681,6.004,6.007,6.0715,6.1359,6.2032,6.2061,6.2405,6.3048,6.3063,6.3063,6.3063,6.3108,6.3108,6.3108,6.3108,6.3108,6.3108,6.3108,6.3108,6.3108,6.3108,6.3108,6.3108,6.3108,6.3108,6.3108,6.3108,6.3108,6.3183,6.3767,6.3977,6.4096,6.474,6.4964,6.4964,6.4964,6.4994,6.4994,6.4994,6.5473,6.5966,6.5966,6.646,6.6954,6.6954,6.6954,6.6969,6.6969,6.7493,6.7987,6.7987,6.8511,6.8944,6.8944,6.8914,6.8645,6.8017,6.8511,6.8914,6.8944,6.8944,6.8944,6.8944,6.8944,6.8944,6.8944,6.8944,6.8944,6.8944,6.8944,6.8944,6.8974,6.8974,6.8974,6.9004,6.9004,6.9004,6.9004,6.9004,6.9004,4.1083,4.1737,4.2344,4.2955,4.3894,4.4825,4.5463,4.5792,4.6151,4.682,4.7309,4.7758,4.8218,4.8974,4.971,5.0147,5.1146,5.2097,5.2767,5.3623,5.461,5.5743,5.6432,5.7034,5.7709,5.7769,5.7859,5.8085,5.8517,5.9069,5.9741,5.998,6.031,6.0745,6.1403,6.1882,6.2091,6.2555,6.2884,6.3108,6.3108,6.3108,6.3108,6.3108,6.3108,6.3108,6.3108,6.3108,6.3108,6.3108,6.3108,6.3123,6.3542,6.3692,6.3737,6.4216,6.4351,6.4291,6.3857,6.3977,6.4381,6.459,6.468,6.471,6.4934,6.5293,6.5667,6.5667,6.5966,6.634,6.634,6.649,6.667,6.667,6.7194,6.7643,6.7643,6.8032,6.8315,6.8315,6.8511,6.8645,6.8645,6.8854,6.9004,6.9004,6.9004,6.8914,6.869,6.8854,6.9004,6.9004,6.9004,6.9004,6.9004,6.9004,6.9004,6.9004,6.9004,6.9004,6.9004,6.9004,6.9213,6.9648,6.9678,6.9842,7.026,7.026,7.05,7.0935,7.0935,7.1158,4.3329,4.3599,4.3797,4.4759,4.5354,4.5832,4.6491,4.6659,4.679,4.7209,4.7818,4.8368,4.8618,4.9512,5.0357,5.0847,5.1858,5.2797,5.3456,5.4341,5.5299,5.6389,5.7077,5.7709,5.8397,5.8667,5.8816,5.8816,5.9219,5.9757,6.0416,6.0699,6.1014,6.1419,6.2121,6.2465,6.2465,6.2884,6.3108,6.3108,6.3108,6.3108,6.3108,6.3108,6.3108,6.3108,6.3108,6.3108,6.3108,6.3333,6.3422,6.3482,6.4126,6.4351,6.4411,6.4845,6.5144,6.5278,6.459,6.465,6.5024,6.5278,6.5353,6.5398,6.5637,6.6011,6.637,6.637,6.6819,6.7373,6.7373,6.7553,6.7717,6.7717,6.8032,6.8361,6.8361,6.872,6.9004,6.9004,6.9183,6.9363,6.9363,6.9542,6.9692,6.9692,6.9692,6.9602,6.9393,6.9542,6.9692,6.9692,6.9692,6.9692,6.9692,6.9692,6.9692,6.9692,6.9692,6.9692,6.9692,6.9901,7.0247,7.0666,7.0905,7.1218,7.1591,7.1591,7.1846,7.2265,7.2265,7.2505,4.4426,4.4875,4.5514,4.6181,4.636,4.651,4.7149,4.7309,4.7309,4.7309,4.7848,4.8558,4.9187,4.9811,5.0697,5.2007,5.2767,5.3426,5.4119,5.5341,5.6432,5.7047,5.7679,5.8367,5.9026,5.9697,6.01,6.016,6.016,6.0446,6.112,6.1762,6.2135,6.2151,6.2764,6.3108,6.3108,6.3108,6.3108,6.3108,6.3108,6.3108,6.3108,6.3108,6.3108,6.3108,6.3123,6.3168,6.3183,6.3797,6.4066,6.4126,6.48,6.5054,6.5054,6.5084,6.5518,6.5966,6.5323,6.5084,6.5203,6.5847,6.6056,6.6191,6.6849,6.7044,6.7074,6.7089,6.7553,6.8047,6.8047,6.8511,6.9004,6.9004,6.9034,6.9064,6.9064,6.9064,6.9093,6.9093,6.9618,7.0037,7.0037,7.05,7.0919,7.0949,7.0949,7.0739,7.0127,7.056,7.0889,7.0889,7.0919,7.0949,7.0949,7.0979,7.1009,7.1009,7.1009,7.1009,7.1009,7.1607,7.1953,7.1953,7.2595,7.2907,7.2907,7.2907,7.2907,7.2937,7.2937,7.2967,4.6132,4.6311,4.6221,4.6879,4.7059,4.7089,4.7268,4.7309,4.7309,4.7309,4.8218,4.9108,4.9258,5.0212,5.1206,5.2067,5.2767,5.3426,5.4119,5.5341,5.6432,5.7047,5.7679,5.8367,5.9026,5.9697,6.031,6.0791,6.0864,6.1134,6.1822,6.2002,6.2345,6.2824,6.3003,6.3108,6.3108,6.3108,6.3108,6.3108,6.3108,6.3108,6.3108,6.3108,6.3108,6.3138,6.3572,6.3767,6.3827,6.447,6.474,6.4815,6.5488,6.5757,6.5817,6.6311,6.661,6.6729,6.655,6.649,6.652,6.67,6.6759,6.6879,6.7523,6.7748,6.7852,6.8345,6.8615,6.875,6.875,6.8854,6.9004,6.9004,6.9363,6.9738,6.9738,7.0081,7.041,7.041,7.056,7.0679,7.0679,7.0799,7.1068,7.1577,7.1653,7.1414,7.0739,7.0799,7.0889,7.0889,7.1338,7.1653,7.1653,7.2116,7.2398,7.2398,7.2398,7.2398,7.2398,7.2548,7.2654,7.2654,7.2817,7.2907,7.2907,7.2907,7.3146,7.3642,7.3642,7.3911,4.6461,4.679,4.682,4.7219,4.7309,4.7309,4.7309,4.7309,4.7309,4.7309,4.8128,4.8947,4.9258,5.0092,5.1176,5.2426,5.2947,5.3545,5.4491,5.576,5.6718,5.7077,5.7949,5.8786,5.9458,6.0146,6.0805,6.1493,6.1553,6.1822,6.2495,6.2555,6.2704,6.3108,6.3108,6.3108,6.3108,6.3108,6.3108,6.3108,6.3108,6.3108,6.3108,6.3363,6.3482,6.3542,0.0,6.4441,6.45,6.5159,6.5458,6.5518,6.6191,6.643,6.649,6.6849,6.7194,6.7433,6.7433,6.7643,6.7852,6.7523,6.7433,6.7553,6.8241,6.8451,6.8511,6.8884,6.9213,6.9439,6.9439,6.9632,6.9842,6.9842,7.0111,7.038,7.038,7.0649,7.0979,7.1278,7.1338,7.1427,7.1727,7.177,7.1906,7.2265,7.2325,7.2206,7.1846,7.177,7.177,7.177,7.2116,7.2325,7.2325,7.2668,7.2907,7.2907,7.2907,7.2907,7.2907,7.3176,7.3343,7.3343,7.3642,7.3762,7.3762,7.3762,7.3971,7.4347,7.4347,7.4527,4.6221,4.685,4.7309,4.7309,4.7309,4.7309,4.7309,4.7309,4.7309,4.7309,4.7818,4.8468,4.9067,4.9722,5.0817,5.2648,5.3067,5.3648,5.4892,5.6226,5.7094,5.7094,5.8291,5.9368,6.004,6.0715,6.1359,6.2061,6.2181,6.2495,6.3063,6.3108,6.3108,6.3108,6.3108,6.3108,6.3108,6.3108,6.3108,6.3108,6.3108,6.3123,6.3257,6.3767,6.4036,6.4186,6.4859,0.0,6.5174,6.5847,6.6116,6.6191,6.6759,6.7044,6.7134,6.7134,6.7553,6.8137,6.8137,6.8511,6.8884,6.8331,6.8137,6.8241,6.8914,6.9123,6.9153,6.9243,6.9662,7.0127,7.0127,7.05,7.0889,7.0889,7.0889,7.0919,7.1009,7.1098,7.1338,7.1923,7.2042,7.2206,7.2787,7.2907,7.2937,7.3027,7.3027,7.3057,7.3146,7.2997,7.2907,7.2907,7.2967,7.3027,7.3027,7.3116,7.3163,7.3163,7.3163,7.3163,7.3163,7.3732,7.4031,7.4031,7.4587,7.4886,7.4886,7.4886,7.4886,7.4886,7.4886,7.4886,4.679,4.7209,4.7309,4.7309,4.7309,4.7309,4.7309,4.7309,4.7309,4.7309,4.7818,4.8338,4.8468,4.9422,5.0506,5.1397,5.2498,5.3456,5.4251,5.5957,5.7094,5.7094,5.8291,5.9368,6.004,6.0715,6.1359,6.2061,6.2614,6.2988,6.3093,6.3108,6.3108,6.3108,6.3108,6.3108,6.3108,6.3108,6.3108,6.3108,6.3108,6.3363,6.3842,6.3947,6.4291,6.4845,6.5547,0.0,6.5877,6.655,6.6835,6.6819,6.6954,6.7343,6.7838,6.7838,6.8241,6.8824,6.8824,6.8884,6.8974,6.8854,6.8824,6.8944,6.9618,6.9828,6.9917,7.044,7.0649,7.0739,7.0739,7.0829,7.0889,7.0889,7.0889,7.1038,7.1623,7.2146,7.2578,7.2698,7.2744,7.2757,7.2877,7.2907,7.3086,7.3642,7.3732,7.3911,7.4497,7.3582,7.2907,7.2907,7.3402,7.3732,7.3732,7.421,7.4557,7.4557,7.4557,7.4557,7.4557,7.4646,7.4736,7.4736,7.4826,7.4886,7.4886,7.4886,7.4886,7.4886,7.4886,7.4886,4.695,4.7309,4.7309,4.7309,4.7309,4.7309,4.7309,4.7309,4.7309,4.7309,4.7549,4.7889,4.8248,4.9086,5.0051,5.1038,5.2336,5.3426,5.4119,5.5867,5.7094,5.7094,5.859,5.9877,6.0565,6.1224,6.1912,6.2584,6.2928,6.3108,6.3108,6.3108,6.3108,6.3108,6.3108,6.3108,6.3108,6.3108,6.3243,6.3572,6.3572,6.3887,6.453,6.4889,6.5233,6.5577,6.6221,0.0,6.655,6.6864,6.7014,6.7029,6.7373,6.7718,6.8047,6.8391,6.896,6.9512,6.9467,6.9722,6.9991,6.9991,6.9782,6.9632,7.0277,7.047,7.053,7.0829,7.0889,7.0889,7.0889,7.0889,7.0979,7.1338,7.1697,7.2009,7.2355,7.2668,7.2997,7.3343,7.3432,7.3522,7.3881,7.3941,7.4031,7.4377,7.4437,7.4527,7.4856,7.4347,7.3941,7.3941,7.4227,7.4437,7.4437,7.4706,7.4886,7.4886,7.4886,7.4886,7.4886,7.4886,7.4886,7.4886,7.4886,7.4886,7.4886,7.4886,7.4886,7.4886,7.4886,7.4886,4.676,4.7179,4.7309,4.7309,4.7309,4.7309,4.7309,4.7309,4.7309,4.7309,4.7309,4.7459,4.7978,4.8648,4.9456,5.0601,5.2019,5.3216,5.3892,5.5777,5.7094,5.7094,5.8873,6.0356,6.103,6.1702,6.2375,6.3048,6.3108,6.3108,6.3108,6.3108,6.3108,6.3108,6.3108,6.3108,6.3108,6.3227,6.3542,6.4006,6.4156,6.456,6.5233,6.5757,6.6071,6.6251,6.6759,0.0,0.0,6.7164,6.7224,6.7284,6.7942,6.8317,6.8496,6.9004,6.9648,7.0187,7.0125,7.0454,7.0889,7.0889,7.056,7.0277,7.0769,7.0889,7.0889,7.0889,7.1009,7.1098,7.1098,7.1218,7.1457,7.2013,7.2624,7.3116,7.3116,7.3223,7.3492,7.4001,7.4091,7.4287,7.4796,7.4886,7.4886,7.4886,7.4886,7.4886,7.4886,7.4886,7.4886,7.4886,7.4886,7.4886,7.4886,7.4886,7.4886,7.4886,7.4886,7.4886,7.4886,7.4886,7.4886,7.4886,7.4886,7.4886,7.4886,7.4886,7.4886,7.4886,7.4886,7.4886,4.6181,4.685,4.7309,4.7309,4.7309,4.7309,4.7309,4.7309,4.7309,4.7309,4.7309,4.7328,4.7369,4.7948,4.8648,4.9378,5.1061,5.2528,5.3186,5.5491,5.7094,5.7094,5.8873,6.0356,6.103,6.1702,6.2375,6.3048,6.3108,6.3108,6.3108,6.3108,6.3108,6.3108,6.3108,6.3108,6.3108,6.3632,6.3947,6.4006,6.462,6.5278,6.5906,6.5966,6.634,6.6909,6.6969,0.0,0.0,6.7643,6.7928,6.7972,6.866,6.9289,6.9828,6.9887,7.029,7.0829,7.0829,7.0859,7.0889,7.0889,7.0859,7.0829,7.0889,7.0889,7.0889,7.0889,7.1338,7.1803,7.1803,7.2265,7.2727,7.2787,7.3313,7.3821,7.3821,7.4287,7.4736,7.4796,7.4796,7.4826,7.4886,7.4886,7.4886,7.4886,7.4886,7.4886,7.4886,7.4886,7.4886,7.4886,7.4886,7.4886,7.4886,7.4886,7.4886,7.4886,7.4886,7.4886,7.4886,7.4886,7.4886,7.4886,7.4886,7.4886,7.4886,7.4886,7.4886,7.4886,7.4886,7.4886,4.6121,4.679,4.7309,4.7309,4.7309,4.7309,4.7309,4.7309,4.7309,4.7309,4.7309,4.7309,4.7309,4.7848,4.8517,4.9198,5.0942,5.2426,5.3109,5.5461,5.7094,5.7094,5.9219,6.0791,6.106,6.2061,6.2794,6.3078,6.3108,6.3108,6.3108,6.3108,6.3108,6.3108,6.3108,6.3273,6.3632,6.3887,6.4395,6.5203,6.5458,6.5936,6.661,6.661,6.6759,6.7014,6.7014,0.0,0.0,6.7898,6.8257,6.866,6.9349,6.9768,7.0037,7.0426,7.0679,7.0889,7.0889,7.0889,7.0889,7.0889,7.0889,7.0889,7.0889,7.1188,7.1487,7.1487,7.1966,7.2505,7.2505,7.3013,7.3492,7.3492,7.4001,7.4497,7.4497,7.4706,7.4886,7.4886,7.4886,7.4886,7.4886,7.4886,7.4886,7.4886,7.4886,7.4886,7.4886,7.4886,7.4886,7.4886,7.4886,7.4886,7.4886,7.4886,7.4886,7.4886,7.4886,7.4886,7.4886,7.4886,7.4886,7.4886,7.4886,7.4886,7.4886,7.4886,7.4886,7.4886,7.4886,7.4886,4.6061,4.6629,4.7059,4.7238,4.7309,4.7309,4.7309,4.7309,4.7309,4.7309,4.7309,4.7309,4.7309,4.7698,4.8278,4.9168,5.0762,5.2276,5.3336,5.5581,5.7244,5.7633,5.9714,6.118,6.1359,6.2435,6.3108,6.3108,6.3108,6.3108,6.3108,6.3108,6.3108,6.3108,6.3273,6.3572,6.4006,6.4395,6.5084,6.5996,6.6191,6.655,6.7014,6.7014,6.7014,6.7014,6.7224,0.0,0.0,6.8437,6.887,6.9363,6.9991,7.0277,7.0336,7.0739,7.0889,7.0889,7.0889,7.0889,7.0949,7.1128,7.1188,7.1218,7.1427,7.1667,7.1953,7.2146,7.2684,7.3253,7.3432,7.3821,7.4197,7.4197,7.4557,7.4886,7.4886,7.4886,7.4886,7.4886,7.4886,7.4886,7.4886,7.4886,7.4886,7.4886,7.4886,7.4886,7.4886,7.4886,7.4886,7.4886,7.4886,7.4886,7.4886,7.4886,7.4886,7.4886,7.4886,7.4886,7.4886,7.4886,7.4886,7.4886,7.4886,7.4886,7.4886,7.4886,7.4886,7.4886,7.4886,7.5006,4.5942,4.63,4.648,4.7119,4.7309,4.7309,4.7309,4.7309,4.7309,4.7309,4.7309,4.7309,4.7309,4.7309,4.7758,4.9067,5.0361,5.1905,5.391,5.5867,5.7603,5.8919,6.0282,6.1359,6.2032,6.2704,6.3108,6.3108,6.3108,6.3108,6.3108,6.3108,6.3108,6.3108,6.3692,6.3977,6.4006,6.5323,6.5996,6.5996,6.667,6.6984,6.7014,6.7014,6.7014,6.7044,0.0,0.0,0.0,6.9439,6.9977,7.0037,7.0649,7.0889,7.0889,7.0889,7.0889,7.0889,7.0889,7.0889,7.1009,7.1683,7.1893,7.2013,7.2684,7.2415,7.2042,7.2698,7.3373,7.4031,7.4706,7.4886,7.4886,7.4886,7.4886,7.4886,7.4886,7.4886,7.4886,7.4886,7.4886,7.4886,7.4886,7.4886,7.4886,7.4886,7.4886,7.4886,7.4886,7.4886,7.4886,7.4886,7.4886,7.4886,7.4886,7.4886,7.4886,7.4886,7.4886,7.4886,7.4886,7.4886,7.4886,7.4886,7.4886,7.4886,7.4886,7.4886,7.4886,7.4886,7.4886,7.5275,4.5384,4.5942,4.645,4.7119,4.6969,4.673,4.7209,4.6939,4.676,4.7219,4.7309,4.7309,4.7309,4.7309,4.7728,4.9067,5.0361,5.1894,5.391,5.5867,5.7423,5.8308,6.0013,6.1553,6.2674,6.2988,6.3108,6.3108,6.3108,6.3108,6.3108,6.3108,6.3108,6.3108,6.3692,6.4216,6.468,6.5547,6.6221,6.67,6.6894,6.7014,6.7014,6.7014,6.7254,0.0,0.0,0.0,0.0,6.9828,7.0247,7.062,7.0829,7.0889,7.0889,7.0889,7.0889,7.0889,7.0889,7.1188,7.1623,7.1833,7.2206,7.2714,7.3373,7.3432,7.3419,7.4078,7.4437,7.4616,7.4826,7.4886,7.4886,7.4886,7.4886,7.4886,7.4886,7.4886,7.4886,7.4886,7.4886,7.4886,7.4886,7.4886,7.4886,7.4886,7.4886,7.4886,7.4886,7.4886,7.4886,7.4886,7.4886,7.4886,7.4886,7.4886,7.4886,7.4886,7.4886,7.4886,7.4886,7.4886,7.4886,7.4886,7.4886,7.4886,7.4886,7.4886,7.5125,7.5587,7.6006,7.6317,4.4985,4.5603,4.6061,4.676,4.679,4.679,4.7209,4.6969,4.679,4.7209,4.7309,4.7309,4.7309,4.7519,4.8038,4.9127,5.0571,5.2264,5.4299,5.6017,5.7633,5.9042,6.0761,6.2181,6.3003,6.3108,6.3108,6.3108,6.3108,6.3108,6.3108,6.3303,6.3452,6.3452,6.4066,6.471,6.5353,6.6026,6.658,6.7014,6.7014,6.7014,6.7014,6.7014,6.7373,0.0,0.0,0.0,0.0,7.0247,7.056,7.0889,7.0889,7.0889,7.0889,7.0889,7.0889,7.0949,7.1188,7.1564,7.1983,7.2491,7.3103,7.3732,7.4168,7.4287,7.4377,7.4766,7.4886,7.4886,7.4886,7.4886,7.4886,7.4886,7.4886,7.4886,7.4886,7.4886,7.4886,7.4886,7.4886,7.4886,7.4886,7.4886,7.4886,7.4886,7.4886,7.4886,7.4886,7.4886,7.4886,7.4886,7.4886,7.4886,7.4886,7.4886,7.4886,7.4886,7.4886,7.4886,7.4886,7.4886,7.4886,7.4886,7.4886,7.5006,7.5275,7.5514,7.5826,7.6258,7.6886,7.7185,0.0,4.5165,4.5394,4.6121,4.673,4.7179,4.7279,4.7268,0.0,4.7309,4.7309,4.7309,4.7309,4.7848,4.8517,4.9247,5.0971,5.2905,5.4982,5.6449,5.8261,6.0791,6.2255,6.3048,6.3108,6.3108,6.3108,6.3108,6.3108,6.3108,6.3108,6.3662,6.4006,6.4066,6.471,6.5353,6.5996,6.667,6.7014,6.7014,6.7014,6.7014,6.7014,6.7044,6.7433,0.0,0.0,0.0,0.0,7.0679,7.0889,7.0889,7.0889,7.0889,7.0889,7.0889,7.0919,7.1068,7.1683,7.1953,7.2252,7.3552,7.4377,7.4886,7.4886,7.4886,7.4886,7.4886,7.4886,7.4886,7.4886,7.4886,7.4886,7.4886,7.4886,7.4886,7.4886,7.4886,7.4886,7.4886,7.4886,7.4886,7.4886,7.4886,7.4886,7.4886,7.4886,7.4886,7.4886,7.4886,7.4886,7.4886,7.4886,7.4886,7.4886,7.4886,7.4886,7.4886,7.4886,7.4886,7.4886,7.4886,7.4916,7.4976,7.5006,7.5335,7.5976,7.6587,7.6868,7.6886,7.7544,7.7873,4.282,0.0,4.4815,4.6001,4.6042,4.6052,0.0,4.6909,4.667,4.7179,4.7309,4.7309,4.7309,4.7848,4.8656,4.98,5.1217,5.3084,5.5623,5.7945,5.9831,6.097,6.1822,6.2555,6.3048,6.3108,6.3108,6.3108,6.3108,6.3108,6.3108,6.3662,6.4246,6.474,6.5428,6.5847,6.5996,6.667,6.7014,6.7014,6.7014,6.7014,6.7014,6.7523,6.8122,0.0,0.0,0.0,7.0709,7.0829,7.0889,7.0889,7.0889,7.0889,7.0889,7.0889,7.1218,7.1683,7.1863,7.2581,7.3569,7.4407,7.4766,7.4886,7.4886,7.4886,7.4886,7.4886,7.4886,7.4886,7.4886,7.4886,7.4886,7.4886,7.4886,7.4886,7.4886,7.4886,7.4886,7.4886,7.4886,7.4886,7.4886,7.4886,7.4886,7.4886,7.4886,7.4886,7.4886,7.4886,7.4886,7.4886,7.4886,7.4886,7.4886,7.4886,7.4886,7.4886,7.4886,7.4886,7.4886,7.4886,7.5155,7.5647,7.6108,7.6437,7.6587,7.7245,7.7544,7.7574,7.825,7.8549,4.1682,4.31,4.4546,4.5593,4.5802,4.6042,4.7059,4.7029,4.685,4.7249,4.7309,4.7388,4.7698,4.8536,4.9512,5.0518,5.2294,5.4491,5.7167,5.9279,6.0805,6.1493,6.2151,6.2704,6.3063,6.3108,6.3108,6.3108,6.3108,6.3213,6.3512,6.4126,6.477,6.5458,6.6116,6.646,6.646,6.6835,6.7014,6.7014,6.7014,6.7164,6.7463,6.7822,6.8511,0.0,0.0,0.0,7.0889,7.0889,7.0889,7.0889,7.0889,7.0889,7.0949,7.1248,7.1593,7.1983,7.2611,7.3509,7.4407,7.4766,7.4886,7.4886,7.4886,7.4886,7.4886,7.4886,7.4886,7.4886,7.4886,7.4886,7.4886,7.4886,7.4886,7.4886,7.4886,7.4886,7.4886,7.4886,7.4886,7.4886,7.4886,7.4886,7.4886,7.4886,7.4886,7.4886,7.4886,7.4886,7.4886,7.4886,7.4886,7.4886,7.4886,7.4886,7.4886,7.4886,7.4886,7.5035,7.5365,7.5365,7.5647,7.6288,7.6946,7.7275,7.7275,7.7933,7.825,7.828,7.8627,7.8807,4.1035,4.2731,4.4326,4.5095,4.5723,4.636,4.7119,4.7309,4.7309,4.7309,4.7388,4.7638,4.8188,4.9422,5.0566,5.1247,5.3683,5.6359,5.877,6.0252,6.1359,6.2032,6.2674,6.3108,6.3108,6.3108,6.3108,6.3108,6.3108,6.3363,6.3977,6.465,6.5293,6.5966,6.664,6.7014,6.7014,6.7014,6.7014,6.7014,6.7104,6.7433,6.8017,6.8227,6.8945,7.0007,0.0,0.0,7.0889,7.0889,7.0889,7.0889,7.0889,7.0949,7.1128,7.1683,7.2042,7.2372,7.3612,7.4437,7.4886,7.4886,7.4886,7.4886,7.4886,7.4886,7.4886,7.4886,7.4886,7.4886,7.4886,7.4886,7.4886,7.4886,7.4886,7.4886,7.4886,7.4886,7.4886,7.4886,7.4886,7.4886,7.4886,7.4886,7.4886,7.4886,7.4886,7.4886,7.4886,7.4886,7.4886,7.4886,7.4886,7.4946,7.5035,7.5035,7.5095,7.5185,7.5095,7.5365,7.5988,7.6155,7.6437,7.6946,7.7604,7.7951,7.7951,7.8519,7.8807,7.8807,7.8807,7.8807,4.1035,4.2402,4.3758,4.4975,4.5364,4.5783,4.701,4.7309,4.7309,4.7309,4.7758,4.8188,4.8278,4.9781,5.1277,5.1947,5.4743,5.7334,5.8876,6.0252,6.1359,6.2032,6.2674,6.3108,6.3108,6.3108,6.3108,6.3108,6.3108,6.3363,6.3977,6.465,6.5293,6.5966,6.664,6.7014,6.7014,6.7014,6.7014,6.7014,6.7583,6.7898,6.8047,6.9185,6.9798,7.0037,0.0,7.0799,7.0889,7.0889,7.0889,7.0889,7.0889,7.1248,7.1773,7.1863,7.2611,7.3702,7.4467,7.4796,7.4886,7.4886,7.4886,7.4886,7.4886,7.4886,7.4886,7.4886,7.4886,7.4886,7.4886,7.4886,7.4886,7.4886,7.4886,7.4886,7.4886,7.4886,7.4886,7.4886,7.4886,7.4886,7.4886,7.4886,7.4886,7.4886,7.4886,7.4886,7.4886,7.4886,7.4886,7.4886,7.4886,7.5125,7.5707,7.5736,7.5958,7.6467,7.6036,7.6018,7.6647,7.7215,7.7562,7.7634,7.831,7.8639,7.8639,7.8747,7.8807,7.8807,7.8807,7.8807,4.0954,4.2332,4.3628,4.4975,4.5563,4.6102,4.707,4.7309,4.7399,4.7769,4.8098,4.8637,4.9673,5.0888,5.2414,5.4491,5.6436,5.8248,5.9953,6.0701,6.1479,6.2525,6.2914,6.3108,6.3108,6.3108,6.3108,6.3108,6.3393,6.3857,6.45,6.5188,6.5847,6.652,6.6819,6.7014,6.7014,6.7014,6.7014,6.7014,6.7688,6.8197,6.8571,6.9558,7.0187,7.05,0.0,7.0889,7.0889,7.0889,7.0889,7.0949,7.1308,7.1623,7.1983,7.2731,7.3599,7.4497,7.4796,7.4886,7.4886,7.4886,7.4886,7.4886,7.4886,7.4886,7.4886,7.4886,7.4886,7.4886,7.4886,7.4886,7.4886,7.4886,7.4886,7.4886,7.4886,7.4886,7.4886,7.4886,7.4886,7.4886,7.4886,7.4886,7.4886,7.4886,7.4886,7.4886,7.4886,7.4886,7.4886,7.4886,7.5215,7.5557,7.5886,7.6198,7.6497,7.6779,7.6886,7.7035,7.7335,7.7981,7.834,7.834,7.8639,7.8807,7.8807,7.8807,7.8807,7.8807,7.8807,7.8807,4.1104,4.2551,4.3878,4.5204,4.5922,4.648,4.7149,4.7429,4.7668,4.8188,4.8667,4.9434,5.0918,5.2115,5.3862,5.6855,5.7889,5.8996,6.0851,6.1239,6.1762,6.2944,6.3108,6.3108,6.3108,6.3108,6.3108,6.3108,6.3662,6.4306,6.4964,6.5637,6.6311,6.6984,6.7014,6.7014,6.7014,6.7014,6.7074,6.7254,6.7912,6.86,6.9243,6.9917,7.044,7.0889,7.0889,7.0889,7.0889,7.0889,7.0889,7.0979,7.1653,7.2102,7.2521,7.3719,7.4467,7.4886,7.4886,7.4886,7.4886,7.4886,7.4886,7.4886,7.4886,7.4886,7.4886,7.4886,7.4886,7.4886,7.4886,7.4886,7.4886,7.4886,7.4886,7.4886,7.4886,7.4886,7.4886,7.4886,7.4886,7.4886,7.4886,7.4886,7.4886,7.4886,7.4886,7.4886,7.4886,7.5035,7.5125,7.5125,7.5707,7.6168,7.6335,7.6916,7.7275,7.7275,7.7753,7.8041,7.8041,7.8519,7.8807,7.8807,7.8807,7.8807,7.8807,7.8807,7.8807,7.8807,7.8807,7.8807,4.1772,4.3249,4.4546,4.5882,4.6271,4.648,4.7149,4.7788,4.8248,4.8278,4.9733,5.1026,5.1176,5.3264,5.5658,5.7709,5.8577,5.9504,6.091,6.1642,6.2301,6.3003,6.3108,6.3108,6.3108,6.3108,6.3108,6.3108,6.3662,6.4306,6.4964,6.5637,6.6311,6.6984,6.7014,6.7014,6.7014,6.7014,6.7313,6.7928,6.86,6.9273,6.9947,7.056,7.0859,7.0889,7.0889,7.0889,7.0889,7.0889,7.0889,7.0979,7.1653,7.2671,7.3821,7.4557,7.4856,7.4886,7.4886,7.4886,7.4886,7.4886,7.4886,7.4886,7.4886,7.4886,7.4886,7.4886,7.4886,7.4886,7.4886,7.4886,7.4886,7.4886,7.4886,7.4886,7.4886,7.4886,7.4886,7.4886,7.4886,7.4886,7.4886,7.4886,7.4886,7.4886,7.4886,7.4886,7.4886,7.5437,7.5826,7.5826,7.6377,7.7006,7.7622,7.828,7.8657,7.8657,7.8699,7.8747,7.8747,7.8759,7.8807,7.8807,7.8807,7.8807,7.8807,7.8807,7.8807,7.8807,7.8807,7.8807,4.1952,4.3639,4.5144,4.6061,4.6939,4.7608,4.7848,4.8128,4.8637,4.9853,5.0679,5.1726,5.3384,5.5149,5.6765,5.7905,5.8996,6.0027,6.097,6.1672,6.2345,6.3003,6.3108,6.3108,6.3108,6.3108,6.3108,6.3108,6.4036,6.474,6.4994,6.6041,6.6729,6.6984,6.7014,6.7014,6.7014,6.7403,6.7972,6.863,6.8884,6.9333,7.0007,7.062,7.0889,7.0889,7.0889,7.0889,7.0889,7.0889,7.1158,7.1637,7.2731,7.3719,7.4557,7.4796,7.4886,7.4886,7.4886,7.4886,7.4886,7.4886,7.4886,7.4886,7.4886,7.4886,7.4886,7.4886,7.4886,7.4886,7.4886,7.4886,7.4886,7.4886,7.4886,7.4886,7.4886,7.4886,7.4886,7.4886,7.4886,7.4886,7.4886,7.4886,7.4886,7.4886,7.4886,7.5035,7.5467,7.5736,7.6048,7.6407,7.7035,7.7694,7.837,7.8639,7.8807,7.8807,7.8807,7.8807,7.8807,7.8807,7.8807,7.8807,7.8807,7.8807,7.8807,7.8807,7.8807,7.8807,7.8807,7.8807,4.2571,4.4117,4.5514,4.6401,4.7459,4.8349,4.8558,4.8757,4.9344,5.0877,5.1876,5.3144,5.5401,5.6675,5.7679,5.8577,5.9668,6.0655,6.1299,6.2002,6.2584,6.3048,6.3108,6.3108,6.3108,6.3108,6.3108,6.3108,6.4291,6.4994,6.4994,6.6281,6.7014,6.7014,6.7014,6.7014,6.7014,6.7643,6.8331,6.9004,6.9213,6.9678,7.0306,7.0709,7.0889,7.0889,7.0889,7.0889,7.0919,7.1128,7.1743,7.2611,7.3522,7.4317,7.4886,7.4886,7.4886,7.4886,7.4886,7.4886,7.4886,7.4886,7.4886,7.4886,7.4886,7.4886,7.4886,7.4886,7.4886,7.4886,7.4886,7.4886,7.4886,7.4886,7.4886,7.4886,7.4886,7.4886,7.4886,7.4886,7.4886,7.4886,7.4886,7.4886,7.4976,7.5185,7.5215,7.5455,7.6108,7.6347,7.6754,7.7365,7.7861,7.831,7.8759,7.8807,7.8807,7.8807,7.8807,7.8807,7.8807,7.8807,7.8807,7.8807,7.8807,7.8807,7.8807,7.8807,7.8807,7.8807,7.8807,7.8807,4.3768,4.4796,4.5603,4.698,4.7818,4.8487,4.9168,4.9763,5.0416,5.1086,5.3354,5.5611,5.6855,5.7649,5.8547,5.9891,6.0655,6.1329,6.2002,6.2674,6.3108,6.3108,6.3108,6.3108,6.3108,6.3108,6.3108,6.3108,6.4291,6.4994,6.5024,6.6281,6.7014,6.7014,6.7014,6.7014,6.7014,6.7673,6.8331,6.9004,6.9678,7.032,7.0889,7.0889,7.0889,7.0889,7.0889,7.0889,7.0949,7.1637,7.2701,7.3881,7.3911,7.4317,7.4886,7.4886,7.4886,7.4886,7.4886,7.4886,7.4886,7.4886,7.4886,7.4886,7.4886,7.4886,7.4886,7.4886,7.4886,7.4886,7.4886,7.4886,7.4886,7.4886,7.4886,7.4886,7.4886,7.4886,7.4886,7.4886,7.4886,7.4886,7.4886,7.4903,7.5125,7.5796,7.5916,7.6108,7.6719,7.7394,7.8071,7.8747,7.8807,7.8807,7.8807,7.8807,7.8807,7.8807,7.8807,7.8807,7.8807,7.8807,7.8807,7.8807,7.8807,7.8807,7.8807,7.8807,7.8807,7.8807,7.8807,7.8807,4.3768,4.4796,4.5603,4.698,4.8158,4.9048,4.9258,5.0122,5.1505,5.3593,5.5012,5.6299,5.756,5.7979,5.8547,5.9891,6.0655,6.1329,6.2002,6.2674,6.3108,6.3108,6.3108,6.3108,6.3108,6.3108,6.3273,6.3692,6.453,6.5218,6.5667,6.652,6.7014,6.7014,6.7014,6.7224,6.7703,6.8361,6.9049,6.9708,7.032,7.0739,7.0889,7.0889,7.0889,7.0889,7.0889,7.0889,7.0979,7.2146,7.3103,7.3941,7.4437,7.4706,7.4886,7.4886,7.4886,7.4886,7.4886,7.4886,7.4886,7.4886,7.4886,7.4886,7.4886,7.4886,7.4886,7.4886,7.4886,7.4886,7.4886,7.4886,7.4886,7.4886,7.4886,7.4886,7.4886,7.4886,7.4886,7.4886,7.4886,7.4886,7.4886,7.5305,7.5677,7.5886,7.6258,7.6766,7.7424,7.81,7.8579,7.8777,7.8807,7.8807,7.8807,7.8807,7.8807,7.8807,7.8807,7.8807,7.8807,7.8807,7.8807,7.8807,7.8807,7.8807,7.8807,7.8807,7.8807,7.8807,7.8807,7.8807,4.4107,4.4975,4.5603,4.698,4.8308,4.9557,5.0594,5.145,5.2606,5.4773,5.591,5.6868,5.7919,5.8547,5.9249,6.0326,6.1074,6.1732,6.2405,6.2854,6.3108,6.3108,6.3108,6.3108,6.3108,6.3108,6.3333,6.3947,6.462,6.5308,6.5966,6.664,6.7014,6.7014,6.7014,6.7313,6.7987,6.8645,6.9333,7.0007,7.062,7.0889,7.0889,7.0889,7.0889,7.0919,7.1188,7.1457,7.177,7.2847,7.3702,7.4347,7.4736,7.4886,7.4886,7.4886,7.4886,7.4886,7.4886,7.4886,7.4886,7.4886,7.4886,7.4886,7.4886,7.4886,7.4886,7.4886,7.4886,7.4886,7.4886,7.4886,7.4886,7.4886,7.4886,7.4886,7.4886,7.4886,7.4886,7.4886,7.5125,7.5305,7.5305,7.5826,7.6347,7.6604,7.7185,7.7724,7.816,7.8549,7.8807,7.8807,7.8807,7.8807,7.8807,7.8807,7.8807,7.8807,7.8807,7.8807,7.8807,7.8807,7.8807,7.8807,7.8807,7.8807,7.8807,7.8807,7.8807,7.8807,7.8807,7.8807,4.4596,4.5315,4.5603,4.698,4.8338,5.0055,5.263,5.3276,5.3755,5.5102,5.6286,5.7334,5.8068,5.9249,6.034,6.1,6.1672,6.2331,6.3018,6.3108,6.3108,6.3108,6.3108,6.3108,6.3108,6.3108,6.3393,6.4036,6.465,6.5323,6.6056,6.667,6.7014,6.7014,6.7014,6.7343,6.8062,6.872,6.9363,7.0097,7.0649,7.0889,7.0889,7.0889,7.0889,7.0949,7.1623,7.2265,7.2937,7.3612,7.4317,7.4886,7.4886,7.4886,7.4886,7.4886,7.4886,7.4886,7.4886,7.4886,7.4886,7.4886,7.4886,7.4886,7.4886,7.4886,7.4886,7.4886,7.4886,7.4886,7.4886,7.4886,7.4886,7.4886,7.4886,7.4886,7.4886,7.4886,7.4916,7.4976,7.5467,7.5916,7.5976,7.6497,7.7125,7.7801,7.84,7.8807,7.8807,7.8807,7.8807,7.8807,7.8807,7.8807,7.8807,7.8807,7.8807,7.8807,7.8807,7.8807,7.8807,7.8807,7.8807,7.8807,7.8807,7.8807,7.8807,7.8807,7.8807,7.8807,7.8807,7.8807,4.4596,4.5315,4.5603,4.698,4.8674,5.0559,5.2707,5.3994,5.5132,5.6419,5.6915,5.7453,5.8667,5.9548,6.034,6.1,6.1672,6.2331,6.3018,6.3108,6.3108,6.3108,6.3108,6.3108,6.3108,6.3108,6.3572,6.471,6.4904,6.5518,6.6729,6.6909,6.7014,6.7014,6.7014,6.7583,6.8764,6.8944,6.9572,7.0709,7.0829,7.0889,7.0889,7.0889,7.0889,7.0949,7.1623,7.2265,7.2937,7.3612,7.4317,7.4886,7.4886,7.4886,7.4886,7.4886,7.4886,7.4886,7.4886,7.4886,7.4886,7.4886,7.4886,7.4886,7.4886,7.4886,7.4886,7.4886,7.4886,7.4886,7.4886,7.4886,7.4886,7.4886,7.4886,7.4886,7.4886,7.4886,7.5065,7.5587,7.5796,7.6066,7.6527,7.7155,7.7813,7.8489,7.8699,7.8807,7.8807,7.8807,7.8807,7.8807,7.8807,7.8807,7.8807,7.8807,7.8807,7.8807,7.8807,7.8807,7.8807,7.8807,7.8807,7.8807,7.8807,7.8807,7.8807,7.8807,7.8807,7.8807,7.8807,7.8807,4.4107,4.5065,4.5793,4.7769,4.9243,5.0727,5.2737,5.4234,5.5551,5.6838,5.7363,5.7992,5.9338,6.0116,6.0805,6.1463,6.2121,6.2704,6.3048,6.3108,6.3108,6.3108,6.3108,6.3108,6.3108,6.3108,6.3632,6.4904,6.4994,6.5577,6.6924,6.7014,6.7014,6.7014,6.7014,6.7627,6.9004,6.9004,6.9632,7.0889,7.0889,7.0889,7.0889,7.0889,7.1068,7.1414,7.2086,7.2774,7.3432,7.4108,7.4587,7.4886,7.4886,7.4886,7.4886,7.4886,7.4886,7.4886,7.4886,7.4886,7.4886,7.4886,7.4886,7.4886,7.4886,7.4886,7.4886,7.4886,7.4886,7.4886,7.4886,7.4886,7.4886,7.4886,7.4886,7.4886,7.4886,7.5155,7.5467,7.5826,7.6395,7.6904,7.7215,7.7813,7.84,7.8747,7.8807,7.8807,7.8807,7.8807,7.8807,7.8807,7.8807,7.8807,7.8807,7.8807,7.8807,7.8807,7.8807,7.8807,7.8807,7.8807,7.8807,7.8807,7.8807,7.8807,7.8807,7.8807,7.8807,7.8807,7.8807,7.8968,4.3619,4.4965,4.6242,4.8678,4.9763,5.0727,5.2737,5.4234,5.5551,5.6838,5.762,5.8517,5.9861,6.0655,6.1329,6.2002,6.2674,6.3108,6.3108,6.3108,6.3108,6.3108,6.3108,6.3108,6.3108,6.3108,6.3632,6.4904,6.4994,6.5577,6.6924,6.7014,6.7014,6.7014,6.7104,6.7762,6.9004,6.9123,6.9752,7.0889,7.0889,7.0889,7.0889,7.1009,7.1368,7.1953,7.2624,7.3283,7.3941,7.4616,7.4886,7.4886,7.4886,7.4886,7.4886,7.4886,7.4886,7.4886,7.4886,7.4886,7.4886,7.4886,7.4886,7.4886,7.4886,7.4886,7.4886,7.4886,7.4886,7.4886,7.4886,7.4886,7.4886,7.4886,7.4976,7.5065,7.5065,7.5497,7.5976,7.6185,7.7173,7.7981,7.7981,7.843,7.8807,7.8807,7.8807,7.8807,7.8807,7.8807,7.8807,7.8807,7.8807,7.8807,7.8807,7.8807,7.8807,7.8807,7.8807,7.8807,7.8807,7.8807,7.8807,7.8807,7.8807,7.8807,7.8807,7.8807,7.8807,7.8807,7.8908,7.9267,4.3738,4.5623,4.7399,4.8929,4.9763,5.0727,5.2737,5.4234,5.5551,5.6838,5.762,5.8517,5.9861,6.0655,6.1329,6.2002,6.2674,6.3108,6.3108,6.3108,6.3108,6.3108,6.3108,6.3108,6.3108,6.3108,6.3632,6.4904,6.4994,6.5577,6.6924,6.7014,6.7014,6.7014,6.7553,6.8241,6.9004,6.9588,7.0201,7.0889,7.0889,7.0889,7.0919,7.1487,7.1833,7.1953,7.2624,7.3283,7.3941,7.4616,7.4886,7.4886,7.4886,7.4886,7.4886,7.4886,7.4886,7.4886,7.4886,7.4886,7.4886,7.4886,7.4886,7.4886,7.4886,7.4886,7.4886,7.4886,7.4886,7.4886,7.4886,7.4886,7.4886,7.4886,7.5335,7.5766,7.5766,7.5826,7.6245,7.7335,7.816,7.8687,7.8687,7.8747,7.8807,7.8807,7.8807,7.8807,7.8807,7.8807,7.8807,7.8807,7.8807,7.8807,7.8807,7.8807,7.8807,7.8807,7.8807,7.8807,7.8807,7.8807,7.8807,7.8807,7.8807,7.8807,7.8807,7.8807,7.8807,7.8807,7.9417,7.9698,4.4137,4.5773,4.7149,4.8858,4.9516,5.0301,5.2648,5.3964,5.5119,5.6765,5.762,5.8517,5.9861,6.0655,6.1329,6.2002,6.2674,6.3108,6.3108,6.3108,6.3108,6.3108,6.3108,6.3108,6.3108,6.3108,6.3632,6.4904,6.4994,6.5577,6.6924,6.7014,6.7014,6.7014,6.7643,6.8331,6.9004,6.9678,7.0306,7.0889,7.0889,7.0889,7.0919,7.1577,7.2102,7.2505,7.3163,7.3821,7.4497,7.4766,7.4886,7.4886,7.4886,7.4886,7.4886,7.4886,7.4886,7.4886,7.4886,7.4886,7.4886,7.4886,7.4886,7.4886,7.4886,7.4886,7.4886,7.4886,7.4886,7.4886,7.4886,7.4886,7.4976,7.5365,7.5677,7.6096,7.6796,7.6946,7.7233,7.819,7.8579,7.8807,7.8807,7.8807,7.8807,7.8807,7.8807,7.8807,7.8807,7.8807,7.8807,7.8807,7.8807,7.8807,7.8807,7.8807,7.8807,7.8807,7.8807,7.8807,7.8807,7.8807,7.8807,7.8807,7.8807,7.8807,7.8807,7.8807,7.8998,7.9387,7.9668,8.0207,4.4287,4.5653,4.673,4.8588,4.9168,4.9917,5.2169,5.3324,5.4461,5.6256,5.7261,5.8188,5.9368,6.0416,6.1329,6.2002,6.2674,6.3108,6.3108,6.3108,6.3108,6.3108,6.3108,6.3108,6.3108,6.3108,6.3632,6.4904,6.4994,6.5577,6.6924,6.7014,6.7014,6.7014,6.7822,6.8481,6.9004,6.9812,7.044,7.0889,7.0889,7.0889,7.0919,7.1757,7.2415,7.2937,7.3612,7.4287,7.4886,7.4886,7.4886,7.4886,7.4886,7.4886,7.4886,7.4886,7.4886,7.4886,7.4886,7.4886,7.4886,7.4886,7.4886,7.4886,7.4886,7.4886,7.4886,7.4886,7.4886,7.4886,7.4886,7.5035,7.5275,7.5766,7.6155,7.6647,7.7574,7.7933,7.819,7.8699,7.8807,7.8807,7.8807,7.8807,7.8807,7.8807,7.8807,7.8807,7.8807,7.8807,7.8807,7.8807,7.8807,7.8807,7.8807,7.8807,7.8807,7.8807,7.8807,7.8807,7.8807,7.8807,7.8807,7.8807,7.8807,7.8807,7.8807,7.8968,7.9327,7.9818,8.0147,8.0853,4.3988,4.5324,4.6629,4.8008,4.8828,4.9636,5.1008,5.2306,5.3635,5.5012,5.6286,5.7363,5.8055,5.9803,6.1329,6.2002,6.2674,6.3108,6.3108,6.3108,6.3108,6.3108,6.3108,6.3108,6.3108,6.3108,6.3632,6.4904,6.4994,6.5577,6.6924,6.7014,6.7014,6.7014,6.8256,6.8974,6.9004,7.0231,7.0859,7.0889,7.0889,7.0889,7.0949,7.2249,7.2877,7.2937,7.3612,7.4287,7.4886,7.4886,7.4886,7.4886,7.4886,7.4886,7.4886,7.4886,7.4886,7.4886,7.4886,7.4886,7.4886,7.4886,7.4886,7.4886,7.4886,7.4886,7.4886,7.4886,7.4886,7.4886,7.4886,7.5365,7.5856,7.5886,7.6826,7.7741,7.7801,7.831,7.8759,7.8807,7.8807,7.8807,7.8807,7.8807,7.8807,7.8807,7.8807,7.8807,7.8807,7.8807,7.8807,7.8807,7.8807,7.8807,7.8807,7.8807,7.8807,7.8807,7.8807,7.8807,7.8807,7.8807,7.8807,7.8807,7.8807,7.8807,7.8807,7.9447,7.9758,7.9818,8.1093,8.174,4.4347,4.5304,4.6082,4.7859,4.8798,4.9636,5.0918,5.2247,5.3588,5.4922,5.6209,5.7304,5.7979,5.9385,6.0685,6.1343,6.2032,6.2614,6.3048,6.3108,6.3108,6.3108,6.3108,6.3108,6.3108,6.3108,6.3632,6.4904,6.4994,6.5577,6.6924,6.7014,6.7014,6.7014,6.8286,6.9393,7.0201,7.0679,7.0889,7.0889,7.0889,7.0889,7.0949,7.2279,7.2907,7.2967,7.4061,7.4676,7.4886,7.4886,7.4886,7.4886,7.4886,7.4886,7.4886,7.4886,7.4886,7.4886,7.4886,7.4886,7.4886,7.4886,7.4886,7.4886,7.4886,7.4886,7.4886,7.4886,7.4886,7.5006,7.5437,7.5707,7.6125,7.6933,7.7801,7.843,7.843,7.8627,7.8807,7.8807,7.8807,7.8807,7.8807,7.8807,7.8807,7.8807,7.8807,7.8807,7.8807,7.8807,7.8807,7.8807,7.8807,7.8807,7.8807,7.8807,7.8807,7.8807,7.8807,7.8807,7.8807,7.8807,7.8807,7.8807,7.9238,7.9429,7.9429,7.9668,8.0237,8.1093,8.159,8.2009,4.4047,4.4975,4.5663,4.7249,4.8308,4.9247,5.0331,5.1588,5.2917,5.4264,5.5551,5.6735,5.759,5.868,5.9727,6.0625,6.1523,6.2255,6.2704,6.2944,6.3108,6.3108,6.3108,6.3108,6.3108,6.3108,6.3542,6.459,6.4874,0.0,6.661,6.6894,6.7224,6.7657,6.8525,6.9602,7.0889,7.0889,7.0889,7.0889,7.0889,7.1009,7.1278,7.2368,7.3027,7.3313,7.4407,7.4886,7.4886,7.4886,7.4886,7.4886,7.4886,7.4886,7.4886,7.4886,7.4886,7.4886,7.4886,7.4886,7.4886,7.4886,7.4886,7.4886,7.4886,7.4886,7.4886,7.4886,7.4886,7.5035,7.5736,7.6215,7.6814,7.7891,7.846,7.8807,7.8807,7.8807,7.8807,7.8807,7.8807,7.8807,7.8807,7.8807,7.8807,7.8807,7.8807,7.8807,7.8807,7.8807,7.8807,7.8807,7.8807,7.8807,7.8807,7.8807,7.8807,7.8807,7.8807,7.8807,7.8807,7.8807,7.8908,7.9118,7.9578,8.0027,8.0464,8.0464,8.0913,8.18,8.2009,8.2368,0.0,0.0,0.0,4.6121,4.7298,4.8468,4.9168,5.0283,5.1576,5.2887,5.4264,5.5581,5.6838,5.762,5.8517,5.9831,6.1178,6.2061,6.2091,6.2674,6.3078,6.3108,6.3108,6.3108,6.3108,6.3108,6.3333,6.3947,6.462,6.5308,6.5966,6.664,6.7597,6.8944,6.9004,6.9602,7.0889,7.0889,7.0889,7.0889,7.0889,7.1248,7.1923,7.2595,7.3283,7.3941,7.4616,7.4886,7.4886,7.4886,7.4886,7.4886,7.4886,7.4886,7.4886,7.4886,7.4886,7.4886,7.4886,7.4886,7.4886,7.4886,7.4886,7.4886,7.4886,7.4886,7.4886,7.4886,7.4916,7.5095,7.5766,7.6904,7.7981,7.8639,7.8807,7.8807,7.8807,7.8807,7.8807,7.8807,7.8807,7.8807,7.8807,7.8807,7.8807,7.8807,7.8807,7.8807,7.8807,7.8807,7.8807,7.8807,7.8807,7.8807,7.8807,7.8807,7.8807,7.8807,7.8807,7.8807,7.8807,7.8807,7.9118,7.9788,7.9818,8.0494,8.18,8.18,8.18,8.186,8.2507,8.2806,4.3678,0.0,0.0,0.0,0.0,0.0,4.9168,5.0283,5.1427,5.2306,5.3935,5.5311,5.5671,5.7021,5.8205,5.8577,5.9787,6.0998,6.1942,6.2241,6.2555,6.3048,6.3108,6.3108,6.3108,6.3108,6.3333,0.0,6.462,6.5308,6.5966,6.664,6.7597,6.8944,6.9004,6.9602,7.0889,7.0889,7.0889,7.0889,7.0889,7.1248,7.1923,7.2595,7.3283,7.3941,7.4616,7.4886,7.4886,7.4886,7.4886,7.4886,7.4886,7.4886,7.4886,7.4886,7.4886,7.4886,7.4886,7.4886,7.4886,7.4886,7.4886,7.4886,7.4886,7.4886,7.4886,7.4886,7.5245,7.5886,7.6993,7.7891,7.8579,7.8777,7.8807,7.8807,7.8807,7.8807,7.8807,7.8807,7.8807,7.8807,7.8807,7.8807,7.8807,7.8807,7.8807,7.8807,7.8807,7.8807,7.8807,7.8807,7.8807,7.8807,7.8807,7.8807,7.8807,7.8807,7.8807,7.8807,7.8807,7.8807,7.9118,7.9788,8.0285,8.0943,8.18,8.18,8.2039,8.2537,8.2717,8.2806,4.3948,4.4796,4.5454,4.6121,0.0,0.0,4.9067,4.9875,5.075,5.1947,5.3354,5.4533,5.5102,5.6346,5.7393,5.7649,5.8577,5.9727,6.1088,6.1746,6.2241,6.2644,6.2928,6.3108,6.3108,6.3108,6.3243,6.3602,6.4216,6.5009,6.5936,6.664,6.7597,6.8944,6.9004,6.9602,7.0889,7.0889,7.0889,7.0889,7.0889,7.1398,7.2325,7.2727,7.3432,7.4347,7.4736,7.4886,7.4886,7.4886,7.4886,7.4886,7.4886,7.4886,7.4886,7.4886,7.4886,7.4886,7.4886,7.4886,7.4886,7.4886,7.4886,7.4886,7.4886,7.4886,7.4946,7.5245,7.5976,7.6874,7.7622,7.831,7.8807,7.8807,7.8807,7.8807,7.8807,7.8807,7.8807,7.8807,7.8807,7.8807,7.8807,7.8807,7.8807,7.8807,7.8807,7.8807,7.8807,7.8807,7.8807,7.8807,7.8807,7.8807,7.8807,7.8807,7.8807,7.8807,7.8807,7.8807,7.8807,7.9058,7.9537,8.0207,8.0883,8.156,8.2238,8.2238,8.2417,8.2806,8.2806,8.2806,4.4107,4.4905,4.5544,4.6151,4.679,0.0,4.8887,4.9198,4.9696,5.151,5.2468,5.3336,5.4533,5.5504,5.6239,5.6808,5.75,5.8457,5.9801,6.1088,6.1942,6.2061,6.2614,6.3018,6.3108,6.3108,6.3108,6.3108,6.3722,6.4665,6.5936,6.664,6.7583,6.8854,6.8974,6.9572,7.0799,7.0859,7.0889,7.0889,7.0889,7.1591,7.2907,7.2907,7.3642,7.4886,7.4886,7.4886,7.4886,7.4886,7.4886,7.4886,7.4886,7.4886,7.4886,7.4886,7.4886,7.4886,7.4886,7.4886,7.4886,7.4886,7.4886,7.4886,7.4886,7.4886,7.5035,7.5796,7.6856,7.7831,7.7891,7.834,7.8807,7.8807,7.8807,7.8807,7.8807,7.8807,7.8807,7.8807,7.8807,7.8807,7.8807,7.8807,7.8807,7.8807,7.8807,7.8807,7.8807,7.8807,7.8807,7.8807,7.8807,7.8807,7.8807,7.8807,7.8807,7.8807,7.8807,7.8807,7.8807,7.9429,8.0117,8.0794,8.153,8.2189,8.2806,8.2806,8.2806,8.2806,8.2806,8.2806,4.5045,4.5593,4.6121,4.6271,4.679,0.0,4.8308,4.8498,4.8768,4.9666,5.0792,5.1666,5.1935,5.3832,5.5431,5.5538,5.6526,5.7752,5.9099,5.9967,6.0878,6.1972,6.2225,6.2525,6.3048,6.3108,6.3108,6.3108,6.4156,6.5159,6.5966,6.664,6.7373,6.8167,6.8704,6.9363,7.0157,7.0649,7.0889,7.0889,7.0889,7.1591,7.2907,7.2907,7.3642,7.4886,7.4886,7.4886,7.4886,7.4886,7.4886,7.4886,7.4886,7.4886,7.4886,7.4886,7.4886,7.4886,7.4886,7.4886,7.4886,7.4886,7.4886,7.4886,7.4886,7.4886,7.5155,7.6288,7.7185,7.7921,7.846,7.8699,7.8807,7.8807,7.8807,7.8807,7.8807,7.8807,7.8807,7.8807,7.8807,7.8807,7.8807,7.8807,7.8807,7.8807,7.8807,7.8807,7.8807,7.8807,7.8807,7.8807,7.8807,7.8807,7.8807,7.8807,7.8807,7.8807,7.8807,7.8807,7.8807,7.9429,8.0117,8.0794,8.1979,8.2687,8.2806,8.2806,8.2806,8.2806,8.2806,8.2806,4.5713,4.6031,4.639,4.673,4.7059,0.0,0.0,4.8308,4.8498,4.9168,5.0032,5.0817,5.1146,5.2564,5.3803,5.4144,5.5311,5.6389,5.7064,5.856,5.9967,6.0998,6.1672,6.2241,6.2555,6.2884,6.3108,6.3108,6.3977,6.48,6.5458,6.6131,6.6954,6.7958,6.8645,6.9303,6.9977,7.059,7.0889,7.0889,7.0889,7.1591,7.2907,7.2907,7.3642,7.4886,7.4886,7.4886,7.4886,7.4886,7.4886,7.4886,7.4886,7.4886,7.4886,7.4886,7.4886,7.4886,7.4886,7.4886,7.4886,7.4886,7.4886,7.4886,7.4886,7.5335,7.6066,7.7006,7.7783,7.837,7.8699,7.8807,7.8807,7.8807,7.8807,7.8807,7.8807,7.8807,7.8807,7.8807,7.8807,7.8807,7.8807,7.8807,7.8807,7.8807,7.8807,7.8807,7.8807,7.8807,7.8807,7.8807,7.8807,7.8807,7.8807,7.8807,7.8807,7.8807,7.8807,7.8807,7.8807,7.9776,8.0764,8.177,8.2477,8.2806,8.2806,8.2806,8.2806,8.2806,8.2806,8.2806,4.636,4.648,4.6629,4.7149,0.0,4.7429,0.0,0.0,0.0,4.8798,4.9404,5.0009,5.0529,5.1397,5.2067,5.2229,5.3695,5.4713,5.4473,5.6705,5.874,5.9771,6.0864,6.1672,6.2061,6.2704,6.3108,6.3108,6.3662,6.4306,6.4964,6.5637,6.655,6.7762,6.8585,6.9243,6.9798,7.053,7.0889,7.0889,7.0889,7.1591,7.2907,7.2907,7.3642,7.4886,7.4886,7.4886,7.4886,7.4886,7.4886,7.4886,7.4886,7.4886,7.4886,7.4886,7.4886,7.4886,7.4886,7.4886,7.4886,7.4886,7.4886,7.4916,7.5035,7.5886,7.6946,7.7604,7.828,7.8807,7.8807,7.8807,7.8807,7.8807,7.8807,7.8807,7.8807,7.8807,7.8807,7.8807,7.8807,7.8807,7.8807,7.8807,7.8807,7.8807,7.8807,7.8807,7.8807,7.8807,7.8807,7.8807,7.8807,7.8807,7.8807,7.8807,7.8807,7.8807,7.8807,7.8807,7.8807,8.0075,8.1441,8.2776,8.2806,8.2806,8.2806,8.2806,8.2806,8.2806,8.2806,8.2806,4.7339,4.7179,4.7209,4.7279,4.7309,0.0,4.7399,0.0,4.7429,4.7519,0.0,4.8547,4.8607,0.0,0.0,4.9116,5.142,5.3007,5.1816,5.3952,5.6526,5.8919,5.9368,6.0146,6.1942,6.2704,6.3108,6.3108,6.3662,6.4306,6.4964,6.5637,6.634,6.7104,6.8345,6.9034,6.9123,7.029,7.0889,7.0889,7.0889,7.1591,7.2907,7.2907,7.3642,7.4886,7.4886,7.4886,7.4886,7.4886,7.4886,7.4886,7.4886,7.4886,7.4886,7.4886,7.4886,7.4886,7.4886,7.4886,7.4886,7.4886,7.4886,7.5006,7.5617,7.6258,7.6946,7.7604,7.828,7.8807,7.8807,7.8807,7.8807,7.8807,7.8807,7.8807,7.8807,7.8807,7.8807,7.8807,7.8807,7.8807,7.8807,7.8807,7.8807,7.8807,7.8807,7.8807,7.8807,7.8807,7.8807,7.8807,7.8807,7.8807,7.8807,7.8807,7.8807,7.8807,7.8807,7.8807,7.8807,8.0075,8.1441,8.2776,8.2806,8.2806,8.2806,8.2806,8.2806,8.2806,8.2806,8.2806,4.8528,4.8457,4.8379,4.7978,0.0,0.0,4.7399,0.0,4.7309,0.0,0.0,0.0,0.0,0.0,0.0,0.0,5.0672,0.0,5.1277,5.2845,5.4892,5.7137,5.8411,0.0,6.1912,6.2345,6.2674,6.3063,6.3333,6.3737,6.4381,6.5069,6.5727,6.64,6.8106,6.9004,6.9004,7.026,7.0889,7.0889,7.1278,7.1966,7.2907,7.3313,7.4001,7.4886,7.4886,7.4886,7.4886,7.4886,7.4886,7.4886,7.4886,7.4886,7.4886,7.4886,7.4886,7.4886,7.4886,7.4886,7.4886,7.4886,7.4886,7.5095,7.6108,7.6617,7.7035,7.81,7.8579,7.8807,7.8807,7.8807,7.8807,7.8807,7.8807,7.8807,7.8807,7.8807,7.8807,7.8807,7.8807,7.8807,7.8807,7.8807,7.8807,7.8807,7.8807,7.8807,7.8807,7.8807,7.8807,7.8807,7.8807,7.8807,7.8807,7.8807,7.8807,7.8807,7.8807,7.9148,7.9926,8.0494,8.1441,8.2776,8.2806,8.2806,8.2806,8.2806,8.2806,8.2806,8.2806,8.2806,4.9595,4.9426,4.9187,0.0,0.0,0.0,0.0,0.0,0.0,0.0,0.0,0.0,0.0,0.0,0.0,0.0,0.0,5.0499,4.992,5.1307,5.3174,5.5371,5.7543,0.0,0.0,6.1762,6.2315,6.2794,0.0,6.3363,6.3977,6.465,6.5293,6.5966,6.7777,6.8794,6.9004,7.0111,7.0739,7.0919,7.1398,7.2056,7.2907,7.3402,7.4108,7.4886,7.4886,7.4886,7.4886,7.4886,7.4886,7.4886,7.4886,7.4886,7.4886,7.4886,7.4886,7.4886,7.4886,7.4886,7.4886,7.4886,7.5006,7.5395,7.6467,7.6946,7.7305,7.846,7.8807,7.8807,7.8807,7.8807,7.8807,7.8807,7.8807,7.8807,7.8807,7.8807,7.8807,7.8807,7.8807,7.8807,7.8807,7.8807,7.8807,7.8807,7.8807,7.8807,7.8807,7.8807,7.8807,7.8807,7.8807,7.8807,7.8807,7.8807,7.8807,7.8807,7.8968,7.9597,8.0764,8.0973,8.162,8.2776,8.2806,8.2806,8.2806,8.2806,8.2806,8.2806,8.2806,8.2806,0.0,0.0,0.0,4.9258,0.0,0.0,0.0,0.0,4.8278,0.0,0.0,0.0,0.0,0.0,0.0,0.0,0.0,0.0,0.0,4.8652,5.1284,5.394,5.6543,5.8427,0.0,6.0954,6.2121,0.0,6.2734,0.0,6.3977,6.465,6.5293,6.5966,6.7313,6.8331,6.9004,6.9678,7.032,7.0889,7.0919,7.1637,7.2907,7.2907,7.3642,7.4886,7.4886,7.4886,7.4886,7.4886,7.4886,7.4886,7.4886,7.4886,7.4886,7.4886,7.4886,7.4886,7.4886,7.4886,7.4886,7.4886,7.5335,7.5976,7.6617,7.7245,7.7921,7.8627,7.8807,7.8807,7.8807,7.8807,7.8807,7.8807,7.8807,7.8807,7.8807,7.8807,7.8807,7.8807,7.8807,7.8807,7.8807,7.8807,7.8807,7.8807,7.8807,7.8807,7.8807,7.8807,7.8807,7.8807,7.8807,7.8807,7.8807,7.8807,7.8807,7.8807,7.9417,8.0087,8.0764,8.1441,8.2069,8.2776,8.2806,8.2806,8.2806,8.2806,8.2806,8.2806,8.2806,8.2806,0.0,0.0,5.1761,5.1331,0.0,0.0,0.0,0.0,0.0,0.0,0.0,0.0,0.0,0.0,0.0,0.0,0.0,0.0,0.0,4.9112,5.0686,5.2055,5.4568,5.6795,0.0,0.0,0.0,0.0,6.2301,0.0,0.0,6.4411,6.5084,6.5338,6.7074,6.8331,6.9004,6.9678,7.0306,7.0919,7.1338,7.2026,7.2907,7.3373,7.4031,7.4886,7.4886,7.4886,7.4886,7.4886,7.4886,7.4886,7.4886,7.4886,7.4886,7.4886,7.4886,7.4886,7.4886,7.4886,7.4886,7.4886,7.5347,7.5988,7.6617,7.7275,7.7951,7.8609,7.8807,7.8807,7.8807,7.8807,7.8807,7.8807,7.8807,7.8807,7.8807,7.8807,7.8807,7.8807,7.8807,7.8807,7.8807,7.8807,7.8807,7.8807,7.8807,7.8807,7.8807,7.8807,7.8807,7.8807,7.8807,7.8807,7.8807,7.8807,7.8807,7.8807,7.9429,8.0087,8.0764,8.1422,8.2099,8.2776,8.2806,8.2806,8.2806,8.2806,8.2806,8.2806,8.2806,8.2806,5.3905,5.3545,0.0,5.2677,5.2217,0.0,5.1367,0.0,5.0324,0.0,0.0,0.0,0.0,0.0,0.0,0.0,0.0,0.0,0.0,4.9063,5.0051,5.0481,5.2887,5.5251,5.7244,5.8218,5.9564,6.1583,6.1972,6.2405,0.0,0.0,6.4755,6.4994,6.649,6.7852,6.9004,6.9439,7.0051,7.0919,7.1338,7.2026,7.2907,7.3343,7.4031,7.4886,7.4886,7.4886,7.4886,7.4886,7.4886,7.4886,7.4886,7.4886,7.4886,7.4886,7.4886,7.4886,7.4886,7.4886,7.4886,7.4886,7.5497,7.6288,7.6659,7.7424,7.825,7.8687,7.8807,7.8807,7.8807,7.8807,7.8807,7.8807,7.8807,7.8807,7.8807,7.8807,7.8807,7.8807,7.8807,7.8807,7.8807,7.8807,7.8807,7.8807,7.8807,7.8807,7.8807,7.8807,7.8807,7.8807,7.8807,7.8807,7.8807,7.8807,7.8807,7.8807,7.9656,8.0345,8.0794,8.168,8.2249,8.2447,8.2687,8.2687,8.2428,8.2687,8.2806,8.2806,8.2806,8.2806]}]]